     2              OBSERVATION DATA    G (GPS)             RINEX VERSION / TYPE
ASRINEXO V2.9.9 LH AIUB 01-FEB- 1 16:29                     PGM / RUN BY / DATE
BERN ASHTECH Z-12                                           COMMENT
BIT 2 OF LLI (+4) FLAGS DATA COLLECTED UNDER "AS" CONDITION COMMENT
USNB                                                        MARKER NAME
                                                            OBSERVER / AGENCY
? ASHTECH Z-XII3 1D15                                       REC # / TYPE / VERS
? CHOKE RING                                                ANT # / TYPE
  1112162.8500 -4842872.4900  3985511.6000                  APPROX POSITION XYZ
        0.0000        0.0000        0.0000                  ANTENNA: DELTA H/E/N
     1     1                                                WAVELENGTH FACT L1/2
     5    C1    L1    L2    P1    P2                        # / TYPES OF OBSERV
  2000     5     3     0     0   30.000000                  TIME OF FIRST OBS
                                                            END OF HEADER
 00  5  3  0  0 30.0000000  0  5 09 26 06 23 10
  22669145.410    -9759554.994 8  -7580621.16346  22669146.331    22669160.1154
  20565016.726   -21902635.508 9 -17044553.74348  20565018.106    20565026.9394
  23328758.626    -7876663.229 8  -6111849.75646  23328759.684    23328774.0524
  22145714.570   -14530983.914 8 -11305432.45447  22145717.397    22145728.5494
  24451143.042    -3119981.016 7  -2403773.88845  24451149.317    24451165.2244
 00  5  3  0  1  0.0000000  0  5 09 26 06 23 10
  22651106.621    -9854326.547 8  -7654468.89046  22651113.576    22651125.5374
  20576053.412   -21844616.310 9 -16999343.94848  20576058.662    20576067.5984
  23346715.341    -7782297.010 8  -6038317.79846  23346715.270    23346731.4484
  22136266.663   -14580628.932 9 -11344116.78947  22136270.067    22136281.1104
  24466234.722    -3040679.377 7  -2341980.54745  24466240.639    24466253.7124
 00  5  3  0  1 30.0000000  0  5 09 26 06 23 10
  22633123.150    -9948844.080 8  -7728118.70546  22633126.020    22633138.7904
  20587175.097   -21786184.062 9 -16953812.29348  20587178.683    20587186.3904
  23364694.535    -7687786.332 8  -5964673.22946  23364701.437    23364716.0834
  22126840.296   -14630164.102 8 -11382715.53747  22126842.693    22126854.6404
  24481326.503    -2961337.607 7  -2280155.86845  24481338.982    24481352.5624
 00  5  3  0  2  0.0000000  0  5 09 26 06 23 10
  22615180.851   -10043104.342 8  -7801568.04446  22615188.287    22615201.6484
  20598374.965   -21727341.270 9 -16907960.75048  20598376.699    20598384.3774
  23382710.119    -7593134.168 8  -5890918.43046  23382713.175    23382727.7924
  22117433.077   -14679589.272 8 -11421228.55147  22117437.937    22117448.5484
  24496438.919    -2881956.018 7  -2218300.18445  24496444.428    24496458.3104
 00  5  3  0  2 30.0000000  0  5 09 26 06 23 10
  22597296.377   -10137103.966 8  -7874814.30946  22597301.879    22597313.3444
  20609647.298   -21668090.407 9 -16861791.22448  20609651.016    20609659.4164
  23400747.364    -7498343.544 8  -5817055.74146  23400752.673    23400765.8994
  22108052.860   -14728904.369 9 -11459655.81247  22108054.061    22108064.2254
  24511556.670    -2802534.472 7  -2156413.37945  24511558.416    24511571.6614
 00  5  3  0  3  0.0000000  0  5 09 26 06 23 10
  22579461.066   -10230839.664 8  -7947854.91646  22579463.882    22579476.2004
  20620998.799   -21608433.907 9 -16815305.61148  20621002.578    20621011.4524
  23418812.864    -7403417.489 8  -5743087.49746  23418816.436    23418830.2614
  22098689.389   -14778109.488 9 -11497997.38547  22098690.775    22098700.3904
  24526677.827    -2723072.938 7  -2094495.37745  24526679.010    24526693.0214
 00  5  3  0  3 30.0000000  0  5 09 26 06 23 10
  22561675.680   -10324308.286 8  -8020687.40146  22561677.276    22561689.3244
  20632428.145   -21548374.350 9 -16768505.93148  20632431.854    20632440.8084
  23436902.361    -7308359.235 8  -5669016.24946  23436904.650    23436918.7114
  22089344.462   -14827204.540 8 -11536253.19747  22089348.004    22089358.0834
  24541811.613    -2643571.747 7  -2032546.52045  24541807.515    24541822.6574
 00  5  3  0  4  0.0000000  0  5 09 26 06 23 10
  22543939.542   -10417506.282 8  -8093309.00346  22543942.139    22543955.1924
  20643934.461   -21487914.101 9 -16721394.03848  20643937.914    20643945.6554
  23455017.498    -7213171.973 8  -5594844.46145  23455018.509    23455031.9394
  22080026.609   -14876189.278 9 -11574423.03247  22080025.806    22080037.1974
  24556944.777    -2564030.608 7  -1970566.50245  24556945.549    24556958.3374
 00  5  3  0  4 30.0000000  0  5 09 26 06 23 10
  22526257.876   -10510430.571 8  -8165717.33847  22526260.386    22526271.9514
  20655513.748   -21427055.738 9 -16673971.92348  20655518.440    20655526.8064
  23473153.005    -7117858.687 8  -5520574.50045  23473155.733    23473169.3224
  22070722.044   -14925063.647 9 -11612506.87447  22070726.252    22070736.9954
  24572084.932    -2484449.956 7  -1908555.73545  24572087.863    24572101.2754
 00  5  3  0  5  0.0000000  0  5 09 26 06 23 10
  22508631.162   -10603077.822 8  -8237909.82147  22508630.137    22508641.2104
  20667171.596   -21365801.734 9 -16626241.51048  20667174.297    20667182.9324
  23491308.643    -7022422.401 8  -5446208.65245  23491317.788    23491331.1614
  22061442.707   -14973827.536 9 -11650504.64447  22061446.469    22061456.6494
  24587240.886    -2404829.852 7  -1846514.19545  24587237.739    24587251.9984
 00  5  3  0  5 30.0000000  0  5 09 26 06 23 10
  22491044.715   -10695444.738 8  -8309883.83846  22491052.243    22491063.8784
  20678900.090   -21304154.610 9 -16578204.76148  20678905.200    20678914.6374
  23509504.660    -6926866.190 8  -5371749.39146  23509502.053    23509515.1484
  22052184.456   -15022480.948 9 -11688416.33247  22052188.012    22052197.7584
  24602386.740    -2325170.110 7  -1784441.79645  24602397.870    24602411.4994
 00  5  3  0  6  0.0000000  0  5 09 26 06 23 10
  22473527.501   -10787527.984 8  -8381636.82546  22473529.021    22473540.1454
  20690707.988   -21242116.865 9 -16529863.64548  20690711.146    20690719.3454
  23527698.935    -6831193.198 8  -5297199.14945  23527706.053    23527719.9924
  22042950.114   -15071023.586 9 -11726241.69647  22042950.492    22042960.7324
  24617556.805    -2245470.746 7  -1722338.56645  24617562.781    24617578.4474
 00  5  3  0  6 30.0000000  0  5 09 26 06 23 10
  22456059.323   -10879324.406 8  -8453166.32246  22456061.204    22456072.3904
  20702588.842   -21179690.883 9 -16481220.00948  20702591.026    20702598.8774
  23545931.603    -6735406.611 8  -5222560.34245  23545934.513    23545947.0404
  22033729.692   -15119455.603 9 -11763980.84747  22033733.935    22033744.6524
  24632734.427    -2165732.307 7  -1660204.77545  24632738.142    24632752.2554
 00  5  3  0  7  0.0000000  0  5 09 26 06 23 10
  22438640.690   -10970830.519 8  -8524469.61446  22438647.851    22438659.0484
  20714540.834   -21116879.362 9 -16432275.95548  20714542.923    20714550.8924
  23564186.952    -6639509.446 8  -5147835.41845  23564182.942    23564197.2374
  22024533.754   -15167776.909 9 -11801633.74147  22024538.767    22024548.9994
  24647921.478    -2085954.634 7  -1598040.43545  24647919.792    24647934.6264
 00  5  3  0  7 30.0000000  0  5 09 26 06 23 10
  22421285.648   -11062043.086 8  -8595544.17146  22421290.618    22421302.1164
  20726562.227   -21053684.737 9 -16383033.37048  20726568.087    20726576.7334
  23582446.832    -6543504.707 8  -5073026.65645  23582452.614    23582466.7584
  22015361.161   -15215987.335 9 -11839200.23647  22015364.960    22015374.3544
  24663117.412    -2006137.813 7  -1535845.62145  24663108.857    24663121.3594
 00  5  3  0  8  0.0000000  0  5 09 26 06 23 10
  22403989.475   -11152958.796 8  -8666387.42246  22403989.116    22404000.8034
  20738661.989   -20990109.510 9 -16333494.21348  20738665.944    20738674.8474
  23600738.895    -6447395.567 8  -4998136.51345  23600741.685    23600755.7014
  22006208.757   -15264086.751 8 -11876680.23347  22006211.333    22006221.5154
  24678303.883    -1926281.738 7  -1473620.20544  24678301.996    24678318.5144
 00  5  3  0  8 30.0000000  0  5 09 26 06 23 10
  22386735.001   -11243574.563 8  -8736996.92046  22386745.340    22386757.0134
  20750833.792   -20926156.277 9 -16283660.51647  20750836.234    20750844.2534
  23619045.641    -6351184.955 8  -4923167.32845  23619049.942    23619064.8924
  21997077.026   -15312074.930 9 -11914073.53047  21997079.204    21997089.6934
  24693508.126    -1846386.327 7  -1411364.10844  24693508.113    24693521.8364
 00  5  3  0  9  0.0000000  0  5 09 26 06 23 10
  22369559.203   -11333887.060 8  -8807370.14046  22369558.876    22369570.9344
  20763076.707   -20861827.380 9 -16233534.08947  20763077.531    20763085.5344
  23637380.450    -6254876.107 8  -4848121.63045  23637378.169    23637391.8444
  21987966.846   -15359951.753 9 -11951380.08247  21987968.943    21987979.0104
  24708704.622    -1766451.748 7  -1349077.54545  24708718.081    24708733.6114
 00  5  3  0  9 30.0000000  0  5 09 26 06 23 10
  22352426.105   -11423892.963 8  -8877504.43446  22352431.372    22352443.6514
  20775384.668   -20797125.526 9 -16183117.05447  20775389.848    20775397.7854
  23655717.310    -6158472.206 8  -4773001.81645  23655723.085    23655735.8514
  21978875.745   -15407716.989 9 -11988599.65947  21978879.632    21978889.1944
  24723931.726    -1686478.160 7  -1286760.58745  24723937.475    24723952.6894
 00  5  3  0 10  0.0000000  0  5 09 26 06 23 10
  22335357.474   -11513588.992 8  -8947397.27346  22335362.565    22335374.5234
  20787770.764   -20732053.157 9 -16132411.29847  20787772.804    20787781.0034
  23674081.045    -6061975.954 8  -4697810.00446  23674084.321    23674099.0164
  21969808.936   -15455370.563 9 -12025732.23247  21969811.558    21969820.5454
  24739150.167    -1606465.601 7  -1224413.24245  24739164.296    24739178.8114
 00  5  3  0 10 30.0000000  0  5 09 26 06 23 10
  22318351.191   -11602972.077 8  -9017046.25046  22318354.549    22318365.5624
  20800220.577   -20666612.740 9 -16081418.75347  20800225.975    20800233.9614
  23692462.316    -5965390.485 8  -4622548.71945  23692464.113    23692478.3664
  21960761.880   -15502912.376 9 -12062777.73847  21960764.542    21960774.1334
  24754408.809    -1526414.458 7  -1162035.82445  24754398.049    24754410.6674
 00  5  3  0 11  0.0000000  0  5 09 26 06 23 10
  22301398.690   -11692038.970 8  -9086448.87246  22301404.478    22301415.9984
  20812745.692   -20600806.885 9 -16030141.44747  20812748.204    20812756.7084
  23710854.934    -5868718.850 8  -4547220.29445  23710860.673    23710874.7764
  21951737.347   -15550342.436 9 -12099736.14047  21951738.570    21951748.7524
  24769642.014    -1446324.533 7  -1099628.17745  24769638.526    24769652.8004
 00  5  3  0 11 30.0000000  0  5 09 26 06 23 10
  22284515.020   -11780786.312 8  -9155602.43246  22284516.322    22284528.4524
  20825335.709   -20534638.067 9 -15978581.31947  20825339.170    20825347.8054
  23729270.029    -5771964.277 8  -4471827.25545  23729273.012    23729286.7724
  21942730.657   -15597660.424 9 -12136607.21047  21942734.298    21942743.8664
  24784883.406    -1366195.965 7  -1037190.47544  24784886.483    24784901.2954
 00  5  3  0 12  0.0000000  0  4 09 26 06 23
  22267688.522   -11869210.560 8  -9224504.28047  22267690.583    22267701.1894
  20837994.478   -20468108.819 9 -15926740.33247  20837999.344    20838007.3804
  23747696.440    -5675129.696 8  -4396371.85745  23747699.913    23747714.2034
  21933749.899   -15644866.095 9 -12173390.78147  21933751.508    21933761.0724
 00  5  3  0 12 30.0000000  0  4 09 26 06 23
  22250921.068   -11957308.947 8  -9293152.21946  22250925.511    22250935.8204
  20850720.791   -20401221.659 9 -15874620.45647  20850727.902    20850735.3834
  23766136.443    -5578218.226 8  -4320856.55445  23766140.487    23766155.5864
  21924786.553   -15691959.410 9 -12210086.79647  21924789.066    21924799.2604
 00  5  3  0 13  0.0000000  0  4 09 26 06 23
  22234220.870   -12045078.076 8  -9361543.56246  22234222.655    22234234.3904
  20863520.994   -20333979.317 9 -15822223.81047  20863524.126    20863531.4864
  23784594.087    -5481232.833 8  -4245283.63045  23784596.818    23784611.3114
  21915846.665   -15738940.114 9 -12246695.05647  21915849.353    21915859.1624
 00  5  3  0 13 30.0000000  0  4 09 26 06 23
  22217580.980   -12132514.556 8  -9429675.70846  22217584.832    22217595.7334
  20876381.827   -20266384.021 9 -15769552.13647  20876386.639    20876394.4494
  23803061.125    -5384176.590 8  -4169655.52145  23803066.199    23803080.3494
  21906928.778   -15785808.067 9 -12283215.47547  21906930.813    21906940.3194
 00  5  3  0 14  0.0000000  0  4 09 26 06 23
  22201007.587   -12219615.432 8  -9497546.36246  22201009.708    22201019.9844
  20889312.362   -20198438.455 9 -15716607.53547  20889316.013    20889324.1694
  23821542.844    -5287052.594 8  -4093974.60445  23821548.545    23821563.3194
  21898031.243   -15832563.217 9 -12319647.99947  21898033.561    21898043.0474
 00  5  3  0 14 30.0000000  0  4 09 26 06 23
  22184495.301   -12306377.182 8  -9565152.76046  22184499.275    22184509.9964
  20902305.475   -20130145.196 9 -15663391.99147  20902311.641    20902320.2814
  23840033.131    -5189863.827 7  -4018243.18645  23840043.352    23840057.9064
  21889156.722   -15879205.254 9 -12355992.37547  21889158.056    21889167.4374
 00  5  3  0 15  0.0000000  0  4 09 26 06 23
  22168050.711   -12392796.739 8  -9632492.50146  22168054.423    22168064.6594
  20915371.462   -20061506.584 9 -15609907.35247  20915373.184    20915381.7574
  23858547.143    -5092613.178 7  -3942463.57945  23858547.730    23858563.0484
  21880299.799   -15925733.805 9 -12392248.31447  21880303.596    21880313.3364
 00  5  3  0 15 30.0000000  0  4 09 26 06 23
  22151670.207   -12478871.057 8  -9699563.23646  22151674.421    22151685.4014
  20928495.994   -19992525.326 9 -15556155.72047  20928499.519    20928508.1044
  23877068.368    -4995303.871 7  -3866638.27145  23877065.070    23877082.1704
  21871469.379   -15972148.803 9 -12428415.76647  21871470.931    21871480.3884
 00  5  3  0 16  0.0000000  0  4 09 26 06 23
  22135354.763   -12564597.086 8  -9766362.55747  22135361.371    22135372.4954
  20941689.025   -19923203.887 9 -15502139.00747  20941691.776    20941699.8194
  23895582.229    -4897938.925 7  -3790769.59245  23895594.383    23895609.4434
  21862657.895   -16018449.989 9 -12464494.53147  21862660.033    21862669.5044
 00  5  3  0 16 30.0000000  0  4 09 26 06 23
  22119114.902   -12649971.205 8  -9832887.68047  22119115.411    22119126.5114
  20954943.252   -19853544.839 9 -15447859.23747  20954947.334    20954955.7174
  23914131.517    -4800521.309 8  -3714859.83945  23914131.466    23914146.5364
  21853868.287   -16064637.167 9 -12500484.47347  21853870.589    21853879.6514
 00  5  3  0 17  0.0000000  0  5 09 03 26 06 23
  22102932.093   -12734990.182 8  -9899136.04347  22102936.512    22102947.5554
  24639679.754     -799710.14517   -611381.97555  24639680.885    24639691.4104
  20968264.604   -19783550.674 9 -15393318.31847  20968266.513    20968275.0284
  23932681.256    -4703054.035 8  -3638911.40845  23932681.576    23932693.8774
  21845099.132   -16110710.154 9 -12536385.42847  21845103.470    21845112.4324
 00  5  3  0 17 30.0000000  0  5 09 03 26 06 23
  22086822.988   -12819651.061 8  -9965105.39047  22086825.984    22086836.8664
  24631989.826     -840093.351 8   -642849.41745  24631995.778    24632005.3284
  20981644.630   -19713223.970 9 -15338518.26847  20981649.243    20981657.3614
  23951227.424    -4605540.100 8  -3562926.60945  23951236.504    23951251.4784
  21836353.767   -16156668.766 9 -12572197.25847  21836357.859    21836367.2564
 00  5  3  0 18  0.0000000  0  5 09 03 26 06 23
  22070784.215   -12903950.687 8 -10030793.25147  22070784.350    22070794.3304
  24624399.158     -879980.742 7   -673930.46145  24624404.384    24624416.3684
  20995090.251   -19642567.163 9 -15283461.00047  20995094.435    20995103.0824
  23969794.498    -4507982.463 8  -3486907.79545  23969800.542    23969815.2634
  21827630.142   -16202512.764 9 -12607919.77347  21827633.800    21827643.2964
 00  5  3  0 18 30.0000000  0  5 09 03 26 06 23
  22054806.460   -12987885.908 8 -10096197.17047  22054812.258    22054822.1854
  24616908.229     -919371.216 7   -704624.33345  24616906.892    24616919.7414
  21008596.466   -19571582.929 9 -15228148.60247  21008602.341    21008610.8094
  23988374.091    -4410384.143 8  -3410857.28045  23988372.628    23988389.0394
  21818929.714   -16248241.912 9 -12643552.80647  21818932.497    21818941.4544
 00  5  3  0 19  0.0000000  0  6 09 03 26 06 21 23
  22038907.514   -13071453.523 8 -10161314.62147  22038909.407    22038919.8454
  24609500.697     -958263.747 7   -734930.12045  24609506.757    24609519.7404
  21022168.812   -19500273.640 9 -15172582.90747  21022172.240    21022180.8064
  24006945.445    -4312748.153 8  -3334777.35945  24006953.076    24006967.8584
  25039650.702     -248758.28917   -172911.28854  25039656.991    25039669.6354
  21810249.814   -16293855.891 9 -12679096.08447  21810252.329    21810261.0884
 00  5  3  0 19 30.0000000  0  6 09 03 26 06 21 23
  22023072.228   -13154650.418 8 -10226143.20347  22023077.683    22023087.4284
  24602190.962     -996657.326 7   -764847.25545  24602201.739    24602213.9064
  21035800.572   -19428641.906 9 -15116765.96247  21035803.336    21035811.6134
  24025531.332    -4215077.385 8  -3258670.39245  24025538.811    24025554.1704
  25024963.104     -325965.421 7   -233072.54944  25024964.501    25024978.8034
  21801591.039   -16339354.589 9 -12714549.55247  21801593.670    21801602.8674
 00  5  3  0 20  0.0000000  0  6 09 03 26 06 21 23
  22007314.790   -13237473.338 8 -10290680.39647  22007316.895    22007326.8734
  24594986.676    -1034551.007 7   -794374.81945  24594991.520    24595004.2564
  21049493.196   -19356690.165 9 -15060699.66447  21049495.504    21049503.7604
  24044133.010    -4117374.772 8  -3182538.57245  24044132.289    24044145.3034
  25010270.825     -403203.957 7   -293258.34045  25010268.957    25010279.7674
  21792956.984   -16384737.714 9 -12749912.94947  21792957.401    21792966.6164
 00  5  3  0 20 30.0000000  0  6 09 03 26 06 21 23
  21991626.092   -13319919.292 8 -10354923.82447  21991627.344    21991637.7504
  24587872.202    -1071943.861 7   -823512.08845  24587875.341    24587887.7684
  21063245.833   -19284420.991 9 -15004386.00247  21063248.034    21063256.1964
  24062716.594    -4019643.229 7  -3106384.20345  24062729.085    24062744.2084
  24995557.457     -480473.176 7   -353467.99145  24995564.248    24995575.0604
  21784337.199   -16430005.183 9 -12785186.21147  21784342.848    21784352.7734
 00  5  3  0 21  0.0000000  0  6 09 03 26 06 21 23
  21976008.765   -13401985.039 8 -10418870.96747  21976011.091    21976021.3434
  24580856.258    -1108834.883 7   -852258.37345  24580855.653    24580865.8714
  21077055.957   -19211836.938 9 -14947826.99647  21077060.076    21077068.4514
  24081341.953    -3921885.861 8  -3030209.73745  24081332.245    24081348.0054
  24980854.979     -557773.136 7   -413701.67745  24980854.581    24980867.3684
  21775749.173   -16475156.332 9 -12820368.83947  21775751.167    21775761.2744
 00  5  3  0 21 30.0000000  0  6 09 03 26 06 21 23
  21960469.678   -13483667.562 8 -10482519.54547  21960466.749    21960477.8694
  24573927.599    -1145222.984 7   -880612.74245  24573930.994    24573942.4184
  21090927.048   -19138940.505 9 -14891024.55747  21090931.218    21090940.0414
  24099931.492    -3824105.494 7  -2954017.36345  24099937.295    24099955.0274
  24966140.531     -635103.939 7   -473959.34345  24966137.597    24966150.2984
  21767179.414   -16520190.939 9 -12855460.65947  21767181.628    21767190.9104
 00  5  3  0 22  0.0000000  0  6 09 03 26 06 21 23
  21944989.786   -13564963.766 8 -10545867.06747  21944996.383    21945006.9864
  24567094.709    -1181107.393 7   -908574.61545  24567102.210    24567113.5834
  21104859.659   -19065734.286 9 -14833980.74347  21104862.202    21104870.8914
  24118515.233    -3726305.120 7  -2877809.38245  24118547.743    24118566.2824
  24951410.967     -712465.275 7   -534240.76745  24951415.077    24951427.5974
  21758630.013   -16565109.023 9 -12890461.67847  21758633.179    21758642.6514
 00  5  3  0 22 30.0000000  0  6 09 03 26 06 21 23
  21929597.067   -13645870.490 8 -10608911.09347  21929600.046    21929610.6294
  24560365.020    -1216487.507 8   -936143.49245  24560370.554    24560382.0864
  21118847.029   -18992220.595 9 -14776697.32747  21118850.987    21118860.0504
  24137155.277    -3628487.770 7  -2801588.15445  24137164.638    24137179.9634
  24936686.179     -789857.325 7   -594546.15445  24936686.905    24936701.4464
  21750103.602   -16609910.068 9 -12925371.48847  21750107.793    21750117.5104
 00  5  3  0 23  0.0000000  0  6 09 03 26 06 21 23
  21914277.629   -13726384.687 8 -10671649.26647  21914278.748    21914288.4734
  24553731.075    -1251362.035 7   -963318.39545  24553732.343    24553742.8704
  21132895.813   -18918402.112 9 -14719176.42147  21132899.025    21132906.8364
  24155777.980    -3530656.246 8  -2725355.95345  24155781.361    24155796.7374
  24921952.927     -867279.890 7   -654875.30945  24921954.821    24921968.5884
  21741600.847   -16654593.658 9 -12960189.78747  21741604.522    21741614.7684
 00  5  3  0 23 30.0000000  0  6 09 03 26 06 21 23
  21899031.770   -13806503.208 8 -10734079.12647  21899033.036    21899042.9174
  24547192.604    -1285730.322 7   -990098.80645  24547192.453    24547203.9514
  21147001.701   -18844281.293 9 -14661419.90747  21147003.731    21147011.9034
  24174386.790    -3432813.623 7  -2649115.04145  24174398.702    24174415.6844
  24907214.337     -944733.199 7   -715228.39545  24907216.787    24907229.7474
  21733117.341   -16699159.650 9 -12994916.43947  21733123.930    21733133.9734
 00  5  3  0 24  0.0000000  0  6 09 03 26 06 21 23
  21883859.038   -13886223.242 8 -10796198.47747  21883862.570    21883872.7654
  24540746.056    -1319591.479 8  -1016484.10245  24540750.602    24540760.2404
  21161162.697   -18769860.602 9 -14603429.74347  21161165.415    21161173.3854
  24193019.476    -3334962.620 8  -2572867.59545  24193019.559    24193036.3634
  24892470.560    -1022217.086 7   -775605.32645  24892471.894    24892485.0484
  21724664.824   -16743607.656 9 -13029551.15447  21724666.075    21724675.8714
 00  5  3  0 24 30.0000000  0  6 09 03 26 06 21 23
  21868768.024   -13965541.504 8 -10858004.75747  21868768.157    21868778.6964
  24534395.445    -1352944.775 7  -1042473.64445  24534402.973    24534412.3294
  21175381.250   -18695142.664 9 -14545207.94747  21175383.429    21175391.6914
  24211641.396    -3237106.294 7  -2496616.00145  24211641.029    24211658.1144
  24877716.932    -1099731.384 7   -836005.93045  24877720.131    24877735.6764
  21716227.039   -16787937.449 9 -13064093.76347  21716230.126    21716239.8074
 00  5  3  0 25  0.0000000  0  6 09 03 26 06 21 23
  21853748.210   -14044454.989 8 -10919495.63747  21853751.847    21853761.9514
  24528149.050    -1385789.731 7  -1068067.02345  24528151.168    24528161.1044
  21189653.273   -18620129.776 9 -14486756.32347  21189658.042    21189666.2404
  24230255.022    -3139247.604 7  -2420362.61945  24230264.067    24230279.3504
  24862959.197    -1177275.667 7   -896429.91045  24862961.674    24862976.8024
  21707813.107   -16832148.859 9 -13098544.11547  21707816.837    21707826.7394
 00  5  3  0 25 30.0000000  0  6 09 03 26 06 21 23
  21838810.185   -14122960.560 9 -10980668.64747  21838812.898    21838822.8684
  24521990.916    -1418125.405 7  -1093263.63045  24521998.644    24522010.5484
  21203980.308   -18544824.611 9 -14428076.95147  21203987.173    21203996.2544
  24248877.541    -3041389.430 7  -2344109.57245  24248885.402    24248900.2274
  24848203.055    -1254850.161 7   -956877.45345  24848205.262    24848217.2504
  21699425.063   -16876241.296 9 -13132901.76247  21699427.064    21699436.1734
 00  5  3  0 26  0.0000000  0  6 09 03 26 06 21 23
  21823949.145   -14201055.360 8 -11041521.59047  21823951.141    21823961.4114
  24515938.046    -1449950.864 7  -1118062.68845  24515941.550    24515952.7344
  21218370.106   -18469229.613 9 -14369171.73647  21218373.010    21218381.7904
  24267513.390    -2943534.663 7  -2267859.20945  24267506.190    24267523.6034
  24833423.045    -1332454.401 7  -1017348.12845  24833435.850    24833447.9844
  21691053.989   -16920214.571 9 -13167166.56647  21691058.345    21691067.9704
 00  5  3  0 26 30.0000000  0  6 09 03 26 06 21 23
  21809161.554   -14278736.194 8 -11102051.98047  21809169.251    21809178.8624
  24509984.371    -1481265.689 7  -1142463.82745  24509984.057    24509996.0394
  21232807.033   -18393347.319 9 -14310042.65747  21232812.572    21232822.0134
  24286129.104    -2845686.258 7  -2191613.79745  24286127.147    24286142.1674
  24818662.847    -1410089.114 7  -1077842.56045  24818660.824    24818671.7754
  21682711.242   -16964068.396 9 -13201338.29147  21682713.309    21682723.0754
 00  5  3  0 27  0.0000000  0  7 09 03 26 06 21 29 23
  21794465.112   -14356000.105 8 -11162257.46047  21794465.688    21794476.4784
  24504117.342    -1512069.325 7  -1166466.68845  24504120.444    24504132.6584
  21247304.163   -18317180.133 9 -14250691.58047  21247307.172    21247315.7674
  24304752.308    -2747847.044 8  -2115375.54845  24304746.776    24304759.8624
  24803881.771    -1487753.746 7  -1138360.29445  24803881.230    24803896.0644
  24537002.010    -1456675.08317  -1121062.21655  24537006.238    24537022.5674
  21674387.764   -17007802.466 9 -13235416.69647  21674391.390    21674400.7684
 00  5  3  0 27 30.0000000  0  7 09 03 26 06 21 29 23
  21779839.154   -14432843.969 8 -11222135.62547  21779842.525    21779853.4284
  24498352.260    -1542360.500 7  -1190070.22145  24498358.014    24498368.6044
  21261853.534   -18240730.534 9 -14191120.44847  21261854.977    21261863.5234
  24323357.977    -2650020.102 7  -2039146.78545  24323360.795    24323377.2624
  24789095.921    -1565448.475 7  -1198901.57145  24789099.008    24789109.0514
  24519058.650    -1550976.201 7  -1194543.33045  24519061.418    24519078.0254
  21666089.986   -17051416.381 9 -13269401.49047  21666091.779    21666101.0204
 00  5  3  0 28  0.0000000  0  7 09 03 26 06 21 29 23
  21765301.020   -14509265.123 8 -11281684.42547  21765300.483    21765310.6144
  24492688.635    -1572138.755 7  -1213274.12045  24492692.289    24492701.3814
  21276451.696   -18164001.104 9 -14131331.25447  21276456.767    21276464.3464
  24341978.193    -2552208.174 7  -1962929.76645  24341974.326    24341990.5284
  24774305.839    -1643172.955 7  -1259465.96245  24774307.975    24774319.8834
  24501149.799    -1645130.400 7  -1267909.96645  24501146.312    24501161.2604
  21657811.820   -17094909.890 9 -13303292.43647  21657814.867    21657824.0714
 00  5  3  0 28 30.0000000  0  7 09 03 26 06 21 29 23
  21750833.220   -14585260.361 8 -11340901.33047  21750838.645    21750848.7464
  24487124.382    -1601403.766 7  -1236078.04045  24487121.353    24487132.7594
  21291109.390   -18086994.128 9 -14071325.78747  21291110.453    21291118.2474
  24360581.773    -2454414.038 7  -1886726.63145  24360583.045    24360598.7314
  24759509.780    -1720927.374 7  -1320053.70245  24759511.467    24759524.1734
  24483250.361    -1739136.677 7  -1341161.36845  24483258.305    24483271.4354
  21649558.857   -17138282.514 9 -13337089.20447  21649561.849    21649571.0184
 00  5  3  0 29  0.0000000  0  7 09 03 26 06 21 29 23
  21736452.771   -14660826.581 8 -11399783.95847  21736458.701    21736469.0584
  24481652.200    -1630154.593 7  -1258481.29945  24481652.484    24481663.8584
  21305813.373   -18009712.363 9 -14011106.21447  21305816.421    21305824.5714
  24379185.440    -2356640.542 7  -1810539.61245  24379188.580    24379204.3924
  24744712.281    -1798711.270 7  -1380664.42345  24744709.209    24744721.7154
  24465411.244    -1832993.944 7  -1414296.60845  24465396.006    24465410.6634
  21641328.224   -17181533.786 9 -13370791.40947  21641331.283    21641340.1284
 00  5  3  0 29 30.0000000  0  7 09 03 26 06 21 29 23
  21722160.267   -14735960.798 9 -11458329.94547  21722161.184    21722171.7704
  24476269.395    -1658390.714 7  -1280483.48945  24476276.267    24476288.2444
  21320574.940   -17932158.115 9 -13950674.31147  21320574.418    21320583.0414
  24397782.906    -2258890.632 7  -1734370.97445  24397790.538    24397806.8404
  24729890.689    -1876524.964 7  -1441298.32945  24729901.437    24729913.9314
  24447558.847    -1926701.106 7  -1487314.88145  24447562.609    24447577.4234
  21633118.500   -17224663.413 9 -13404398.81347  21633123.195    21633132.8014
 00  5  3  0 30  0.0000000  0  7 09 03 26 06 21 29 23
  21707942.069   -14810660.516 9 -11516537.35947  21707947.030    21707956.6924
  24470997.087    -1686111.522 7  -1302084.09545  24471002.350    24471014.1264
  21335378.683   -17854333.793 9 -13890031.95647  21335383.821    21335392.2134
  24416378.140    -2161167.059 7  -1658222.86045  24416386.064    24416403.8294
  24715086.969    -1954367.640 7  -1501954.83945  24715089.018    24715099.5234
  24429746.880    -2020256.924 7  -1560215.27245  24429759.581    24429773.8514
  21624935.733   -17267671.060 9 -13437911.17947  21624939.174    21624948.2604
 00  5  3  0 30 30.0000000  0  7 09 03 26 06 21 29 23
  21693815.628   -14884922.730 9 -11574403.84147  21693814.971    21693824.8194
  24465824.215    -1713316.493 7  -1323282.76945  24465826.362    24465837.6094
  21350240.122   -17776241.859 9 -13829181.08247  21350243.987    21350253.2674
  24434971.900    -2063472.658 7  -1582097.41945  24434978.629    24434994.2434
  24700271.005    -2032239.826 7  -1562634.33345  24700270.160    24700281.5784
  24411976.049    -2113660.570 7  -1632997.08945  24411984.929    24412001.0574
  21616775.279   -17310556.398 9 -13471328.25047  21616778.656    21616787.7174
 00  5  3  0 31  0.0000000  0  7 09 03 26 06 21 29 23
  21679761.093   -14958744.438 8 -11631927.10247  21679766.731    21679776.6764
  24460745.752    -1740005.192 7  -1344079.09045  24460746.076    24460758.5914
  21365151.097   -17697884.793 9 -13768123.60647  21365155.821    21365163.5614
  24453553.525    -1965810.343 7  -1505996.99145  24453562.964    24453579.0164
  24685440.048    -2110141.444 7  -1623336.80545  24685444.717    24685458.8634
  24394250.147    -2206910.948 7  -1705659.43445  24394242.565    24394256.7494
  21608636.280   -17353318.870 9 -13504649.57647  21608640.809    21608649.8524
 00  5  3  0 31 30.0000000  0  7 09 03 26 06 21 29 23
  21665800.990   -15032122.639 9 -11689104.74547  21665803.294    21665813.0504
  24455761.887    -1766177.135 7  -1364472.79845  24455766.414    24455778.3544
  21380111.715   -17619265.219 9 -13706861.56347  21380115.638    21380124.2504
  24472132.171    -1868182.899 7  -1429923.70445  24472140.325    24472156.9104
  24670605.548    -2188072.019 7  -1684061.78545  24670615.362    24670627.9724
  24376520.287    -2300006.763 7  -1778201.40645  24376527.167    24376539.7854
  21600527.686   -17395958.148 9 -13537874.90647  21600527.424    21600536.1984
 00  5  3  0 32  0.0000000  0  7 09 03 26 06 21 29 23
  21651918.549   -15105054.465 9 -11745934.58747  21651924.461    21651934.7194
  24450881.316    -1791832.035 7  -1384463.61145  24450883.844    24450896.2364
  21395124.925   -17540385.472 9 -13645396.80247  21395125.771    21395134.5804
  24490703.765    -1770593.094 7  -1353879.76045  24490709.842    24490727.3084
  24655776.855    -2266030.957 7  -1744808.90645  24655780.357    24655794.6334
  24358839.297    -2392947.345 7  -1850622.35445  24358840.178    24358853.3154
  21592433.918   -17438473.911 9 -13571003.99347  21592436.249    21592445.0504
 00  5  3  0 32 30.0000000  0  7 09 03 26 06 21 29 23
  21638128.597   -15177536.985 9 -11802414.31547  21638131.862    21638141.7714
  24446102.083    -1816969.285 7  -1404051.11645  24446100.343    24446112.5924
  21410181.557   -17461247.841 9 -13583731.10447  21410185.267    21410194.1864
  24509272.439    -1673043.835 7  -1277867.44445  24509273.900    24509287.4154
  24640942.348    -2344018.632 7  -1805578.43445  24640940.338    24640952.7944
  24341175.082    -2485731.135 7  -1922921.18845  24341185.185    24341196.0964
  21584366.599   -17480865.486 9 -13604036.32047  21584369.093    21584378.4054
 00  5  3  0 33  0.0000000  0  6 09 03 26 21 29 23
  21624423.706   -15249567.324 9 -11858541.72047  21624424.285    21624434.0454
  24441413.139    -1841588.388 7  -1423234.86245  24441415.740    24441428.2094
  21425283.652   -17381854.927 8 -13521866.47947  21425292.941    21425301.9854
  24626086.909    -2422034.691 7  -1866370.07045  24626092.241    24626105.9834
  24323557.204    -2578357.476 7  -1995097.31045  24323558.774    24323569.4114
  21576321.903   -17523132.641 9 -13636971.68347  21576325.930    21576335.3254
 00  5  3  0 33 30.0000000  0  6 09 03 26 21 29 23
  21610799.636   -15321142.683 9 -11914314.58047  21610804.125    21610813.0104
  24436824.344    -1865688.914 7  -1442014.55245  24436827.800    24436842.2294
  21440443.815   -17302209.103 9 -13459804.78447  21440449.509    21440457.8304
  24611236.485    -2500078.678 7  -1927183.43645  24611243.477    24611255.9874
  24305965.669    -2670825.393 8  -2067149.93745  24305961.228    24305972.7284
  21568304.302   -17565274.960 9 -13669809.77447  21568306.746    21568316.2424
 00  5  3  0 34  0.0000000  0  6 09 03 26 21 29 23
  21597268.438   -15392260.213 9 -11969730.69147  21597270.885    21597280.0904
  24432338.539    -1889270.612 7  -1460389.94845  24432342.556    24432353.8654
  21455647.798   -17222312.892 9 -13397547.97747  21455653.592    21455661.3794
  24596389.170    -2578150.945 7  -1988018.87945  24596383.688    24596399.8024
  24288396.799    -2763133.468 7  -2139078.05545  24288393.819    24288406.5404
  21560306.508   -17607292.010 9 -13702550.26747  21560310.914    21560320.3174
 00  5  3  0 34 30.0000000  0  6 09 03 26 21 29 23
  21583820.351   -15462917.202 9 -12024787.93247  21583825.051    21583834.4154
  24427947.116    -1912332.887 7  -1478360.58945  24427953.567    24427965.7154
  21470903.245   -17142168.521 9 -13335097.81547  21470904.818    21470912.3714
  24581514.199    -2656251.081 7  -2048876.03445  24581522.368    24581535.2004
  24270849.110    -2855281.078 7  -2210881.10345  24270859.711    24270872.0224
  21552338.845   -17649183.234 9 -13735192.70347  21552339.617    21552348.4174
 00  5  3  0 35  0.0000000  0  6 09 03 26 21 29 23
  21570463.738   -15533110.724 9 -12079484.04847  21570467.790    21570477.2334
  24423662.580    -1934875.447 7  -1495926.16445  24423664.040    24423675.9134
  21486195.981   -17061778.656 9 -13272456.33747  21486202.612    21486210.0444
  24566645.393    -2734378.902 7  -2109754.75345  24566654.198    24566670.0254
  24253349.989    -2947266.942 7  -2282558.11845  24253353.740    24253369.1534
  21544389.315   -17690948.233 9 -13767736.78147  21544392.017    21544400.5754
 00  5  3  0 35 30.0000000  0  6 09 03 26 21 29 23
  21557198.209   -15602837.920 9 -12133816.77647  21557199.175    21557208.4304
  24419470.124    -1956898.161 7  -1513086.74745  24419474.723    24419484.3294
  21501541.014   -16981145.499 9 -13209625.28447  21501545.959    21501554.2024
  24551782.294    -2812534.535 7  -2170655.14445  24551783.767    24551797.3174
  24235875.809    -3039090.103 7  -2354108.38345  24235879.492    24235894.6624
  21536465.447   -17732586.542 9 -13800182.14347  21536467.955    21536477.1664
 00  5  3  0 36  0.0000000  0  6 09 03 26 21 29 23
  21544017.167   -15672096.043 9 -12187784.01447  21544019.766    21544029.1514
  24415378.904    -1978400.480 7  -1529841.79945  24415382.238    24415393.8184
  21516932.012   -16900271.512 9 -13146606.57747  21516935.505    21516943.6824
  24536906.422    -2890717.904 7  -2231577.21445  24536905.971    24536919.2164
  24218439.329    -3130749.667 7  -2425531.14045  24218437.855    24218451.4604
  21528565.531   -17774097.845 9 -13832528.54647  21528568.845    21528577.6514
 00  5  3  0 36 30.0000000  0  6 09 03 26 21 29 23
  21530925.611   -15740882.323 9 -12241383.58247  21530929.726    21530938.8254
  24411387.202    -1999382.025 7  -1546191.03445  24411389.526    24411400.6304
  21532369.265   -16819159.119 8 -13083402.09947  21532370.804    21532378.5464
  24522015.761    -2968928.552 7  -2292520.46845  24522022.446    24522032.8904
  24201024.278    -3222244.442 7  -2496825.55845  24201027.388    24201041.5854
  21520691.556   -17815481.609 9 -13864775.56047  21520693.744    21520702.4884
 00  5  3  0 37  0.0000000  0  6 09 03 26 21 29 23
  21517923.967   -15809194.245 9 -12294613.52147  21517929.830    21517939.5624
  24407499.198    -2019843.002 7  -1562134.62345  24407496.626    24407506.6704
  21547851.801   -16737810.633 9 -13020013.64847  21547850.958    21547858.2214
  24507131.338    -3047165.694 7  -2353484.33545  24507133.737    24507147.0244
  24183646.021    -3313573.752 7  -2567991.01345  24183649.260    24183661.5124
  21512837.395   -17856737.533 9 -13896922.95547  21512842.759    21512851.1604
 00  5  3  0 37 30.0000000  0  6 09 03 26 21 29 23
  21505015.601   -15877028.711 9 -12347471.42547  21505021.742    21505030.6824
  24403690.165    -2039782.854 7  -1577672.15145  24403700.809    24403711.5874
  21563374.736   -16656228.635 9 -12956443.24447  21563376.212    21563383.2384
  24492235.346    -3125429.837 7  -2414469.29945  24492241.358    24492252.9134
  24166293.021    -3404736.434 7  -2639026.60145  24166299.937    24166312.0244
  21505014.433   -17897864.911 9 -13928970.20547  21505016.802    21505024.6884
 00  5  3  0 38  0.0000000  0  6 09 03 26 21 29 23
  21492203.802   -15944383.223 9 -12399955.34547  21492204.438    21492213.7934
  24400008.683    -2059201.552 7  -1592803.60845  24400008.018    24400016.3754
  21578943.363   -16574415.370 9 -12892692.62447  21578945.355    21578952.1684
  24477345.539    -3203720.919 7  -2475475.23445  24477342.112    24477354.6904
  24148979.273    -3495731.475 7  -2709931.56745  24148983.323    24148997.8504
  21497213.950   -17938863.236 9 -13960916.86747  21497215.068    21497223.1874
 00  5  3  0 38 30.0000000  0  6 09 03 26 21 29 23
  21479478.397   -16011254.872 9 -12452063.00547  21479478.974    21479488.3614
  24396406.620    -2078098.972 7  -1607528.84245  24396410.497    24396422.5954
  21594550.736   -16492373.254 9 -12828763.67747  21594556.362    21594563.9694
  24462434.812    -3282038.405 7  -2536501.73445  24462439.482    24462451.4454
  24131696.126    -3586557.987 7  -2780705.23645  24131700.502    24131712.9844
  21489435.084   -17979732.216 9 -13992762.75147  21489438.054    21489446.2394
 00  5  3  0 39  0.0000000  0  6 09 03 26 21 29 23
  21466843.023   -16077641.175 9 -12503792.47747  21466845.894    21466855.5044
  24392904.907    -2096474.577 7  -1621847.52545  24392913.114    24392925.0954
  21610205.586   -16410104.589 8 -12764658.19847  21610210.880    21610219.5124
  24447521.501    -3360381.992 7  -2597548.57345  24447529.803    24447543.1124
  24114448.313    -3677214.890 8  -2851346.78845  24114449.055    24114461.8084
  21481682.763   -18020471.163 9 -14024507.32147  21481685.483    21481693.6584
 00  5  3  0 39 30.0000000  0  6 09 03 26 21 29 23
  21454302.952   -16143539.254 9 -12555141.51047  21454306.126    21454315.4314
  24389513.874    -2114328.561 7  -1635759.68245  24389517.014    24389527.5224
  21625905.362   -16327611.789 8 -12700378.07847  21625908.610    21625916.9314
  24432616.930    -3438751.579 7  -2658615.70345  24432617.680    24432627.5714
  24097226.410    -3767701.325 8  -2921855.47545  24097230.630    24097242.7334
  21473956.839   -18061079.608 9 -14056150.19947  21473958.116    21473965.9814
 00  5  3  0 40  0.0000000  0  6 09 03 26 21 29 23
  21441854.065   -16208946.726 9 -12606108.24247  21441859.423    21441868.4324
  24386212.195    -2131660.496 7  -1649265.03945  24386218.673    24386229.3744
  21641646.597   -16244897.213 9 -12635925.14747  21641649.200    21641657.4854
  24417690.109    -3517146.735 7  -2719702.75745  24417700.537    24417709.8774
  24080044.380    -3858016.422 7  -2992230.62945  24080042.903    24080056.1814
  21466252.371   -18101557.027 9 -14087690.97547  21466255.241    21466263.5414
 00  5  3  0 40 30.0000000  0  6 09 03 26 21 29 23
  21429505.068   -16273860.880 9 -12656690.58847  21429506.172    21429515.2634
  24383018.216    -2148470.400 7  -1662363.64945  24383019.383    24383030.6804
  21657427.225   -16161963.185 9 -12571301.20647  21657431.426    21657438.9384
  24402773.410    -3595567.323 7  -2780809.60145  24402776.617    24402786.7654
  24062872.104    -3948158.927 7  -3062471.32645  24062888.790    24062901.2244
  21458574.766   -18141902.998 9 -14119129.32647  21458577.897    21458586.5024
 00  5  3  0 41  0.0000000  0  6 09 03 26 21 29 23
  21417242.437   -16338278.880 9 -12706886.31947  21417247.674    21417256.1974
  24379918.530    -2164758.476 7  -1675055.59045  24379917.830    24379930.4034
  21673251.610   -16078812.092 9 -12506508.11547  21673254.746    21673262.2424
  24387844.860    -3674013.209 7  -2841936.09645  24387847.014    24387861.0724
  24045767.156    -4038128.221 8  -3132577.05945  24045769.538    24045781.2294
  21450925.426   -18182116.949 9 -14150464.81447  21450925.846    21450933.8634
 00  5  3  0 41 30.0000000  0  6 09 03 26 21 29 23
  21405077.907   -16402198.386 9 -12756693.60747  21405084.665    21405093.6594
  24376915.750    -2180524.204 7  -1687340.53145  24376919.170    24376930.8324
  21689114.933   -15995446.278 8 -12441547.71647  21689117.976    21689126.1834
  24372912.388    -3752484.036 7  -2903082.07545  24372914.562    24372927.0224
  24028677.441    -4127923.168 7  -3202546.93945  24028679.345    24028694.2034
  21443294.419   -18222198.443 9 -14181697.08247  21443298.165    21443306.6314
 00  5  3  0 42  0.0000000  0  6 09 03 26 21 29 23
  21393012.887   -16465616.859 9 -12806110.48347  21393015.976    21393025.1224
  24374012.756    -2195767.628 7  -1699218.47945  24374018.394    24374029.4234
  21705023.935   -15911867.953 8 -12376421.72947  21705022.003    21705030.6224
  24357979.218    -3830979.661 7  -2964247.36845  24357979.092    24357992.1954
  24011624.772    -4217543.002 7  -3272380.31545  24011627.493    24011638.5064
  21435693.715   -18262146.753 9 -14212825.57347  21435696.113    21435704.7144
 00  5  3  0 42 30.0000000  0  6 09 03 26 21 29 23
  21381042.817   -16528531.599 9 -12855134.82647  21381043.715    21381052.9424
  24371218.505    -2210488.852 7  -1710689.52845  24371218.562    24371227.7814
  21720965.895   -15828079.618 8 -12311132.11347  21720966.481    21720975.2784
  24343032.151    -3909499.797 7  -3025431.81045  24343037.233    24343048.3594
  23994601.576    -4306986.794 7  -3342076.57245  23994605.575    23994617.4984
  21428116.742   -18301961.433 9 -14243849.93647  21428119.525    21428128.1634
 00  5  3  0 43  0.0000000  0  6 09 03 26 21 29 23
  21369161.569   -16590939.928 9 -12903764.57547  21369167.523    21369176.6154
  24368513.736    -2224687.954 7  -1721753.69445  24368515.696    24368526.1244
  21736945.592   -15744083.420 8 -12245680.51847  21736950.349    21736959.1034
  24328078.531    -3988044.069 7  -3086635.03445  24328088.774    24328101.8644
  23977614.674    -4396253.522 8  -3411634.80545  23977619.814    23977631.2974
  21420567.178   -18341641.931 9 -14274769.74047  21420568.634    21420576.9514
 00  5  3  0 43 30.0000000  0  6 09 03 26 21 29 23
  21357388.020   -16652838.955 9 -12951997.46747  21357389.029    21357397.6874
  24365910.615    -2238365.171 7  -1732411.28845  24365911.050    24365924.5334
  21752972.134   -15659881.758 8 -12180068.80647  21752973.961    21752981.3494
  24313130.425    -4066612.209 7  -3147856.80845  24313138.111    24313151.0334
  23960671.226    -4485342.344 8  -3481054.47845  23960667.364    23960677.3054
  21413040.269   -18381187.773 9 -14305584.62547  21413042.734    21413051.4374
 00  5  3  0 44  0.0000000  0  6 09 03 26 21 29 23
  21345700.179   -16714226.663 9 -12999831.92447  21345707.073    21345716.1614
  24363408.108    -2251520.249 7  -1742661.97145  24363408.741    24363419.8064
  21769032.090   -15575476.929 9 -12114298.77147  21769035.564    21769043.4114
  24298187.993    -4145204.300 7  -3209097.27145  24298181.791    24298197.2964
  23943743.327    -4574252.272 8  -3550334.75845  23943747.835    23943760.0474
  21405541.161   -18420598.387 9 -14336294.13647  21405543.207    21405551.8884
 00  5  3  0 44 30.0000000  0  6 09 03 26 21 29 23
  21334120.409   -16775100.590 9 -13047266.02447  21334122.591    21334131.7944
  24360998.254    -2264153.138 7  -1752505.80945  24361005.288    24361016.6014
  21785133.533   -15490871.245 9 -12048372.22047  21785135.658    21785143.5784
  24283214.795    -4223819.584 7  -3270355.81945  24283222.812    24283235.7244
  23926857.739    -4662982.461 8  -3619474.97045  23926861.838    23926874.1194
  21398064.893   -18459873.273 9 -14366897.87747  21398069.576    21398077.9244
 00  5  3  0 45  0.0000000  0  6 09 03 26 21 29 23
  21322632.332   -16835458.058 9 -13094297.70247  21322637.326    21322645.9444
  24358701.012    -2276264.204 7  -1761942.91445  24358700.911    24358712.2774
  21801268.770   -15406066.972 8 -11982290.95347  21801273.460    21801281.2854
  24268254.748    -4302457.868 7  -3331632.31745  24268258.889    24268271.2264
  23910017.768    -4751532.304 7  -3688474.61245  23910009.797    23910022.0164
  21390617.754   -18499011.668 9 -14397395.26147  21390621.737    21390630.0794
 00  5  3  0 45 30.0000000  0  6 09 03 26 21 29 23
  21311252.405   -16895296.492 9 -13140924.94647  21311250.137    21311258.6504
  24356493.824    -2287853.445 7  -1770973.48545  24356493.812    24356506.7484
  21817450.701   -15321066.394 8 -11916056.72547  21817447.979    21817456.5424
  24253286.916    -4381118.820 7  -3392926.43245  24253290.796    24253302.0784
  23893189.912    -4839900.537 8  -3757332.72645  23893194.029    23893207.2954
  21383198.149   -18538013.028 9 -14427785.86847  21383200.629    21383208.5584
 00  5  3  0 46  0.0000000  0  6 09 03 26 21 29 23
  21299961.618   -16954613.486 9 -13187145.86047  21299962.277    21299971.2164
  24354385.559    -2298921.180 7  -1779597.66045  24354387.878    24354399.8214
  21833657.052   -15235871.799 8 -11849671.32147  21833659.890    21833668.6064
  24238311.272    -4459802.020 7  -3454237.85745  24238314.981    24238330.3844
  23876410.631    -4928086.582 8  -3826048.89745  23876414.397    23876425.0364
  21375802.518   -18576876.766 9 -14458069.22847  21375804.518    21375812.8764
 00  5  3  0 46 30.0000000  0  6 09 03 26 21 29 23
  21288770.508   -17013406.593 9 -13232958.55547  21288773.956    21288783.3594
  24352374.600    -2309467.779 7  -1787815.77645  24352380.418    24352393.6414
  21849905.144   -15150485.460 8 -11783136.49247  21849908.540    21849916.7474
  24223331.846    -4538507.425 8  -3515566.62845  24223339.693    24223351.6914
  23859665.891    -5016089.402 8  -3894622.33545  23859667.547    23859678.1744
  21368432.715   -18615602.277 9 -14488244.88947  21368434.842    21368443.1434
 00  5  3  0 47  0.0000000  0  6 09 03 26 21 29 23
  21277681.288   -17071673.491 9 -13278361.19847  21277686.024    21277695.5954
  24350471.316    -2319493.158 7  -1795627.77245  24350473.666    24350485.0494
  21866191.052   -15064909.724 8 -11716454.07147  21866193.353    21866201.2164
  24208357.637    -4617234.723 8  -3576912.46645  24208359.391    24208371.3604
  23842957.181    -5103908.178 8  -3963052.32945  23842956.161    23842967.7444
  21361090.774   -18654188.975 9 -14518312.37747  21361092.513    21361100.2194
 00  5  3  0 47 30.0000000  0  6 09 03 26 21 29 23
  21266697.812   -17129411.731 9 -13323351.93847  21266699.300    21266708.2744
  24348658.132    -2328997.450 7  -1803033.66845  24348665.208    24348677.0114
  21882512.695   -14979146.639 8 -11649625.66447  21882513.404    21882521.4094
  24193372.479    -4695983.474 8  -3638275.02145  24193373.183    24193384.4574
  23826276.871    -5191542.005 8  -4031338.19745  23826278.647    23826290.2164
  21353774.494   -18692636.326 9 -14548271.28447  21353776.194    21353784.1754
 00  5  3  0 48  0.0000000  0  6 09 03 26 21 29 23
  21255808.145   -17186619.057 9 -13367928.96447  21255812.833    21255821.6264
  24346951.328    -2337980.901 7  -1810033.74245  24346954.618    24346967.9404
  21898864.056   -14893198.513 8 -11582653.08447  21898868.820    21898876.8304
  24178383.392    -4774753.363 8  -3699654.06945  24178383.550    24178394.9814
  23809634.465    -5278990.022 8  -4099479.32245  23809639.190    23809649.7364
  21346480.623   -18730943.639 9 -14578121.07847  21346485.947    21346494.4464
 00  5  3  0 48 30.0000000  0  6 09 03 26 21 29 23
  21245024.043   -17243293.180 9 -13412090.50247  21245027.620    21245036.7974
  24345344.234    -2346443.805 7  -1816628.20245  24345344.286    24345355.9124
  21915254.279   -14807067.716 8 -11515538.15747  21915258.501    21915266.8544
  24163388.226    -4853544.232 8  -3761049.42645  24163390.629    24163401.6274
  23793033.035    -5366251.567 8  -4167475.07945  23793033.823    23793043.1194
  21339219.823   -18769110.271 9 -14607861.24947  21339222.757    21339231.4364
 00  5  3  0 49  0.0000000  0  6 09 03 26 21 29 23
  21234342.953   -17299431.646 9 -13455834.66647  21234344.965    21234353.9994
  24343829.514    -2354386.644 7  -1822817.39245  24343833.314    24343845.2684
  21931680.315   -14720756.340 8 -11448282.51247  21931683.278    21931691.5594
  24148390.839    -4932355.514 8  -3822460.68845  24148393.179    24148404.5014
  23776463.103    -5453325.847 8  -4235324.98745  23776462.793    23776472.2864
  21331983.888   -18807135.650 9 -14637491.36547  21331987.210    21331995.4374
 00  5  3  0 49 30.0000000  0  6 09 03 26 21 29 23
  21223762.283   -17355032.043 9 -13499159.54547  21223765.029    21223773.6364
  24342418.825    -2361809.681 7  -1828601.58045  24342420.584    24342433.0244
  21948134.836   -14634266.615 8 -11380887.90947  21948142.162    21948149.5054
  24133391.898    -5011186.744 8  -3883887.48445  24133391.947    24133403.0934
  23759920.811    -5540211.848 7  -4303028.18245  23759928.451    23759940.6934
  21324773.146   -18845019.112 9 -14667010.87747  21324778.149    21324786.0854
 00  5  3  0 50  0.0000000  0  6 09 03 26 21 29 23
  21213282.661   -17410092.304 9 -13542063.53447  21213287.439    21213295.6764
  24341110.625    -2368713.238 7  -1833981.01345  24341106.741    24341118.3814
  21964631.265   -14547600.748 8 -11313356.03947  21964633.752    21964641.9034
  24118387.050    -5090037.451 8  -3945329.53345  24118386.456    24118396.1594
  23743420.578    -5626908.863 7  -4370584.07245  23743429.875    23743442.2334
  21317592.437   -18882759.940 9 -14696419.25747  21317596.230    21317604.1924
 00  5  3  0 50 30.0000000  0  6 09 03 26 21 29 23
  21202908.262   -17464610.060 9 -13584544.78647  21202912.797    21202921.3804
  24339880.817    -2375097.371 7  -1838955.57445  24339891.083    24339903.7154
  21981156.888   -14460761.010 8 -11245688.67847  21981158.923    21981166.6434
  24103380.901    -5168907.321 8  -4006786.49245  24103377.295    24103388.7344
  23726968.746    -5713415.923 8  -4437991.98245  23726968.965    23726980.4674
  21310437.450   -18920357.560 9 -14725716.03747  21310441.683    21310449.8504
 00  5  3  0 51  0.0000000  0  6 09 03 26 21 29 23
  21192639.137   -17518582.664 9 -13626601.25147  21192641.985    21192650.7584
  24338767.838    -2380962.772 7  -1843525.97645  24338776.539    24338787.9564
  21997713.653   -14373749.575 8 -11177887.52747  21997716.171    21997724.7064
  24088363.970    -5247796.308 8  -4068258.27745  24088365.935    24088377.8214
  23710536.008    -5799732.496 8  -4505251.41945  23710544.228    23710554.1874
  21303312.801   -18957811.310 9 -14754900.71347  21303314.699    21303322.5064
 00  5  3  0 51 30.0000000  0  6 09 03 26 21 29 23
  21182473.246   -17572008.319 9 -13668231.52747  21182475.325    21182483.4904
  24337760.591    -2386309.839 7  -1847692.48945  24337757.930    24337769.8464
  22014296.222   -14286568.580 8 -11109954.26546  22014305.929    22014314.2004
  24073354.878    -5326703.969 8  -4129744.65045  24073349.343    24073361.1964
  23694151.488    -5885857.670 8  -4572361.73445  23694154.526    23694164.6374
  21296209.872   -18995120.524 9 -14783972.76547  21296214.319    21296222.2474
 00  5  3  0 52  0.0000000  0  6 09 03 26 21 29 23
  21172405.071   -17624884.749 9 -13709433.82547  21172413.219    21172421.1794
  24336840.579    -2391138.844 7  -1851455.34645  24336837.721    24336851.7444
  22030925.598   -14199220.342 8 -11041890.69046  22030927.164    22030935.9574
  24058329.097    -5405629.850 8  -4191245.21745  24058331.063    24058342.1244
  23677801.628    -5971790.544 8  -4639322.20145  23677801.218    23677812.0204
  21289140.871   -19032284.551 9 -14812931.68247  21289142.672    21289150.2634
 00  5  3  0 52 30.0000000  0  6 09 03 26 21 29 23
  21162453.533   -17677209.609 9 -13750206.34147  21162455.965    21162464.5324
  24336021.925    -2395450.329 7  -1854814.89145  24336017.215    24336030.8694
  22047579.930   -14111706.878 8 -10973698.35346  22047580.699    22047588.2964
  24043306.667    -5484573.398 8  -4252759.53545  24043309.785    24043319.3734
  23661475.847    -6057530.524 8  -4706132.34845  23661485.222    23661497.4644
  21282094.734   -19069302.805 9 -14841777.01347  21282097.951    21282106.2774
 00  5  3  0 53  0.0000000  0  6 09 03 26 21 29 23
  21152600.010   -17728980.923 9 -13790547.52547  21152604.042    21152612.6124
  24335279.069    -2399244.746 7  -1857771.62445  24335295.790    24335310.5344
  22064259.798   -14024030.453 8 -10905379.02346  22064265.595    22064273.0614
  24028278.034    -5563534.402 8  -4314287.47146  24028283.542    24028293.6774
  23645206.511    -6143076.634 8  -4772791.42645  23645206.114    23645218.3554
  21275078.414   -19106174.497 9 -14870508.15247  21275081.301    21275089.5064
 00  5  3  0 53 30.0000000  0  6 09 03 26 21 29 23
  21142855.426   -17780196.376 9 -13830455.56647  21142858.567    21142866.5684
  24334672.336    -2402522.506 7  -1860325.69145  24334671.848    24334684.8384
  22080975.694   -13936193.107 8 -10836934.31147  22080981.170    22080988.3924
  24013249.534    -5642511.975 8  -4375828.35045  24013253.672    24013264.7624
  23628963.447    -6228428.221 8  -4839298.94745  23628965.125    23628975.8874
  21268088.961   -19142898.984 9 -14899124.57147  21268092.569    21268101.0694
 00  5  3  0 54  0.0000000  0  6 09 03 26 21 29 23
  21133212.986   -17830853.911 9 -13869928.86447  21133217.952    21133226.5114
  24334145.734    -2405283.822 7  -1862477.26945  24334147.836    24334160.2584
  22097722.175   -13848197.001 8 -10768365.88447  22097725.878    22097733.9154
  23998216.078    -5721506.448 8  -4437382.37145  23998221.830    23998232.0814
  23612753.140    -6313584.476 8  -4905654.28545  23612759.033    23612770.8184
  21261127.975   -19179475.543 9 -14927625.72947  21261132.163    21261140.4464
 00  5  3  0 54 30.0000000  0  6 09 03 26 21 29 23
  21123681.039   -17880951.439 9 -13908965.80847  21123684.793    21123693.5084
  24333718.632    -2407529.879 7  -1864227.34245  24333721.494    24333732.7144
  22114497.542   -13760044.416 8 -10699675.53347  22114501.151    22114509.0394
  23983186.352    -5800517.118 8  -4498948.97845  23983186.757    23983197.8184
  23596591.572    -6398544.906 8  -4971856.98845  23596592.137    23596602.6344
  21254201.202   -19215903.597 9 -14956011.16147  21254200.356    21254208.5964
 00  5  3  0 55  0.0000000  0  6 09 03 26 21 29 23
  21114254.525   -17930486.843 9 -13947564.72147  21114258.920    21114266.9084
  24333384.430    -2409261.117 7  -1865576.41145  24333389.635    24333401.5984
  22131300.646   -13671737.343 8 -10630864.80547  22131304.670    22131313.1354
  23968147.508    -5879543.456 8  -4560527.83145  23968148.003    23968159.0834
  23580459.457    -6483308.434 8  -5037906.24845  23580462.184    23580473.2214
  21247292.045   -19252182.381 9 -14984280.29247  21247296.923    21247305.0344
 00  5  3  0 55 30.0000000  0  6 09 03 26 21 29 23
  21104938.032   -17979458.099 9 -13985724.04447  21104939.907    21104947.8604
  24333135.699    -2410478.050 7  -1866524.70845  24333159.081    24333170.9264
  22148132.582   -13583278.000 8 -10561935.41946  22148137.627    22148146.5994
  23953103.160    -5958584.895 8  -4622118.46545  23953106.931    23953118.3684
  23564362.114    -6567874.534 8  -5103801.67345  23564369.377    23564380.4464
  21240419.389   -19288311.227 9 -15012432.57647  21240421.727    21240429.6244
 00  5  3  0 56  0.0000000  0  6 09 03 26 21 29 23
  21095725.176   -18027863.179 9 -14023442.20947  21095728.268    21095736.4914
  24333021.493    -2411180.942 7  -1867072.42845  24333023.988    24333037.1914
  22164999.092   -13494668.402 8 -10492888.94546  22165000.060    22165007.2084
  23938061.012    -6037640.981 8  -4683720.49646  23938064.491    23938074.5994
  23548313.773    -6652242.222 8  -5169542.50345  23548314.987    23548325.9964
  21233572.907   -19324289.276 9 -15040467.36447  21233575.361    21233582.9484
 00  5  3  0 56 30.0000000  0  6 09 03 26 21 29 23
  21086619.864   -18075699.937 9 -14060717.51447  21086624.928    21086633.6974
  24332970.088    -2411370.524 7  -1867220.11545  24332990.712    24333000.7744
  22181882.398   -13405910.701 8 -10423727.06447  22181890.019    22181897.9344
  23923015.678    -6116711.599 8  -4745333.88045  23923016.844    23923026.8854
  23532296.271    -6736411.204 8  -5235128.49745  23532297.594    23532309.1424
  21226753.117   -19360115.872 9 -15068384.12147  21226757.804    21226765.4394
 00  5  3  0 57  0.0000000  0  6 09 03 26 21 29 23
  21077626.986   -18122966.552 9 -14097548.55547  21077630.521    21077639.2104
  24333055.210    -2411047.778 7  -1866968.64645  24333050.767    24333061.6224
  22198805.911   -13317007.011 8 -10354451.42046  22198807.511    22198815.2124
  23907963.541    -6195795.988 8  -4806958.02045  23907967.064    23907978.1164
  23516313.733    -6820380.436 8  -5300558.85645  23516318.821    23516329.2864
  21219967.226   -19395790.198 9 -15096182.24348  21219969.282    21219977.0314
 00  5  3  0 57 30.0000000  0  6 09 03 26 21 29 23
  21068742.980   -18169661.195 9 -14133933.90447  21068744.607    21068753.1234
  24333212.503    -2410212.757 7  -1866317.90445  24333210.740    24333221.6614
  22215749.189   -13227959.464 8 -10285063.69346  22215752.657    22215761.0774
  23892914.379    -6274893.772 8  -4868592.55046  23892915.467    23892925.2394
  23500372.602    -6904149.372 8  -5365833.17645  23500376.898    23500388.0724
  21213204.640   -19431311.445 9 -15123861.07748  21213209.704    21213217.4274
 00  5  3  0 58  0.0000000  0  6 09 03 26 21 29 23
  21059967.019   -18215781.653 9 -14169871.84547  21059968.375    21059976.2114
  24333461.522    -2408866.547 7  -1865268.86345  24333465.573    24333476.8014
  22232721.056   -13138769.994 8 -10215565.38046  22232724.597    22232733.0474
  23877859.870    -6354004.587 8  -4930237.22646  23877861.509    23877870.8864
  23484469.801    -6987717.146 8  -5430950.73245  23484474.804    23484485.4414
  21206475.346   -19466679.034 9 -15151420.17748  21206479.151    21206487.1814
 00  5  3  0 58 30.0000000  0  6 09 03 26 21 29 23
  21051299.861   -18261325.913 9 -14205360.79447  21051302.008    21051309.9744
  24333816.154    -2407009.979 7  -1863822.19045  24333819.574    24333829.2914
  22249721.696   -13049440.762 8 -10145958.16046  22249723.404    22249732.4114
  23862801.604    -6433127.768 8  -4991891.57546  23862804.216    23862814.7884
  23468611.510    -7071083.302 8  -5495911.19745  23468610.834    23468621.0444
  21199776.693   -19501892.150 9 -15178858.90848  21199778.756    21199786.4944
 00  5  3  0 59  0.0000000  0  6 09 03 26 21 29 23
  21042740.038   -18306292.076 9 -14240399.28547  21042745.387    21042752.7224
  24334269.266    -2404643.704 7  -1861978.39845  24334271.052    24334281.2774
  22266745.563   -12959973.821 8 -10076243.64746  22266748.837    22266756.6004
  23847742.633    -6512262.464 8  -5053554.87345  23847744.140    23847754.9584
  23452783.680    -7154247.117 8  -5560713.95945  23452784.989    23452795.6104
  21193104.936   -19536950.109 9 -15206176.74948  21193107.530    21193115.2354
 00  5  3  0 59 30.0000000  0  6 09 03 26 21 29 23
  21034295.328   -18350678.470 9 -14274986.01047  21034298.387    21034305.8824
  24334804.274    -2401768.429 7  -1859737.91145  24334817.194    24334826.7324
  22283797.211   -12870371.258 8 -10006423.44846  22283799.689    22283807.9854
  23832675.860    -6591408.711 8  -5115227.15645  23832682.867    23832694.1734
  23436995.215    -7237207.622 8  -5625358.31645  23436998.199    23437009.0314
  21186462.062   -19571852.095 9 -15233373.04548  21186465.440    21186473.8664
 00  5  3  1  0  0.0000000  0  6 09 03 26 21 29 23
  21025960.790   -18394483.036 9 -14309119.36147  21025962.691    21025970.2424
  24335461.625    -2398384.993 7  -1857101.41645  24335460.692    24335470.7404
  22300872.351   -12780635.064 8  -9936499.11446  22300876.044    22300883.2864
  23817619.675    -6670565.957 8  -5176908.02545  23817620.505    23817629.9904
  23421250.686    -7319964.440 8  -5689843.95046  23421250.142    23421260.3524
  21179851.421   -19606597.367 9 -15260447.22848  21179853.984    21179861.7804
 00  5  3  1  0 30.0000000  0  6 09 03 26 21 29 23
  21017737.028   -18437704.017 9 -14342797.96747  21017738.126    21017745.8974
  24336195.151    -2394494.138 7  -1854069.47645  24336200.783    24336211.5954
  22317974.518   -12690767.208 8  -9866472.17746  22317977.478    22317983.8884
  23802553.805    -6749733.677 8  -5238597.09845  23802555.240    23802565.6494
  23405541.225    -7402516.777 8  -5754170.22446  23405541.363    23405551.4324
  21173270.010   -19641185.063 9 -15287398.62048  21173272.536    21173279.6324
 00  5  3  1  1  0.0000000  0  6 09 03 26 21 29 23
  21009620.073   -18480339.615 9 -14376020.44547  21009624.983    21009632.4624
  24337036.325    -2390096.848 7  -1850643.05045  24337038.408    24337048.8954
  22335101.044   -12600769.819 8  -9796344.29646  22335102.501    22335109.9724
  23787492.043    -6828911.212 8  -5300293.75845  23787487.812    23787499.1364
  23389867.237    -7484864.016 8  -5818336.71946  23389871.331    23389880.5214
  21166717.976   -19675614.418 9 -15314226.63948  21166720.432    21166728.0254
 00  5  3  1  1 30.0000000  0  6 09 03 26 21 29 23
  21001621.182   -18522388.051 9 -14408785.37747  21001623.094    21001630.9494
  24337965.745    -2385193.831 7  -1846822.52145  24337971.183    24337980.1654
  22352252.198   -12510644.877 8  -9726117.04946  22352252.500    22352260.6064
  23772421.399    -6908098.008 8  -5361997.60945  23772418.941    23772429.8664
  23374237.434    -7567005.306 8  -5882342.73645  23374239.418    23374249.6074
  21160195.871   -19709884.694 9 -15340930.69448  21160198.573    21160206.4644
 00  5  3  1  2  0.0000000  0  6 09 03 26 21 29 23
  20993729.818   -18563847.683 9 -14441091.50247  20993733.552    20993741.2464
  24338998.772    -2379785.902 7  -1842608.56945  24339001.197    24339009.7734
  22369423.744   -12420394.367 8  -9655791.95346  22369426.886    22369434.2914
  23757347.769    -6987293.542 8  -5423708.28546  23757349.071    23757360.6444
  23358648.041    -7648940.262 8  -5946187.97746  23358648.116    23358657.7514
  21153703.878   -19743995.135 9 -15367510.20248  21153707.441    21153715.3754
 00  5  3  1  2 30.0000000  0  6 09 03 26 21 29 23
  20985955.140   -18604716.678 9 -14472937.40047  20985956.493    20985963.7744
  24340123.240    -2373874.055 7  -1838001.89245  24340124.880    24340135.2064
  22386622.181   -12330020.246 8  -9585370.53346  22386624.755    22386632.9264
  23742279.272    -7066497.430 8  -5485425.47346  23742276.708    23742287.6334
  23343091.720    -7730668.063 8  -6009871.77746  23343095.388    23343105.5184
  21147244.488   -19777944.986 9 -15393964.58448  21147247.104    21147255.1184
 00  5  3  1  3  0.0000000  0  6 09 03 26 21 29 23
  20978289.688   -18644993.337 9 -14504321.75047  20978291.932    20978299.2584
  24341346.271    -2367459.335 7  -1833003.34945  24341346.069    24341355.5264
  22403846.748   -12239524.636 8  -9514854.45946  22403845.436    22403853.2524
  23727199.862    -7145708.916 8  -5547148.60046  23727202.259    23727213.9014
  23327574.491    -7812188.209 8  -6073393.78646  23327582.378    23327593.3264
  21140814.302   -19811733.480 9 -15420293.23148  21140817.015    21140825.1734
 00  5  3  1  3 30.0000000  0  6 09 03 26 21 29 23
  20970735.042   -18684675.992 9 -14535243.23447  20970740.258    20970748.0814
  24342665.636    -2360542.544 7  -1827613.64145  24342662.339    24342672.7864
  22421082.067   -12148909.307 8  -9444245.09546  22421088.509    22421097.3394
  23712126.259    -7224927.462 8  -5608877.23146  23712128.653    23712139.2204
  23312106.366    -7893500.120 8  -6136753.52646  23312108.140    23312119.3264
  21134415.890   -19845359.729 9 -15446495.45148  21134417.988    21134426.2464
 00  5  3  1  4  0.0000000  0  6 09 03 26 21 29 23
  20963298.076   -18723763.117 9 -14565700.66047  20963302.370    20963310.1934
  24344059.107    -2353124.575 7  -1821833.33545  24344070.353    24344085.1494
  22438351.368   -12058176.405 8  -9373544.10546  22438354.014    22438362.4574
  23697051.568    -7304152.336 8  -5670610.77946  23697052.718    23697062.9834
  23296671.404    -7974603.041 8  -6199950.39746  23296675.543    23296686.0984
  21128046.525   -19878822.760 9 -15472570.48848  21128050.638    21128058.5904
 00  5  3  1  4 30.0000000  0  6 09 03 26 21 29 23
  20955973.650   -18762252.780 9 -14595692.53547  20955977.580    20955985.8424
  24345585.453    -2345206.422 7  -1815663.22845  24345579.866    24345592.1894
  22455642.017   -11967328.003 8  -9302753.13046  22455643.102    22455651.1254
  23681971.003    -7383383.609 8  -5732349.32046  23681975.578    23681985.2394
  23281274.647    -8055496.420 8  -6262984.02646  23281282.492    23281292.1824
  21121711.838   -19912121.758 9 -15498517.71348  21121714.115    21121721.7364
 00  5  3  1  5  0.0000000  0  6 09 03 26 21 29 23
  20948764.519   -18800143.522 9 -14625217.71647  20948767.058    20948775.3754
  24347177.049    -2336789.252 7  -1809104.39345  24347183.732    24347191.2714
  22472948.196   -11876365.700 8  -9231873.38146  22472952.607    22472960.0834
  23666895.183    -7462620.338 8  -5794092.09946  23666897.637    23666907.0434
  23265928.554    -8136179.829 8  -6325854.01446  23265928.513    23265937.5674
  21115406.333   -19945255.943 9 -15524336.51648  21115408.610    21115415.9874
 00  5  3  1  5 30.0000000  0  6 09 03 26 21 29 23
  20941667.035   -18837433.719 9 -14654274.93247  20941670.852    20941679.0004
  24348874.079    -2327873.902 7  -1802157.40045  24348880.077    24348888.3804
  22490278.107   -11785291.721 8  -9160906.62646  22490283.304    22490291.2114
  23651818.878    -7541862.007 8  -5855838.76046  23651817.487    23651826.7594
  23250613.730    -8216652.424 8  -6388559.74746  23250614.673    23250624.2624
  21109130.531   -19978224.441 9 -15550026.20548  21109135.017    21109142.7184
 00  5  3  1  6  0.0000000  0  6 09 03 26 21 29 23
  20934684.789   -18874121.777 9 -14682862.95847  20934689.405    20934697.5454
  24350665.015    -2318461.348 7  -1794822.87045  24350669.948    24350682.1894
  22507628.361   -11694107.800 8  -9089854.22546  22507634.697    22507643.1754
  23636737.365    -7621107.724 8  -5917588.56946  23636737.380    23636747.2384
  23235332.747    -8296913.800 8  -6451100.89946  23235340.526    23235350.0784
  21102889.694   -20011026.539 9 -15575586.22348  21102892.986    21102900.8504
 00  5  3  1  6 30.0000000  0  6 09 03 26 21 29 23
  20927820.112   -18910206.120 9 -14710980.56247  20927822.738    20927830.3224
  24352549.676    -2308552.722 7  -1787101.82444  24352552.894    24352564.1864
  22524998.164   -11602815.966 8  -9018717.70146  22525006.721    22525015.5034
  23621653.344    -7700357.052 8  -5979341.15746  23621657.346    23621666.4144
  23220101.786    -8376963.178 8  -6513476.87146  23220107.815    23220117.3944
  21096680.281   -20043661.337 9 -15601015.89248  21096682.531    21096690.3504
 00  5  3  1  7  0.0000000  0  6 09 03 26 21 29 23
  20921066.874   -18945685.175 9 -14738626.50647  20921071.826    20921079.1924
  24354534.667    -2298149.324 7  -1778995.27845  24354534.085    24354546.7664
  22542396.090   -11511418.149 8  -8947498.61346  22542399.247    22542406.8124
  23606569.375    -7779608.906 8  -6041095.74246  23606575.869    23606585.4044
  23204913.622    -8456800.194 8  -6575687.33646  23204916.250    23204925.2014
  21090503.735   -20076127.932 9 -15626314.48948  21090504.484    21090512.6594
 00  5  3  1  7 30.0000000  0  6 09 03 26 21 29 23
  20914435.020   -18980557.638 9 -14765799.78647  20914435.792    20914443.4384
  24356605.336    -2287251.976 7  -1770503.80645  24356607.021    24356620.6974
  22559806.547   -11419916.086 8  -8876198.27946  22559811.625    22559819.5164
  23591490.042    -7858863.440 8  -6102852.41946  23591494.296    23591503.2504
  23189762.378    -8536424.181 8  -6637731.82946  23189763.751    23189773.0224
  21084355.038   -20108425.451 9 -15651481.34048  21084358.373    21084366.2154
 00  5  3  1  8  0.0000000  0  6 09 03 26 21 29 23
  20907911.486   -19014822.084 9 -14792499.28347  20907915.099    20907922.9634
  24358778.790    -2275861.871 7  -1761628.40745  24358776.663    24358786.9754
  22577242.350   -11328311.896 8  -8804818.37346  22577243.631    22577251.5134
  23576411.011    -7938119.355 8  -6164610.16146  23576411.299    23576421.7794
  23174650.576    -8615834.589 8  -6699609.87546  23174651.004    23174661.6534
  21078240.247   -20140553.041 9 -15676515.77348  21078244.132    21078252.4914
 00  5  3  1  8 30.0000000  0  6 09 03 26 21 29 23
  20901507.936   -19048476.964 9 -14818723.79547  20901510.599    20901518.3994
  24361034.411    -2263980.205 7  -1752369.93845  24361037.606    24361049.0734
  22594695.877   -11236607.265 8  -8733360.19546  22594694.219    22594701.5084
  23561326.148    -8017376.389 8  -6226368.76046  23561330.167    23561339.6754
  23159577.098    -8695030.871 8  -6761321.07846  23159581.240    23159590.1924
  21072160.531   -20172509.942 9 -15701417.20048  21072163.186    21072170.9394
 00  5  3  1  9  0.0000000  0  6 09 03 26 21 29 23
  20895221.806   -19081520.907 9 -14844472.24548  20895222.847    20895230.2354
  24363392.946    -2251608.068 7  -1742729.24145  24363390.730    24363403.3934
  22612156.623   -11144804.241 8  -8661825.35446  22612164.281    22612172.2824
  23546243.003    -8096633.742 8  -6288127.60546  23546247.158    23546256.8164
  23144545.882    -8774012.316 8  -6822864.89046  23144550.354    23144560.9984
  21066112.269   -20204295.431 9 -15726185.06448  21066114.513    21066122.4574
 00  5  3  1  9 30.0000000  0  6 09 03 26 21 29 23
  20889046.287   -19113952.602 9 -14869743.62647  20889050.955    20889058.3004
  24365834.236    -2238746.422 7  -1732707.15045  24365838.872    24365848.4324
  22629649.136   -11052904.651 8  -8590215.27446  22629651.763    22629659.7604
  23531169.978    -8175891.075 8  -6349886.46546  23531165.767    23531175.6634
  23129552.988    -8852778.786 8  -6884241.19946  23129561.271    23129571.4134
  21060096.730   -20235908.222 9 -15750818.36048  21060098.921    21060106.7614
 00  5  3  1 10  0.0000000  0  6 09 03 26 21 29 23
  20882993.232   -19145770.612 9 -14894536.81447  20882995.588    20883003.4084
  24368373.087    -2225396.762 7  -1722304.67945  24368378.542    24368390.8684
  22647154.972   -10960910.243 8  -8518531.28746  22647157.565    22647165.3704
  23516082.021    -8255147.538 8  -6411644.61546  23516083.461    23516093.3664
  23114610.934    -8931329.529 8  -6945449.39146  23114614.017    23114623.9634
  21054114.878   -20267347.411 9 -15775316.37748  21054116.217    21054123.7024
 00  5  3  1 10 30.0000000  0  6 09 03 26 21 29 23
  20877055.163   -19176973.533 9 -14918850.70047  20877058.336    20877065.9204
  24371009.292    -2211560.361 7  -1711523.06944  24371010.464    24371022.1144
  22664673.302   -10868822.853 8  -8446774.86146  22664680.946    22664687.8894
  23500992.466    -8334402.303 8  -6473401.44146  23501000.047    23501011.3414
  23099702.811    -9009663.840 8  -7006488.95146  23099706.749    23099717.7914
  21048163.114   -20298612.358 9 -15799678.60948  21048166.622    21048173.7844
 00  5  3  1 11  0.0000000  0  6 09 03 26 21 29 23
  20871235.547   -19207560.219 9 -14942684.40448  20871238.117    20871245.9194
  24373719.384    -2197238.600 7  -1700363.19844  24373733.777    24373748.2494
  22682216.672   -10776644.411 8  -8374947.47946  22682221.462    22682229.9844
  23485915.040    -8413654.805 8  -6535156.52546  23485918.983    23485930.5064
  23084840.626    -9087781.442 8  -7067359.63346  23084842.222    23084852.0334
  21042247.633   -20329701.902 9 -15823904.18248  21042250.717    21042257.9674
 00  5  3  1 11 30.0000000  0  6 09 03 26 21 29 23
  20865531.776   -19237529.508 9 -14966037.02248  20865534.817    20865542.4564
  24376554.654    -2182432.377 7  -1688825.80945  24376554.516    24376565.2574
  22699775.936   -10684376.609 8  -8303050.48246  22699779.655    22699787.3314
  23470836.012    -8492904.509 8  -6596909.42546  23470839.254    23470849.7164
  23070017.939    -9165681.895 8  -7128061.12146  23070019.083    23070028.0374
  21036366.170   -20360615.085 9 -15847992.33048  21036367.898    21036375.4834
 00  5  3  1 12  0.0000000  0  6 09 03 26 21 29 23
  20859946.247   -19266880.010 9 -14988907.47047  20859949.646    20859956.7544
  24379460.770    -2167143.308 7  -1676912.19144  24379464.321    24379474.3454
  22717348.383   -10592021.469 8  -8231085.38246  22717353.975    22717361.2104
  23455758.188    -8572150.561 8  -6658659.46946  23455758.401    23455769.6774
  23055229.465    -9243364.436 8  -7188592.84246  23055234.989    23055244.2114
  21030515.987   -20391351.161 9 -15871942.47548  21030519.154    21030526.5234
 00  5  3  1 12 30.0000000  0  6 09 03 26 21 29 23
  20854479.648   -19295610.567 9 -15011294.84847  20854481.983    20854489.5954
  24382466.637    -2151372.350 7  -1664623.11344  24382466.363    24382476.9774
  22734940.321   -10499580.623 8  -8159053.54246  22734945.153    22734953.7664
  23440679.608    -8651391.880 8  -6720405.86346  23440679.651    23440689.7184
  23040489.364    -9320828.745 8  -7248954.45446  23040493.386    23040502.8684
  21024701.387   -20421909.348 9 -15895753.99648  21024704.067    21024711.1994
 00  5  3  1 13  0.0000000  0  6 09 03 26 21 29 23
  20849128.251   -19323719.896 9 -15033198.15447  20849132.937    20849140.0694
  24385562.377    -2135121.295 7  -1651959.87444  24385558.955    24385568.2444
  22752555.168   -10407055.853 8  -8086956.31646  22752552.472    22752560.0904
  23425598.693    -8730628.000 8  -6782148.18346  23425601.909    23425610.8354
  23025791.134    -9398074.150 8  -7309145.53146  23025795.777    23025804.0414
  21018922.301   -20452288.656 9 -15919426.13548  21018922.918    21018930.3594
 00  5  3  1 13 30.0000000  0  6 09 03 26 21 29 23
  20843897.874   -19351206.878 9 -15054616.51747  20843902.582    20843909.4664
  24388737.175    -2118391.219 7  -1638923.44845  24388739.964    24388753.8504
  22770173.936   -10314449.044 8  -8014795.14646  22770174.692    22770182.6194
  23410522.213    -8809858.435 8  -6843886.04846  23410524.479    23410533.9654
  23011134.310    -9475100.378 8  -7369165.82846  23011138.504    23011145.7394
  21013175.336   -20482487.880 9 -15942957.95648  21013176.094    21013183.8284
 00  5  3  1 14  0.0000000  0  6 09 03 26 21 29 23
  20838788.575   -19378070.376 9 -15075549.04447  20838790.843    20838797.8384
  24392012.533    -2101183.557 7  -1625514.87044  24392013.704    24392028.8274
  22787813.684   -10221761.977 8  -7942571.43946  22787812.530    22787820.6704
  23395446.983    -8889081.895 8  -6905618.46946  23395448.225    23395457.9264
  22996518.373    -9551906.999 8  -7429015.02046  22996522.209    22996529.2864
  21007459.197   -20512506.409 9 -15966348.97548  21007463.684    21007471.7824
 00  5  3  1 14 30.0000000  0  6 09 03 26 21 29 23
  20833796.750   -19404309.253 9 -15095994.85048  20833797.643    20833805.0354
  24395373.020    -2083499.692 7  -1611735.18045  24395381.727    24395392.5034
  22805460.980   -10128996.250 8  -7870286.43446  22805465.101    22805473.3694
  23380368.891    -8968298.203 8  -6967345.34846  23380374.607    23380383.6174
  22981946.390    -9628493.383 8  -7488692.56946  22981947.865    22981956.8774
  21001784.188   -20542343.227 9 -15989598.39648  21001786.246    21001794.0754
 00  5  3  1 15  0.0000000  0  6 09 03 26 21 29 23
  20828919.196   -19429922.806 9 -15115953.39948  20828923.138    20828930.8754
  24398837.416    -2065340.910 7  -1597585.42844  24398836.473    24398846.4064
  22823135.144   -10036153.790 8  -7797941.65546  22823132.649    22823140.1304
  23365297.316    -9047506.288 8  -7029065.80446  23365301.726    23365310.6554
  22967413.940    -9704859.086 8  -7548198.15946  22967415.736    22967423.7004
  20996138.418   -20571997.462 9 -16012705.55748  20996142.888    20996151.0374
 00  5  3  1 15 30.0000000  0  6 09 03 26 21 29 23
  20824163.617   -19454909.597 9 -15135423.54947  20824168.085    20824175.8754
  24402377.480    -2046708.665 7  -1583066.77444  24402382.133    24402391.6654
  22840807.014    -9943236.330 8  -7725538.39946  22840814.275    22840821.0704
  23350229.460    -9126705.663 8  -7090779.47046  23350230.558    23350238.7104
  22952921.184    -9781003.755 8  -7607531.54346  22952926.308    22952933.9394
  20990532.702   -20601468.160 9 -16035669.69848  20990534.653    20990542.6394
 00  5  3  1 16  0.0000000  0  6 09 03 26 21 29 23
  20819529.780   -19479268.594 9 -15154404.52547  20819532.614    20819540.4584
  24406013.128    -2027604.601 7  -1568180.43145  24406016.305    24406027.6434
  22858506.024    -9850245.547 8  -7653078.02546  22858509.762    22858516.8104
  23335158.617    -9205895.629 8  -7152485.80246  23335161.087    23335169.9264
  22938477.175    -9856926.769 8  -7666692.20246  22938478.362    22938487.0704
  20984957.282   -20630754.313 9 -16058490.03848  20984961.615    20984969.8144
 00  5  3  1 16 30.0000000  0  6 09 03 26 21 29 23
  20815015.746   -19502998.891 9 -15172895.61547  20815016.872    20815024.4764
  24409741.400    -2008030.056 7  -1552927.46445  24409743.816    24409752.2164
  22876213.283    -9757183.128 8  -7580561.84646  22876218.420    22876226.6254
  23320092.211    -9285075.390 8  -7214184.18846  23320093.973    23320101.8854
  22924068.869    -9932627.878 8  -7725679.93546  22924072.910    22924082.1964
  20979421.995   -20659854.826 9 -16081165.72748  20979424.460    20979432.1164
 00  5  3  1 17  0.0000000  0  6 09 03 26 21 29 23
  20810618.027   -19526099.451 9 -15190895.99547  20810621.140    20810628.3024
  24413557.910    -1987986.599 7  -1537309.12345  24413558.226    24413566.5914
  22893940.919    -9664050.806 8  -7507991.19646  22893941.318    22893949.1634
  23305021.223    -9364244.074 8  -7275873.94246  23305027.929    23305036.9464
  22909707.494   -10008106.594 8  -7784494.37346  22909709.387    22909717.9044
  20973919.824   -20688768.867 9 -16103696.11248  20973922.121    20973930.1034
 00  5  3  1 17 30.0000000  0  6 09 03 26 21 29 23
  20806343.218   -19548569.264 9 -15208404.87648  20806345.345    20806352.6834
  24417461.665    -1967475.638 7  -1521326.55645  24417461.159    24417468.8004
  22911679.301    -9570850.248 8  -7435367.37646  22911677.055    22911684.2274
  23289961.734    -9443400.499 8  -7337554.14046  23289963.724    23289974.6644
  22895382.280   -10083362.394 8  -7843135.10446  22895388.207    22895396.8694
  20968452.482   -20717495.328 9 -16126080.32448  20968455.546    20968463.1384
 00  5  3  1 18  0.0000000  0  6 09 03 26 21 29 23
  20802185.968   -19570407.473 9 -15225421.60348  20802189.721    20802196.9034
  24421440.125    -1946498.593 7  -1504980.75845  24421451.825    24421462.0244
  22929418.239    -9477583.265 8  -7362691.79446  22929424.650    22929432.3054
  23274900.565    -9522544.168 8  -7399224.38646  23274903.615    23274913.7994
  22881108.630   -10158395.011 8  -7901601.95646  22881110.486    22881119.2814
  20963022.665   -20746033.398 9 -16148317.75248  20963024.988    20963032.5264
 00  5  3  1 18 30.0000000  0  6 09 03 26 21 29 23
  20798152.069   -19591613.255 9 -15241945.53448  20798153.958    20798161.4554
  24425534.021    -1925057.140 7  -1488273.13845  24425532.184    24425543.0314
  22947185.264    -9384251.546 8  -7289965.77746  22947185.489    22947193.6574
  23259843.989    -9601674.040 8  -7460883.88846  23259845.902    23259855.6344
  22866869.314   -10233203.825 8  -7959894.42546  22866874.484    22866882.9994
  20957628.318   -20774381.927 9 -16170407.48148  20957630.539    20957637.9244
 00  5  3  1 19  0.0000000  0  6 09 03 26 21 29 23
  20794234.846   -19612185.535 9 -15257975.82448  20794239.298    20794246.6164
  24429697.242    -1903153.005 7  -1471204.93845  24429702.175    24429709.8484
  22964956.747    -9290856.633 8  -7217190.51846  22964957.299    22964964.6114
  23244786.254    -9680789.584 8  -7522532.26046  23244790.439    23244800.0674
  22852678.513   -10307788.644 8  -8018012.34446  22852681.318    22852689.6124
  20952269.231   -20802539.903 9 -16192348.72048  20952271.851    20952279.4264
 00  5  3  1 19 30.0000000  0  6 09 03 26 21 29 23
  20790444.132   -19632123.609 9 -15273511.93248  20790445.413    20790452.4764
  24433953.734    -1880787.707 7  -1453777.41445  24433954.779    24433963.1894
  22982737.871    -9197400.298 8  -7144367.37046  22982742.272    22982748.7454
  23229728.879    -9759889.742 8  -7584168.63446  23229736.709    23229747.8254
  22838525.415   -10382148.989 8  -8075955.34946  22838530.758    22838539.2924
  20946947.982   -20830506.451 9 -16214140.79548  20946950.008    20946957.4554
 00  5  3  1 20  0.0000000  0  6 09 03 26 21 29 23
  20786766.483   -19651426.794 9 -15288553.31948  20786771.976    20786779.5034
  24438289.775    -1857962.715 7  -1435991.68545  24438297.818    24438307.5114
  23000534.701    -9103884.129 8  -7071497.59546  23000538.191    23000545.3324
  23214686.492    -9838974.037 8  -7645792.67146  23214688.563    23214698.2254
  22824423.218   -10456284.457 8  -8133723.10746  22824423.522    22824431.5624
  20941661.200   -20858280.459 9 -16235782.84448  20941664.734    20941672.2134
 00  5  3  1 20 30.0000000  0  6 09 03 26 21 29 23
  20783217.645   -19670094.576 9 -15303099.59348  20783219.770    20783226.8984
  24442731.292    -1834679.856 7  -1417849.16844  24442729.918    24442738.1274
  23018345.854    -9010309.704 8  -6998582.46346  23018344.375    23018352.1634
  23199639.337    -9918041.593 8  -7707403.66846  23199642.064    23199652.4594
  22810355.556   -10530194.645 8  -8191315.34946  22810358.806    22810367.6874
  20936414.580   -20885860.970 9 -16257274.11648  20936416.332    20936423.7924
 00  5  3  1 21  0.0000000  0  6 09 03 26 21 29 23
  20779784.940   -19688126.053 9 -15317150.03948  20779788.288    20779795.3184
  24447239.561    -1810940.398 7  -1399350.88145  24447247.085    24447256.9634
  23036156.287    -8916678.853 8  -6925623.35146  23036161.219    23036169.0384
  23184595.361    -9997091.213 8  -7769000.69346  23184598.467    23184610.1004
  22796337.291   -10603879.136 8  -8248731.70346  22796336.461    22796345.8624
  20931202.790   -20913246.991 9 -16278613.83548  20931205.176    20931212.2544
 00  5  3  1 21 30.0000000  0  6 09 03 26 21 29 23
  20776476.481   -19705520.244 9 -15330703.90148  20776478.225    20776485.7084
  24451854.326    -1786746.302 7  -1380498.29845  24451851.675    24451860.9154
  23053982.951    -8822993.007 8  -6852621.37146  23053988.974    23053996.8264
  23169555.669   -10076122.144 8  -7830583.13846  23169559.763    23169570.2794
  22782354.051   -10677337.709 8  -8305972.03346  22782357.810    22782366.8414
  20926028.600   -20940437.512 9 -16299801.21348  20926030.947    20926038.0934
 00  5  3  1 22  0.0000000  0  6 09 03 26 21 29 23
  20773287.808   -19722276.682 9 -15343760.82348  20773289.543    20773297.0714
  24456532.304    -1762099.164 7  -1361292.67845  24456540.717    24456552.0584
  23071822.451    -8729253.978 8  -6779577.98046  23071826.557    23071835.8384
  23154522.133   -10155133.548 8  -7892150.36246  23154524.651    23154534.8804
  22768417.570   -10750569.895 8  -8363035.95246  22768421.529    22768430.9244
  20920891.031   -20967431.549 9 -16320835.48648  20920893.783    20920901.5774
 00  5  3  1 22 30.0000000  0  6 09 03 26 21 29 23
  20770219.852   -19738394.770 9 -15356320.31848  20770222.829    20770229.7014
  24461320.724    -1737000.462 7  -1341735.19745  24461316.891    24461327.6914
  23089669.318    -8635463.191 8  -6706494.25746  23089674.484    23089682.4354
  23139489.850   -10234124.591 8  -7953701.73046  23139494.255    23139503.2044
  22754527.418   -10823575.384 8  -8419923.21646  22754529.796    22754538.1614
  20915794.093   -20994228.081 9 -16341715.86148  20915794.462    20915802.1004
 00  5  3  1 23  0.0000000  0  6 09 03 26 21 29 23
  20767273.443   -19753873.770 9 -15368381.81948  20767276.826    20767283.7844
  24466175.233    -1711452.222 7  -1321827.46645  24466178.326    24466189.1874
  23107526.942    -8541622.205 8  -6633371.40146  23107532.522    23107539.7024
  23124457.714   -10313094.632 8  -8015236.74346  23124465.870    23124474.4424
  22740676.290   -10896353.820 8  -8476633.54846  22740679.986    22740689.5064
  20910730.169   -21020825.962 9 -16362441.44348  20910733.359    20910740.6504
 00  5  3  1 23 30.0000000  0  6 09 03 26 21 29 23
  20764449.435   -19768713.044 9 -15379944.83948  20764452.554    20764459.9914
  24471119.024    -1685456.032 7  -1301570.67845  24471125.867    24471135.4194
  23125393.636    -8447732.758 8  -6560210.77546  23125398.474    23125406.5384
  23109441.775   -10392042.277 8  -8076754.25446  23109443.351    23109453.0894
  22726867.244   -10968904.910 8  -8533166.75446  22726873.711    22726882.4044
  20905707.440   -21047224.186 9 -16383011.44948  20905710.171    20905717.2544
 00  5  3  1 24  0.0000000  0  6 09 03 26 21 29 23
  20761746.368   -19782912.030 9 -15391008.93248  20761750.839    20761758.2424
  24476154.572    -1659013.606 7  -1280966.11645  24476155.360    24476168.6534
  23143265.587    -8353796.350 8  -6487013.56346  23143274.244    23143282.2544
  23094423.571   -10470966.747 8  -8138253.73446  23094425.609    23094433.5854
  22713109.540   -11041228.243 8  -8589522.47646  22713110.454    22713120.3254
  20900721.434   -21073421.867 9 -16403425.18648  20900724.595    20900731.9304
 00  5  3  1 24 30.0000000  0  6 09 03 26 21 29 23
  20759172.258   -19796470.143 9 -15401573.64448  20759170.966    20759177.8484
  24481266.730    -1632126.876 7  -1260015.38045  24481273.629    24481283.5164
  23161154.783    -8259814.544 8  -6413780.97746  23161158.649    23161166.2304
  23079409.054   -10549867.256 8  -8199734.53346  23079410.759    23079419.2854
  22699389.497   -11113323.382 8  -8645700.38546  22699391.195    22699400.9064
  20895776.480   -21099417.837 9 -16423681.74648  20895777.535    20895785.0404
 00  5  3  1 25  0.0000000  0  6 09 03 26 21 29 23
  20756709.981   -19809386.866 9 -15411638.58248  20756712.649    20756719.6994
  24486472.619    -1604797.684 7  -1238719.84945  24486475.066    24486483.8974
  23179047.093    -8165788.938 8  -6340514.25946  23179051.176    23179058.3764
  23064398.321   -10628742.488 8  -8261195.66046  23064400.692    23064409.5994
  22685712.361   -11185190.189 8  -8701700.36646  22685715.003    22685725.2614
  20890867.791   -21125210.973 9 -16443780.25448  20890869.379    20890877.1184
 00  5  3  1 25 30.0000000  0  6 09 03 26 21 29 23
  20754373.161   -19821661.683 9 -15421203.33448  20754376.911    20754383.6704
  24491752.495    -1577027.475 7  -1217080.73145  24491757.517    24491770.2204
  23196943.634    -8071720.936 8  -6267214.51046  23196951.803    23196959.1424
  23049394.735   -10707591.671 8  -8322636.46546  23049396.042    23049405.0244
  22672078.368   -11256828.314 8  -8757522.19346  22672082.765    22672092.2314
  20885996.965   -21150800.286 9 -16463719.93748  20885999.868    20886007.6374
 00  5  3  1 26  0.0000000  0  6 09 03 26 21 29 23
  20752161.093   -19833294.161 9 -15430267.55948  20752163.193    20752170.5064
  24497129.937    -1548818.313 7  -1195099.56844  24497123.189    24497137.2654
  23214861.787    -7977612.183 8  -6193883.02446  23214859.586    23214868.0234
  23034396.021   -10786414.150 8  -8384056.44146  23034396.081    23034405.7384
  22658486.251   -11328237.346 8  -8813165.48646  22658494.313    22658502.6314
  20881164.774   -21176184.636 9 -16483499.91248  20881168.970    20881176.8724
 00  5  3  1 26 30.0000000  0  6 09 03 26 21 29 23
  20750069.460   -19844284.033 9 -15438831.05148  20750071.941    20750079.5604
  24502573.147    -1520171.911 7  -1172777.63344  24502577.501    24502586.8644
  23232777.211    -7883464.154 8  -6120520.94246  23232775.621    23232783.4204
  23019400.906   -10865208.914 8  -8445454.84246  23019402.326    23019411.6134
  22644949.432   -11399416.950 8  -8868629.98946  22644950.307    22644959.0114
  20876374.179   -21201363.150 9 -16503119.49748  20876377.977    20876385.6444
 00  5  3  1 27  0.0000000  0  6 09 03 26 21 29 23
  20748098.880   -19854630.751 9 -15446893.38648  20748103.218    20748110.4744
  24508104.993    -1491090.174 7  -1150116.52244  24508109.930    24508123.3834
  23250695.892    -7789278.478 8  -6047129.50146  23250698.625    23250705.4464
  23004409.076   -10943974.764 8  -8506830.71646  23004413.352    23004422.3504
  22631445.967   -11470366.959 8  -8923915.60446  22631448.565    22631457.5864
  20871624.399   -21226334.686 9 -16522577.80448  20871626.227    20871633.6594
 00  5  3  1 27 30.0000000  0  6 09 03 26 21 29 23
  20746253.459   -19864334.004 9 -15454454.31948  20746256.481    20746263.7134
  24513727.721    -1461575.164 7  -1127117.79444  24513729.658    24513738.8434
  23268625.453    -7695056.541 8  -5973709.79146  23268628.630    23268635.3664
  22989424.383   -11022711.034 8  -8568183.53646  22989430.009    22989440.1614
  22617988.044   -11541087.160 8  -8979022.13546  22617990.494    22618000.1914
  20866911.504   -21251098.082 9 -16541873.91548  20866913.678    20866921.2104
 00  5  3  1 28  0.0000000  0  6 09 03 26 21 29 23
  20744530.025   -19873393.714 9 -15461513.79448  20744532.611    20744539.5964
  24519417.148    -1431628.569 7  -1103782.79444  24519426.480    24519437.0404
  23286560.853    -7600799.796 8  -5900262.98646  23286565.092    23286572.4934
  22974449.851   -11101416.670 8  -8629512.48446  22974452.671    22974462.1674
  22604569.619   -11611577.148 8  -9033949.28946  22604576.450    22604584.8424
  20862238.371   -21275652.479 9 -16561007.16948  20862241.233    20862248.4004
 00  5  3  1 28 30.0000000  0  6 09 03 26 21 29 23
  20742925.280   -19881809.350 9 -15468071.38848  20742931.274    20742938.1344
  24525202.566    -1401252.211 7  -1080112.83344  24525206.470    24525218.6204
  23304505.540    -7506509.817 8  -5826790.29746  23304508.149    23304514.7074
  22959473.930   -11180090.216 8  -8690816.44446  22959481.319    22959491.0964
  22591206.992   -11681836.637 8  -9088696.85146  22591207.204    22591215.4924
  20857606.035   -21299996.675 9 -16579976.63548  20857608.485    20857615.6994
 00  5  3  1 29  0.0000000  0  6 09 03 26 21 29 23
  20741449.161   -19889580.755 9 -15474126.99448  20741452.248    20741459.1904
  24531063.918    -1370448.281 7  -1056109.80344  24531067.988    24531078.6634
  23322452.749    -7412188.078 8  -5753292.82646  23322456.677    23322464.0414
  22944514.799   -11258731.286 8  -8752095.08946  22944517.050    22944526.2834
  22577878.501   -11751865.418 8  -9143264.62946  22577881.019    22577889.4474
  20853012.383   -21324129.503 9 -16598781.40148  20853016.010    20853023.5204
 00  5  3  1 29 30.0000000  0  6 09 03 26 21 29 23
  20740093.593   -19896707.370 9 -15479680.16648  20740096.119    20740103.3424
  24537010.961    -1339218.678 7  -1031775.01844  24537012.558    24537019.0204
  23340407.618    -7317835.991 8  -5679771.72846  23340410.662    23340419.0214
  22929554.460   -11337338.607 8  -8813347.43146  22929557.462    22929567.6784
  22564593.544   -11821663.061 8  -9197652.29646  22564598.485    22564607.1964
  20848461.611   -21348050.019 9 -16617420.72348  20848464.167    20848471.6034
 00  5  3  1 30  0.0000000  0  6 09 03 26 21 29 23
  20738857.884   -19903189.183 9 -15484730.89348  20738862.771    20738869.7024
  24543034.187    -1307565.151 7  -1007109.95044  24543035.126    24543044.3464
  23358369.816    -7223454.967 8  -5606228.09246  23358372.058    23358379.2844
  22914604.078   -11415911.101 8  -8874572.64846  22914606.361    22914616.2134
  22551355.946   -11891229.550 8  -9251859.84846  22551360.390    22551368.5554
  20843950.601   -21371757.122 9 -16635893.75448  20843952.957    20843960.1034
 00  5  3  1 30 30.0000000  0  6 09 03 26 21 29 23
  20737749.756   -19909025.944 9 -15489278.98348  20737751.971    20737758.9154
  24549135.379    -1275489.674 7   -982116.03744  24549138.039    24549151.2704
  23376331.100    -7129046.526 8  -5532663.08746  23376337.200    23376344.3054
  22899658.483   -11494448.043 8  -8935770.15746  22899661.366    22899669.8254
  22538162.125   -11960564.555 8  -9305887.03146  22538166.388    22538175.1474
  20839480.218   -21395249.406 9 -16654199.39948  20839482.467    20839489.5594
 00  5  3  1 31  0.0000000  0  6 09 03 26 21 29 23
  20736763.215   -19914217.505 9 -15493324.31548  20736764.073    20736771.2414
  24555318.610    -1242994.254 7   -956794.93544  24555323.127    24555332.6434
  23394305.921    -7034612.056 8  -5459077.77046  23394308.033    23394314.3824
  22884719.673   -11572947.900 8  -8996938.78846  22884722.985    22884731.0834
  22525017.462   -12029667.617 8  -9359733.47646  22525016.474    22525025.1744
  20835048.657   -21418525.979 9 -16672336.95548  20835052.717    20835060.3154
 00  5  3  1 31 30.0000000  0  6 09 03 26 21 29 23
  20735896.533   -19918763.805 9 -15496866.84848  20735898.937    20735906.1024
  24561588.764    -1210081.181 7   -931148.32144  24561589.244    24561598.9844
  23412277.897    -6940153.040 8  -5385473.35646  23412281.381    23412290.4584
  22869787.971   -11651409.886 8  -9058077.88546  22869792.271    22869801.1434
  22511905.835   -12098538.755 8  -9413399.17146  22511909.985    22511918.8004
  20830663.192   -21441585.758 9 -16690305.57848  20830665.240    20830672.1954
 00  5  3  1 32  0.0000000  0  6 09 03 26 21 29 23
  20735154.224   -19922664.707 9 -15499906.47448  20735156.182    20735163.3504
  24567924.848    -1176752.339 7   -905177.83644  24567927.982    24567944.9984
  23430253.416    -6845670.799 8  -5311850.85646  23430260.570    23430269.0254
  22854866.331   -11729833.093 8  -9119186.77446  22854869.045    22854877.7714
  22498848.689   -12167177.547 8  -9466883.83146  22498848.577    22498857.3944
  20826315.642   -21464427.720 9 -16708104.46848  20826318.475    20826325.4754
 00  5  3  1 32 30.0000000  0  6 09 03 26 21 29 23
  20734534.786   -19925920.227 9 -15502443.20548  20734536.600    20734543.9094
  24574338.736    -1143009.364 7   -878884.62444  24574348.177    24574361.9694
  23448233.528    -6751166.718 8  -5238211.32245  23448244.154    23448251.9624
  22839952.479   -11808216.147 8  -9180264.38646  22839953.372    22839961.5254
  22485826.666   -12235583.882 8  -9520187.39446  22485832.045    22485839.1814
  20822010.537   -21487050.821 9 -16725732.83048  20822013.162    20822020.4794
 00  5  3  1 33  0.0000000  0  6 09 03 26 21 29 23
  20734036.847   -19928530.117 9 -15504476.84748  20734040.135    20734047.2904
  24580844.722    -1108854.762 7   -852270.55344  24580848.538    24580862.2954
  23466226.599    -6656642.270 8  -5164555.87846  23466232.362    23466238.9884
  22825043.142   -11886558.016 8  -9241309.92046  22825045.722    22825053.4094
  22472854.566   -12303757.661 8  -9573309.71146  22472858.952    22472866.8704
  20817746.669   -21509453.773 9 -16743189.64048  20817749.806    20817757.3114
 00  5  3  1 33 30.0000000  0  6 09 03 26 21 29 23
  20733665.514   -19930494.359 9 -15506007.38348  20733665.982    20733673.4914
  24587421.652    -1074290.398 7   -825337.28244  24587425.362    24587435.9214
  23484215.412    -6562098.806 8  -5090885.66346  23484221.683    23484231.6574
  22810141.573   -11964857.626 8  -9302322.50546  22810144.837    22810153.9674
  22459927.806   -12371698.461 8  -9626250.49746  22459930.444    22459937.6504
  20813525.737   -21531635.370 9 -16760473.96648  20813528.997    20813535.9754
 00  5  3  1 34  0.0000000  0  7 09 03 26 15 21 29 23
  20733412.896   -19931812.902 9 -15507034.77948  20733415.432    20733422.2924
  24594076.979    -1039318.150 7   -798086.16944  24594080.665    24594091.2744
  23502218.435    -6467537.685 8  -5017201.73646  23502217.926    23502225.3044
  24234907.078     -472908.15417   -338694.95755  24234918.921    24234927.8834
  22795249.229   -12043114.346 8  -9363301.68446  22795252.628    22795261.8324
  22447040.910   -12439406.161 8  -9679009.65246  22447044.745    22447053.2994
  20809346.911   -21553594.598 9 -16777585.02048  20809350.204    20809357.5884
 00  5  3  1 34 30.0000000  0  7 09 03 26 15 21 29 23
  20733283.982   -19932486.043 9 -15507559.26648  20733287.194    20733294.1034
  24600809.095    -1003940.475 7   -770519.11644  24600814.272    24600824.9164
  23520213.154    -6372960.356 8  -4943505.11145  23520215.258    23520222.9264
  24214718.357     -579059.765 7   -421410.51445  24214716.669    24214728.8754
  22780365.978   -12121326.714 8  -9424246.28846  22780369.948    22780378.5184
  22434202.260   -12506880.508 8  -9731586.96846  22434204.699    22434213.0114
  20805212.070   -21575330.383 9 -16794521.95748  20805214.111    20805221.0814
 00  5  3  1 35  0.0000000  0  7 09 03 26 15 21 29 23
  20733278.194   -19932513.914 9 -15507580.94548  20733281.672    20733289.0424
  24607622.749     -968159.329 7   -742637.70744  24607623.508    24607631.5024
  23538212.508    -6278368.167 8  -4869796.91645  23538215.257    23538223.5534
  24194555.624     -685015.561 7   -503973.45545  24194555.203    24194566.0744
  22765494.247   -12199493.683 8  -9485155.54146  22765494.902    22765502.9054
  22421408.369   -12574121.339 8  -9783982.27946  22421410.017    22421417.4864
  20801119.275   -21596841.551 9 -16811283.86748  20801120.595    20801127.4994
 00  5  3  1 35 30.0000000  0  7 09 03 26 15 21 29 23
  20733396.303   -19931896.464 9 -15507099.77948  20733399.386    20733406.4004
  24614505.207     -931976.953 7   -714443.58544  24614509.534    24614520.9944
  23556213.006    -6183762.238 8  -4796078.02145  23556218.203    23556226.3254
  24174431.690     -790772.856 7   -586381.75045  24174431.507    24174440.5624
  22750625.397   -12277614.189 8  -9546028.56946  22750628.430    22750637.2124
  22408651.761   -12641128.523 8  -9836195.58246  22408658.606    22408666.9924
  20797067.111   -21618127.009 9 -16827869.90548  20797070.159    20797077.1754
 00  5  3  1 36  0.0000000  0  7 09 03 26 15 21 29 23
  20733636.816   -19930633.725 9 -15506115.78848  20733639.835    20733646.6094
  24621461.874     -895395.372 7   -685938.41944  24621467.219    24621479.2234
  23574227.328    -6089144.041 8  -4722349.58845  23574224.508    23574231.5564
  24154327.826     -896329.030 7   -668633.34845  24154343.025    24154353.2184
  22735767.536   -12355686.852 8  -9606864.33246  22735771.569    22735780.2964
  22395952.066   -12707901.739 8  -9888226.54346  22395952.062    22395960.1384
  20793058.290   -21639185.679 9 -16844279.22348  20793062.346    20793070.0634
 00  5  3  1 36 30.0000000  0  7 09 03 26 15 21 29 23
  20733999.163   -19928725.938 9 -15504629.16148  20734002.736    20734009.4624
  24628496.843     -858416.784 7   -657123.96044  24628504.672    24628517.5304
  23592226.065    -5994514.871 8  -4648612.55145  23592231.710    23592237.2964
  24134289.265    -1001681.001 7   -750725.87045  24134295.699    24134304.2674
  22720924.464   -12433710.906 8  -9667662.20346  22720925.248    22720933.1114
  22383286.427   -12774440.933 8  -9940075.16546  22383290.277    22383298.2614
  20789096.291   -21660016.266 9 -16860510.81548  20789098.567    20789106.0294
 00  5  3  1 37  0.0000000  0  7 09 03 26 15 21 29 23
  20734487.524   -19926173.252 9 -15502640.01948  20734488.758    20734495.3964
  24635628.903     -821043.415 7   -628001.86644  24635617.973    24635627.7374
  23610238.936    -5899876.025 8  -4574867.99645  23610240.263    23610246.3954
  24114289.692    -1106826.072 7   -832657.11745  24114286.924    24114296.4344
  22706080.079   -12511685.034 8  -9728421.17446  22706086.464    22706094.6434
  22370667.448   -12840745.943 8  -9991741.30746  22370672.061    22370680.5504
  20785176.392   -21680617.643 9 -16876563.80248  20785178.525    20785185.5824
 00  5  3  1 37 30.0000000  0  7 09 03 26 15 21 29 23
  20735094.508   -19922975.929 9 -15500148.55748  20735097.108    20735103.7454
  24642805.342     -783277.279 7   -598573.67644  24642802.964    24642813.0884
  23628249.627    -5805228.853 8  -4501116.96345  23628250.344    23628258.0174
  24094312.531    -1211761.546 7   -914424.97745  24094318.700    24094327.7284
  22691257.065   -12589607.723 8  -9789140.06146  22691258.627    22691265.9894
  22358098.563   -12906816.566 8 -10043224.80246  22358099.313    22358107.5984
  20781299.972   -21700988.534 9 -16892437.19248  20781302.018    20781309.1524
 00  5  3  1 38  0.0000000  0  7 09 03 26 15 21 29 23
  20735828.447   -19919134.238 9 -15497154.99548  20735827.868    20735834.8114
  24650067.897     -745120.598 7   -568841.19344  24650060.434    24650073.9844
  23646260.253    -5710574.661 8  -4427360.46945  23646262.850    23646270.1484
  24074389.516    -1316484.373 7   -996027.17445  24074390.799    24074400.0314
  22676440.531   -12667478.379 8  -9849818.39846  22676440.690    22676447.9964
  22345565.040   -12972652.741 8 -10094525.58746  22345571.231    22345579.4574
  20777466.154   -21721128.080 9 -16908130.30848  20777469.294    20777476.6574
 00  5  3  1 38 30.0000000  0  7 09 03 26 15 21 29 23
  20736677.171   -19914648.227 9 -15493659.36248  20736681.280    20736688.5754
  24657392.652     -706575.807 7   -538806.29744  24657400.982    24657411.4284
  23664263.030    -5615914.702 7  -4353599.47545  23664274.591    23664283.5074
  24054498.438    -1420991.640 7  -1077461.35445  24054503.559    24054513.8724
  22661629.391   -12745295.276 8  -9910454.85646  22661632.519    22661639.4264
  22333085.262   -13038254.079 8 -10145643.40446  22333087.672    22333096.0614
  20773678.839   -21741035.019 9 -16923642.18148  20773681.304    20773688.4714
 00  5  3  1 39  0.0000000  0  6 09 26 15 21 29 23
  20737653.699   -19909518.538 9 -15489662.15148  20737657.453    20737664.7114
  23682284.437    -5521250.252 8  -4279835.01545  23682289.638    23682298.2504
  24034660.414    -1525280.600 7  -1158725.47045  24034659.602    24034667.1904
  22646828.094   -12823057.586 8  -9971048.76146  22646834.176    22646842.7574
  22320643.689   -13103620.650 8 -10196578.28946  22320648.344    22320656.8424
  20769932.761   -21760708.172 9 -16938971.88348  20769937.383    20769944.6644
 00  5  3  1 39 30.0000000  0  6 09 26 15 21 29 23
  20738751.851   -19903745.339 9 -15485163.52548  20738756.025    20738762.9494
  23700302.549    -5426582.567 8  -4206067.97545  23700305.917    23700312.3364
  24014853.333    -1629348.711 7  -1239817.52545  24014854.856    24014864.7844
  22632044.881   -12900764.024 8 -10031599.12546  22632047.540    22632055.7904
  22308248.770   -13168752.119 8 -10247329.96646  22308254.076    22308262.6934
  20766235.104   -21780146.367 9 -16954118.49248  20766238.089    20766245.6934
 00  5  3  1 40  0.0000000  0  6 09 26 15 21 29 23
  20739971.466   -19897329.052 9 -15480163.78548  20739977.063    20739983.9804
  23718322.354    -5331912.858 8  -4132299.36546  23718320.447    23718327.9554
  23995087.890    -1733192.854 7  -1320735.00945  23995094.521    23995105.1534
  22617270.074   -12978413.136 8 -10092104.84246  22617271.579    22617278.4904
  22295902.413   -13233648.454 8 -10297898.44546  22295904.085    22295912.4824
  20762582.879   -21799348.422 9 -16969081.09848  20762584.395    20762591.6434
 00  5  3  1 40 30.0000000  0  6 09 26 15 21 29 23
  20741319.035   -19890270.032 9 -15474663.19748  20741320.715    20741327.2484
  23736332.580    -5237242.468 8  -4058530.22645  23736335.261    23736343.7904
  23975383.182    -1836810.076 8  -1401475.69045  23975377.659    23975386.1874
  22602502.420   -13056003.725 8 -10152564.93846  22602505.650    22602513.3854
  22283596.292   -13298309.557 8 -10348283.62646  22283600.054    22283607.3364
  20758972.726   -21818313.382 9 -16983858.96448  20758975.682    20758982.5824
 00  5  3  1 41  0.0000000  0  6 09 26 15 21 29 23
  20742783.776   -19882568.741 9 -15468662.15348  20742785.583    20742792.4184
  23754346.253    -5142572.543 8  -3984761.46845  23754350.938    23754358.4964
  23955697.073    -1940197.711 8  -1482037.46545  23955701.464    23955711.3364
  22587748.763   -13133534.630 8 -10212978.53046  22587752.310    22587759.6984
  22271340.132   -13362735.228 8 -10398485.35246  22271339.858    22271349.1414
  20755407.278   -21837039.889 9 -16998451.01648  20755411.852    20755419.0234
 00  5  3  1 41 30.0000000  0  6 09 26 15 21 29 23
  20744370.350   -19874225.455 9 -15462160.85948  20744373.274    20744380.2164
  23772361.640    -5047904.209 8  -3910993.97545  23772365.610    23772373.2334
  23936072.753    -2043352.941 8  -1562418.11745  23936074.006    23936081.9464
  22573008.406   -13211005.232 8 -10273345.13746  22573009.566    22573017.7904
  22259118.679   -13426925.566 8 -10448503.69046  22259124.513    22259133.8714
  20751890.820   -21855526.767 9 -17012856.33848  20751893.963    20751900.9004
 00  5  3  1 42  0.0000000  0  6 09 26 15 21 29 23
  20746077.850   -19865240.888 9 -15455159.86148  20746083.142    20746090.1594
  23790375.333    -4953238.914 8  -3837228.81245  23790379.600    23790386.8944
  23916488.888    -2146272.595 8  -1642615.22145  23916488.552    23916496.9384
  22558273.649   -13288413.900 8 -10333663.48546  22558279.253    22558287.4154
  22246949.791   -13490880.190 8 -10498338.36646  22246954.752    22246963.4314
  20748420.889   -21873772.952 9 -17027074.11848  20748421.978    20748428.7504
 00  5  3  1 42 30.0000000  0  6 09 26 15 21 29 23
  20747913.969   -19855615.356 9 -15447659.41648  20747914.695    20747921.6584
  23808382.276    -4858577.714 8  -3763466.83145  23808392.526    23808399.9804
  23896944.218    -2248954.100 7  -1722626.75945  23896948.948    23896956.0584
  22543556.687   -13365759.327 8 -10393932.55646  22543560.747    22543569.1064
  22234825.947   -13554599.216 8 -10547989.45346  22234829.845    22234836.9284
  20744991.583   -21891777.218 9 -17041103.37648  20744995.950    20745002.7514
 00  5  3  1 43  0.0000000  0  6 09 26 15 21 29 23
  20749864.770   -19845349.413 9 -15439659.94148  20749868.248    20749875.1304
  23826399.773    -4763921.748 8  -3689708.95745  23826403.581    23826412.6304
  23877459.085    -2351394.679 8  -1802450.54445  23877456.086    23877462.2554
  22528856.711   -13443040.180 8 -10454151.30946  22528854.404    22528862.8964
  22222748.956   -13618082.446 8 -10597456.81546  22222748.813    22222757.0884
  20741613.650   -21909538.254 9 -17054943.10948  20741615.894    20741622.8904
 00  5  3  1 43 30.0000000  0  6 09 26 15 21 29 23
  20751940.638   -19834443.642 9 -15431161.89848  20751943.620    20751950.6054
  23844414.494    -4669272.266 8  -3615956.13945  23844415.579    23844424.5064
  23858005.706    -2453591.383 8  -1882084.31245  23858008.313    23858015.7284
  22514153.363   -13520255.065 8 -10514318.64846  22514160.492    22514168.8374
  22210709.380   -13681329.570 8 -10646740.17746  22210713.649    22210721.5104
  20738280.025   -21927055.011 9 -17068592.49648  20738282.545    20738289.9244
 00  5  3  1 44  0.0000000  0  6 09 26 15 21 29 23
  20754138.251   -19822898.653 9 -15422165.76948  20754140.505    20754147.6844
  23862430.046    -4574630.474 8  -3542209.28645  23862425.633    23862433.4234
  23838598.025    -2555541.363 7  -1961525.81245  23838606.827    23838615.6404
  22499474.890   -13597402.715 8 -10574433.61646  22499479.967    22499488.4514
  22198720.510   -13744340.733 8 -10695839.68846  22198722.695    22198730.8414
  20734993.393   -21944326.267 9 -17082050.58548  20734995.700    20735003.2774
 00  5  3  1 44 30.0000000  0  6 09 26 15 21 29 23
  20756455.716   -19810715.000 9 -15412671.98848  20756458.962    20756466.0704
  23880422.899    -4479997.489 8  -3468469.29345  23880434.456    23880441.9084
  23819247.647    -2657241.733 8  -2040772.78945  23819254.114    23819263.2054
  22484810.296   -13674482.181 8 -10634495.44646  22484812.545    22484821.4464
  22186772.371   -13807115.784 8 -10744755.21347  22186777.165    22186785.0964
  20731752.511   -21961350.993 9 -17095316.57848  20731756.002    20731763.4464
 00  5  3  1 45  0.0000000  0  6 09 26 15 21 29 23
  20758896.637   -19797893.424 9 -15402681.12048  20758898.727    20758905.7364
  23898438.102    -4385374.400 8  -3394737.04745  23898440.108    23898447.3654
  23799954.137    -2758689.558 8  -2119823.02445  23799949.230    23799958.2944
  22470156.627   -13751492.235 8 -10694503.18446  22470157.661    22470166.9824
  22174874.845   -13869654.651 8 -10793486.69147  22174875.796    22174883.9144
  20728560.536   -21978127.887 9 -17108389.45248  20728563.275    20728571.2054
 00  5  3  1 45 30.0000000  0  6 09 26 15 21 29 23
  20761456.059   -19784434.490 9 -15392193.61248  20761459.699    20761466.8104
  23916446.874    -4290762.492 8  -3321013.48745  23916444.912    23916451.7084
  23780690.113    -2859882.001 7  -2198674.24745  23780692.313    23780701.2484
  22455514.214   -13828431.251 8 -10754455.58446  22455517.119    22455524.7014
  22163017.725   -13931957.267 8 -10842034.07346  22163020.268    22163027.6354
  20725414.884   -21994655.885 9 -17121268.38548  20725418.232    20725425.7744
 00  5  3  1 46  0.0000000  0  6 09 26 15 21 29 23
  20764139.592   -19770338.982 9 -15381210.06548  20764142.142    20764148.9374
  23934445.835    -4196162.916 8  -3247299.55045  23934446.452    23934454.3654
  23761481.438    -2960816.115 7  -2277324.12945  23761484.483    23761494.1864
  22440889.882   -13905298.092 8 -10814351.73946  22440889.318    22440898.2104
  22151205.674   -13994023.639 8 -10890397.38947  22151209.972    22151217.4424
  20722318.077   -22010933.589 9 -17133952.28248  20722321.231    20722328.0034
 00  5  3  1 46 30.0000000  0  6 09 26 15 21 29 23
  20766944.671   -19755607.525 9 -15369730.96948  20766945.331    20766952.3934
  23952440.396    -4101576.637 8  -3173595.95445  23952444.293    23952453.7614
  23742321.713    -3061489.000 8  -2355770.45445  23742327.824    23742337.8614
  22426272.142   -13982091.075 8 -10874190.32646  22426276.016    22426284.5884
  22139442.602   -14055853.533 8 -10938576.42746  22139444.363    22139450.1724
  20719270.156   -22026959.889 9 -17146440.27548  20719271.722    20719278.1154
 00  5  3  1 47  0.0000000  0  6 09 26 15 21 29 23
  20769864.090   -19740240.743 9 -15357756.81948  20769869.572    20769876.5994
  23970439.095    -4007004.829 8  -3099903.64045  23970441.402    23970449.7924
  23723225.605    -3161897.740 8  -2434010.96745  23723220.394    23723230.9874
  22411674.657   -14058809.145 8 -10933970.55247  22411676.927    22411685.8814
  22127721.502   -14117447.010 8 -10986571.25246  22127722.593    22127729.6404
  20716265.612   -22042733.646 9 -17158731.48148  20716269.996    20716276.5254
 00  5  3  1 47 30.0000000  0  6 09 26 15 21 29 23
  20772910.647   -19724239.760 9 -15345288.49548  20772914.381    20772921.3484
  23988433.932    -3912448.559 8  -3026223.42145  23988435.806    23988443.1974
  23704155.217    -3262039.578 7  -2512043.48145  23704163.322    23704174.3364
  22397091.514   -14135451.318 8 -10993691.63147  22397092.524    22397100.5374
  22116040.972   -14178804.112 8 -11034381.88046  22116046.562    22116053.5184
  20713315.038   -22058253.778 9 -17170825.05248  20713316.600    20713323.3994
 00  5  3  1 48  0.0000000  0  6 09 26 15 21 29 23
  20776074.296   -19707605.012 9 -15332326.32047  20776079.251    20776086.4474
  24006420.800    -3817908.979 8  -2952556.24645  24006425.714    24006433.1084
  23685158.344    -3361911.842 8  -2589865.95945  23685159.602    23685168.1164
  22382516.896   -14212015.430 8 -11053351.91347  22382523.326    22382530.8284
  22104415.411   -14239924.495 8 -11082008.06747  22104416.235    22104422.5714
  20710409.863   -22073519.062 9 -17182720.05148  20710411.733    20710418.5004
 00  5  3  1 48 30.0000000  0  6 09 26 15 21 29 23
  20779364.957   -19690337.604 9 -15318871.16947  20779365.684    20779372.0814
  24024412.218    -3723387.186 8  -2878902.92645  24024412.802    24024420.4364
  23666197.161    -3461511.280 8  -2667475.89345  23666205.490    23666216.5714
  22367966.364   -14288500.534 8 -11112950.59847  22367967.951    22367977.0084
  22092827.431   -14300808.357 8 -11129449.95447  22092829.809    22092838.1414
  20707552.613   -22088528.102 9 -17194415.37348  20707555.343    20707562.2354
 00  5  3  1 49  0.0000000  0  6 09 26 15 21 29 23
  20782769.870   -19672438.201 9 -15304923.54747  20782771.962    20782778.5834
  24042387.501    -3628884.274 8  -2805264.32045  24042395.653    24042403.8894
  23647304.636    -3560834.953 8  -2744870.87045  23647306.153    23647315.3784
  22353426.253   -14364905.095 8 -11172486.53347  22353428.565    22353437.1934
  22081285.602   -14361455.696 8 -11176707.51747  22081288.880    22081297.1364
  20704746.411   -22103279.766 9 -17205910.14448  20704748.125    20704755.1214
 00  5  3  1 49 30.0000000  0  6 09 26 15 21 29 23
  20786292.578   -19653907.806 9 -15290484.23947  20786297.357    20786304.9864
  24060373.285    -3534401.256 8  -2731641.18045  24060375.053    24060382.5214
  23628452.569    -3659880.040 8  -2822048.79745  23628457.737    23628467.6064
  22338901.501   -14441227.952 8 -11231958.80547  22338904.594    22338912.5544
  22069790.158   -14421866.215 8 -11223780.54547  22069793.186    22069800.6434
  20701987.426   -22117772.959 9 -17217203.51548  20701989.982    20701997.0294
 00  5  3  1 50  0.0000000  0  6 09 26 15 21 29 23
  20789941.557   -19634747.315 9 -15275553.95648  20789943.966    20789951.0904
  24078352.304    -3439939.157 8  -2658034.35845  24078350.507    24078358.1274
  23609662.863    -3758643.706 8  -2899007.43645  23609663.115    23609672.3384
  22324392.803   -14517468.033 8 -11291366.58947  22324397.281    22324404.3154
  22058341.365   -14482040.089 8 -11270669.21847  22058342.700    22058348.7404
  20699279.160   -22132006.429 9 -17228294.50248  20699281.556    20699288.2834
 00  5  3  1 50 30.0000000  0  6 09 26 15 21 29 23
  20793709.199   -19614957.616 9 -15260133.36848  20793709.953    20793717.1204
  24096305.761    -3345499.115 7  -2584444.74945  24096322.135    24096330.2844
  23590921.501    -3857122.969 8  -2975744.46745  23590923.565    23590931.9634
  22309902.769   -14593623.557 8 -11350708.47847  22309904.837    22309913.3104
  22046933.673   -14541977.381 8 -11317373.51047  22046936.161    22046943.6814
  20696618.823   -22145978.915 9 -17239182.12848  20696622.559    20696629.5094
 00  5  3  1 51  0.0000000  0  6 09 26 15 21 29 23
  20797588.023   -19594539.683 9 -15244223.25348  20797594.806    20797602.4154
  24114280.146    -3251082.036 8  -2510873.04245  24114290.007    24114296.8904
  23572236.829    -3955315.082 8  -3052257.73445  23572239.194    23572247.9154
  22295429.024   -14669692.830 8 -11409983.15847  22295429.758    22295437.8004
  22035571.548   -14601677.927 8 -11363893.33247  22035575.308    22035584.1464
  20694012.084   -22159689.214 9 -17249865.44648  20694013.482    20694020.0844
 00  5  3  1 51 30.0000000  0  6 09 26 15 21 29 23
  20801598.633   -19573494.650 9 -15227824.49848  20801600.125    20801606.8654
  24132256.011    -3156689.169 8  -2437320.15545  24132252.394    24132259.1154
  23553608.856    -4053217.161 8  -3128545.00745  23553607.711    23553617.9284
  22280967.223   -14745674.577 8 -11469189.63847  22280971.170    22280978.9294
  22024255.945   -14661141.710 8 -11410228.64947  22024259.389    22024267.4994
  20691451.272   -22173136.309 9 -17260343.67648  20691454.449    20691461.1104
 00  5  3  1 52  0.0000000  0  6 09 26 15 21 29 23
  20805721.554   -19551823.349 9 -15210937.73648  20805724.089    20805730.6004
  24150200.303    -3062321.322 8  -2363786.78045  24150208.818    24150217.1644
  23535031.225    -4150826.493 8  -3204604.14045  23535032.803    23535043.7134
  22266526.735   -14821567.362 8 -11528326.79547  22266528.977    22266536.4084
  22012984.943   -14720368.860 8 -11456379.60247  22012988.698    22012996.7734
  20688943.999   -22186318.863 9 -17270615.77248  20688946.058    20688952.7594
 00  5  3  1 52 30.0000000  0  6 09 26 15 21 29 23
  20809963.089   -19529526.870 9 -15193563.81147  20809966.693    20809973.4114
  24168167.140    -2967979.583 8  -2290273.76245  24168160.715    24168169.4354
  23516509.965    -4248139.963 8  -3280432.81445  23516515.514    23516523.6534
  22252103.723   -14897370.022 8 -11587393.71347  22252104.009    22252112.1834
  22001764.995   -14779359.230 8 -11502346.04547  22001763.863    22001770.6994
  20686486.513   -22199235.699 9 -17280680.81048  20686488.164    20686494.9164
 00  5  3  1 53  0.0000000  0  6 09 26 15 21 29 23
  20814326.402   -19506606.377 9 -15175703.65448  20814328.418    20814334.9914
  24186111.432    -2873664.935 8  -2216781.85745  24186109.282    24186116.1074
  23498055.469    -4345154.746 8  -3356028.70945  23498055.211    23498064.2194
  22237692.772   -14973080.797 8 -11646389.05547  22237696.582    22237704.7254
  21990580.638   -14838112.849 8 -11548127.99847  21990583.767    21990591.2834
  20684077.730   -22211885.536 9 -17290537.79948  20684081.029    20684087.6334
 00  5  3  1 53 30.0000000  0  6 09 26 15 21 29 23
  20818807.591   -19483062.955 9 -15157358.09448  20818808.113    20818815.2494
  24204050.019    -2779378.390 8  -2143311.85945  24204051.210    24204058.4494
  23479650.953    -4441867.787 8  -3431389.44446  23479651.221    23479660.5794
  22223302.024   -15048698.457 8 -11705311.83447  22223306.744    22223314.9704
  21979441.520   -14896629.869 8 -11593725.59147  21979447.617    21979455.6964
  20681720.935   -22224267.345 9 -17300185.93248  20681724.657    20681731.3434
 00  5  3  1 54  0.0000000  0  6 09 26 15 21 29 23
  20823403.804   -19458897.527 9 -15138527.85748  20823406.826    20823413.7524
  24221985.555    -2685120.859 8  -2069864.45045  24221988.694    24221994.5304
  23461300.030    -4538276.372 8  -3506512.98845  23461304.102    23461313.2944
  22208933.738   -15124221.513 8 -11764160.88847  22208935.428    22208943.5224
  21968352.306   -14954910.039 8 -11639138.60247  21968357.342    21968365.8214
  20679416.289   -22236379.874 9 -17309624.23148  20679419.453    20679426.3024
 00  5  3  1 54 30.0000000  0  6 09 26 15 21 29 23
  20828121.122   -19434111.476 9 -15119214.01748  20828123.836    20828130.4874
  24239917.577    -2590893.331 8  -1996440.42645  24239920.090    24239925.6244
  23443013.509    -4634377.402 8  -3581396.85545  23443017.045    23443025.2374
  22194578.670   -15199648.313 8 -11822934.93847  22194582.450    22194589.7444
  21957311.449   -15012953.673 8 -11684367.29547  21957311.985    21957320.2994
  20677161.876   -22248221.859 9 -17318851.72948  20677165.976    20677172.8334
 00  5  3  1 55  0.0000000  0  6 09 26 15 21 29 23
  20832954.716   -19408705.843 9 -15099417.38548  20832958.151    20832964.9004
  24257841.204    -2496696.923 8  -1923040.65845  24257844.543    24257851.2784
  23424783.633    -4730168.095 8  -3656038.86845  23424787.288    23424796.3584
  22180247.243   -15274977.807 8 -11881633.17247  22180246.933    22180255.0154
  21946310.856   -15070760.466 8 -11729411.44647  21946312.138    21946319.8564
  20674961.301   -22259792.080 9 -17327867.46348  20674964.110    20674971.1304
 00  5  3  1 55 30.0000000  0  6 09 26 15 21 29 23
  20837906.750   -19382681.750 9 -15079138.84348  20837910.412    20837917.3614
  24275759.231    -2402532.465 8  -1849665.74645  24275762.804    24275769.9894
  23406622.836    -4825645.474 8  -3730436.77445  23406619.323    23406626.8524
  22165928.607   -15350208.139 8 -11940254.12747  22165931.445    22165938.9594
  21935351.102   -15128330.720 8 -11774271.30047  21935356.893    21935365.1864
  20672810.157   -22271089.332 9 -17336670.49348  20672814.544    20672821.4204
 00  5  3  1 56  0.0000000  0  6 09 26 15 21 29 23
  20842979.154   -19356040.514 9 -15058379.40948  20842980.341    20842987.1584
  24293676.480    -2308400.854 8  -1776316.46445  24293676.321    24293683.5644
  23388504.431    -4920806.649 8  -3804588.29246  23388511.715    23388519.7504
  22151630.264   -15425338.049 8 -11998796.83747  22151634.597    22151642.8564
  21924444.454   -15185664.331 8 -11818946.74847  21924446.616    21924453.5614
  20670713.548   -22282112.383 9 -17345259.86048  20670717.199    20670723.7494
 00  5  3  1 56 30.0000000  0  6 09 26 15 21 29 23
  20848161.896   -19328783.297 9 -15037139.98648  20848166.844    20848173.9994
  24311575.509    -2214303.086 8  -1702993.57645  24311583.275    24311589.5264
  23370459.113    -5015648.662 8  -3878491.08445  23370462.643    23370471.3844
  22137354.194   -15500365.600 8 -12057259.77447  22137356.903    22137365.0324
  21913576.216   -15242761.455 8 -11863437.90147  21913581.173    21913588.7274
  20668668.281   -22292860.145 9 -17353634.71148  20668671.836    20668678.5554
 00  5  3  1 57  0.0000000  0  6 09 26 15 21 29 23
  20853467.740   -19300911.479 9 -15015421.65948  20853470.773    20853477.6374
  24329478.583    -2120240.161 8  -1629697.83745  24329481.934    24329490.2254
  23352471.420    -5110168.685 8  -3952142.96245  23352474.918    23352484.5864
  22123099.213   -15575289.413 8 -12115641.90647  22123099.396    22123107.6084
  21902756.906   -15299622.034 8 -11907744.73947  21902760.727    21902767.6954
  20666674.657   -22303331.277 9 -17361794.00548  20666678.903    20666685.9384
 00  5  3  1 57 30.0000000  0  6 09 26 15 21 29 23
  20858887.363   -19272426.306 9 -14993225.38148  20858890.842    20858898.2644
  24347372.506    -2026212.881 8  -1556429.83745  24347374.834    24347382.0984
  23334550.332    -5204363.881 8  -4025541.74945  23334550.380    23334560.1354
  22108857.613   -15650108.290 8 -12173942.26447  22108861.994    22108870.1304
  21891980.321   -15356246.224 8 -11951867.37547  21891985.012    21891992.0184
  20664737.416   -22313524.653 9 -17369736.87648  20664739.449    20664746.1414
 00  5  3  1 58  0.0000000  0  6 09 26 15 21 29 23
  20864425.219   -19243329.165 9 -14970552.25748  20864428.225    20864435.0444
  24365254.597    -1932222.176 8  -1483190.35945  24365260.141    24365268.6674
  23316681.638    -5298231.522 8  -4098685.31345  23316688.913    23316696.4124
  22094644.668   -15724820.450 8 -12232159.45647  22094644.342    22094651.7764
  21881250.623   -15412633.753 8 -11995805.62347  21881255.409    21881262.6044
  20662848.980   -22323439.201 9 -17377462.47348  20662852.334    20662859.6364
 00  5  3  1 58 30.0000000  0  7 09 26 15 21 29 23 05
  20870079.337   -19213621.307 9 -14947403.24848  20870081.692    20870088.2904
  24383135.895    -1838268.942 8  -1409980.09645  24383139.275    24383146.6414
  23298889.404    -5391768.429 8  -4171571.12745  23298886.929    23298897.3964
  22080443.885   -15799424.287 8 -12290292.25347  22080447.530    22080454.7154
  21870567.014   -15468785.013 8 -12039559.75847  21870570.639    21870576.5874
  20661015.957   -22333073.569 9 -17384969.74548  20661019.167    20661026.1924
  24566753.858      -99875.81717    -67621.22454                  24566766.5254
 00  5  3  1 59  0.0000000  0  7 09 26 15 21 29 23 05
  20875847.840   -19183304.059 9 -14923779.38448  20875850.830    20875857.6224
  24401007.189    -1744354.126 7  -1336799.77345  24401010.148    24401017.8674
  23281151.251    -5484971.755 7  -4244197.03245  23281151.404    23281160.5994
  22066269.273   -15873918.536 8 -12348339.65647  22066270.689    22066279.5594
  21859928.469   -15524699.906 8 -12083129.71547  21859929.778    21859936.1074
  20659236.578   -22342426.672 9 -17392257.85548  20659239.591    20659246.0684
  24551406.819     -180470.614 7   -130421.96544  24551420.321    24551434.3184
 00  5  3  1 59 30.0000000  0  7 09 26 15 21 29 23 05
  20881735.081   -19152378.907 9 -14899681.83448  20881735.549    20881742.1104
  24418877.370    -1650478.610 7  -1263650.08345  24418872.755    24418881.8264
  23263478.506    -5577838.623 8  -4316560.76445  23263480.862    23263489.4414
  22052111.835   -15948301.264 8 -12406300.14947  22052116.938    22052125.2934
  21849329.985   -15580378.518 8 -12126515.57247  21849334.230    21849341.1204
  20657510.300   -22351497.231 9 -17399325.79648  20657513.125    20657520.0334
  24536089.095     -261019.544 7   -193187.04045  24536093.468    24536107.2284
 00  5  3  2  0  0.0000000  0  7 09 26 15 21 29 23 05
  20887731.086   -19120847.297 9 -14875111.72548  20887735.618    20887742.3924
  24436734.720    -1556643.198 8  -1190531.60245  24436730.530    24436738.3184
  23245870.171    -5670366.414 8  -4388660.28345  23245872.362    23245880.4084
  22037980.158   -16022571.277 8 -12464172.81347  22037984.200    22037991.9214
  21838781.101   -15635821.018 8 -12169717.43347  21838784.073    21838790.9644
  20655838.777   -22360283.942 9 -17406172.55648  20655841.040    20655847.9934
  24520776.272     -341519.783 7   -255914.24745  24520775.305    24520785.5294
 00  5  3  2  0 30.0000000  0  7 09 26 15 21 29 23 05
  20893848.485   -19088710.374 9 -14850069.93648  20893851.290    20893858.0634
  24454574.752    -1462848.731 7  -1117445.05245  24454578.534    24454586.8944
  23228324.198    -5762552.139 8  -4460493.26045  23228329.904    23228338.1134
  22023870.321   -16096726.474 8 -12521956.02847  22023872.563    22023880.6034
  21828277.822   -15691027.436 8 -12212735.34647  21828278.831    21828284.5844
  20654220.135   -22368785.655 9 -17412797.23848  20654223.298    20654230.2404
  24505468.640     -421968.307 7   -318601.04745  24505464.350    24505477.1134
 00  5  3  2  1  0.0000000  0  7 09 26 15 21 29 23 05
  20900078.160   -19055969.949 9 -14824557.88947  20900081.319    20900087.9284
  24472416.355    -1369096.111 7  -1044391.12245  24472420.277    24472427.8574
  23210858.766    -5854392.831 8  -4532057.31845  23210853.154    23210863.4974
  22009780.185   -16170765.431 8 -12579648.65147  22009782.791    22009791.1394
  21817814.954   -15745997.714 8 -12255569.24147  21817818.435    21817824.4084
  20652656.561   -22377001.131 9 -17419198.88448  20652660.069    20652667.0054
  24490174.455     -502362.009 7   -381245.20745  24490166.475    24490179.6664
 00  5  3  2  1 30.0000000  0  7 09 26 15 21 29 23 05
  20906422.758   -19022627.479 9 -14798576.72147  20906425.980    20906432.7454
  24490254.719    -1275386.114 7   -971370.39345  24490252.846    24490260.8594
  23193441.038    -5945885.579 8  -4603350.33445  23193444.012    23193449.7264
  21995713.677   -16244686.789 8 -12637249.64847  21995715.879    21995724.0984
  21807400.617   -15800732.041 8 -12298219.28747  21807402.631    21807408.9314
  20651149.011   -22384929.145 9 -17425376.53048  20651151.256    20651158.3244
  24474876.543     -582698.014 7   -443844.41245  24474878.732    24474891.1004
 00  5  3  2  2  0.0000000  0  7 09 26 15 21 29 23 05
  20912883.410   -18988684.335 9 -14772127.49747  20912885.229    20912892.0964
  24508069.795    -1181719.715 7   -898383.65345  24508077.068    24508084.6494
  23176098.705    -6037027.668 8  -4674370.08445  23176098.876    23176108.8564
  21981671.089   -16318488.935 8 -12694757.75747  21981672.913    21981680.4274
  21797028.748   -15855230.383 8 -12340685.46747  21797032.005    21797037.6844
  20649695.444   -22392568.576 9 -17431329.31248  20649697.361    20649704.0924
  24459585.109     -662973.446 7   -506396.37645  24459603.241    24459615.3164
 00  5  3  2  2 30.0000000  0  7 09 26 15 21 29 23 05
  20919455.806   -18954142.135 9 -14745211.46647  20919458.188    20919465.2004
  24525889.113    -1088097.588 7   -825431.39445  24525892.773    24525900.6914
  23158819.756    -6127815.969 8  -4745114.11346  23158823.507    23158833.1004
  21967648.504   -16392170.254 8 -12752171.71447  21967650.903    21967659.7714
  21786702.140   -15909493.109 8 -12382968.04647  21786705.871    21786711.8354
  20648297.279   -22399918.244 9 -17437056.30348  20648298.914    20648305.5004
  24444340.162     -743185.252 7   -568898.78745  24444338.129    24444351.3824
 00  5  3  2  3  0.0000000  0  7 09 26 15 21 29 23 05
  20926142.583   -18919002.498 9 -14717829.90147  20926145.148    20926151.5964
  24543694.842     -994520.757 7   -752514.41445  24543699.054    24543707.7664
  23141612.984    -6218247.768 8  -4815580.35545  23141614.963    23141621.0794
  21953648.391   -16465728.689 8 -12809489.91647  21953653.552    21953662.5394
  21776422.327   -15963520.019 8 -12425066.88347  21776424.441    21776431.4714
  20646953.326   -22406977.001 9 -17442556.61148  20646955.810    20646962.5234
  24429086.374     -823330.450 7   -631349.34245  24429086.992    24429099.3134
 00  5  3  2  3 30.0000000  0  7 09 26 15 21 29 23 05
  20932941.141   -18883266.979 9 -14689984.02447  20932945.450    20932952.0804
  24561482.664     -900989.889 7   -679633.26745  24561497.120    24561505.3704
  23124471.956    -6308320.174 8  -4885766.65145  23124474.425    23124481.9714
  21939674.972   -16539162.909 8 -12866711.31947  21939679.253    21939687.8974
  21766183.990   -16017311.361 8 -12466982.14547  21766188.107    21766195.0954
  20645665.790   -22413743.674 9 -17447829.31448  20645668.183    20645674.7594
  24413851.948     -903406.069 8   -693745.66445  24413850.169    24413864.5694
 00  5  3  2  4  0.0000000  0  7 09 26 15 21 29 23 05
  20939857.925   -18846937.052 9 -14661674.97347  20939858.752    20939865.4804
  24579291.226     -807505.726 7   -606788.49545  24579287.051    24579295.4184
  23107401.029    -6398030.407 8  -4955670.61746  23107403.613    23107412.2384
  21925728.044   -16612471.054 9 -12923834.48247  21925729.973    21925737.2914
  21755994.088   -16070867.216 8 -12508713.91247  21755996.774    21756003.5014
  20644434.387   -22420217.069 9 -17452873.50048  20644436.250    20644443.0204
  24398607.378     -983409.171 7   -756085.39345  24398624.237    24398636.8064
 00  5  3  2  4 30.0000000  0  7 09 26 15 21 29 23 05
  20946878.652   -18810014.309 9 -14632903.98447  20946884.553    20946891.6064
  24597058.261     -714069.135 7   -533980.83745  24597068.079    24597074.8604
  23090399.118    -6487375.593 8  -5025290.12446  23090401.555    23090409.5524
  21911801.829   -16685651.590 9 -12980858.22747  21911804.114    21911811.1924
  21745847.880   -16124187.548 8 -12550262.17747  21745850.615    21745856.8754
  20643257.416   -22426395.837 9 -17457688.10148  20643260.281    20643267.0374
  24383413.463    -1063336.708 7   -818366.34545  24383416.171    24383425.7554
 00  5  3  2  5  0.0000000  0  7 09 26 15 21 29 23 05
  20954018.237   -18772500.374 9 -14603672.32547  20954023.408    20954030.4364
  24614825.285     -620680.937 7   -461210.85545  24614838.826    24614845.6354
  23073461.483    -6576352.769 8  -5094622.93246  23073469.554    23073477.1134
  21897899.766   -16758702.810 8 -13037781.19147  21897902.471    21897909.9424
  21735746.449   -16177272.837 8 -12591627.28447  21735748.932    21735754.7424
  20642139.521   -22432278.696 9 -17462272.13048  20642140.915    20642147.7704
  24368218.562    -1143185.847 7   -880586.18245  24368218.051    24368230.7554
 00  5  3  2  5 30.0000000  0  7 09 26 15 21 29 23 05
  20961271.744   -18734397.018 9 -14573981.37047  20961274.510    20961280.9224
  24632604.362     -527341.904 7   -388479.19445  24632600.537    24632608.3334
  23056613.451    -6664959.176 8  -5163666.79446  23056609.424    23056616.7204
  21884023.541   -16831623.260 8 -13094602.26947  21884026.185    21884033.9034
  21725684.336   -16230122.633 8 -12632808.87747  21725690.741    21725698.2484
  20641076.118   -22437864.664 9 -17466624.81348  20641077.983    20641084.9354
  24353040.644    -1222953.448 7   -942742.52645  24353040.235    24353053.1094
 00  5  3  2  6  0.0000000  0  7 09 26 15 21 29 23 05
  20968633.464   -18695705.915 9 -14543832.44447  20968636.745    20968643.2034
  24650348.347     -434052.709 7   -315786.36145  24650352.597    24650360.7424
  23039811.522    -6753191.842 8  -5232419.46746  23039818.590    23039827.0184
  21870170.134   -16904411.293 8 -13151320.14347  21870174.750    21870182.9684
  21715674.711   -16282737.402 8 -12673807.33447  21715678.871    21715685.4824
  20640069.262   -22443152.462 9 -17470745.15748  20640071.901    20640078.3894
  24337874.480    -1302636.522 7  -1004832.97745  24337877.280    24337889.1054
 00  5  3  2  6 30.0000000  0  7 09 26 15 21 29 23 05
  20976108.150   -18656428.870 9 -14513226.94147  20976111.233    20976117.9254
  24668093.666     -340814.149 7   -243133.01545  24668095.370    24668103.9664
  23023101.539    -6841048.010 8  -5300878.76246  23023099.237    23023107.8674
  21856345.008   -16977064.554 8 -13207933.01247  21856349.779    21856357.7344
  21705707.463   -16335117.274 8 -12714622.76647  21705711.069    21705717.8414
  20639120.467   -22448140.861 9 -17474632.19948  20639122.521    20639129.0494
  24322728.585    -1382232.167 7  -1066855.27845  24322730.955    24322741.7904
 00  5  3  2  7  0.0000000  0  7 09 26 15 21 29 23 05
  20983693.334   -18616567.490 9 -14482166.10247  20983696.758    20983703.1844
  24685822.409     -247627.043 7   -170519.74445  24685828.597    24685837.9914
  23006447.362    -6928524.855 8  -5369042.43646  23006453.967    23006461.9404
  21842548.064   -17049581.841 9 -13264439.92847  21842550.132    21842557.6934
  21695782.722   -16387262.304 8 -12755255.20447  21695788.332    21695795.0334
  20638227.687   -22452828.702 9 -17478285.04748  20638230.342    20638237.0354
  24307589.643    -1461737.303 7  -1128807.06745  24307599.952    24307613.8294
 00  5  3  2  7 30.0000000  0  7 09 26 15 21 29 23 05
  20991390.905   -18576123.588 9 -14450651.35147  20991392.856    20991399.2904
  24703540.460     -154492.112 7    -97947.10145  24703552.459    24703559.0444
  22989873.299    -7015619.412 8  -5436908.24146  22989880.159    22989887.5784
  21828772.975   -17121961.347 9 -13320839.49147  21828777.453    21828784.7414
  21685904.285   -16439172.415 8 -12795704.59647  21685910.159    21685917.6324
  20637392.223   -22457214.848 9 -17481702.80248  20637395.804    20637402.3834
  24292491.960    -1541148.779 7  -1190685.86045  24292488.788    24292502.8764
 00  5  3  2  8  0.0000000  0  7 09 26 15 21 29 23 05
  20999196.755   -18535098.801 9 -14418683.96247  20999199.412    20999206.2074
  24721262.740      -61409.992 7    -25415.65445  24721263.778    24721272.1204
  22973378.328    -7102329.155 8  -5504474.24246  22973378.224    22973387.6284
  21815026.664   -17194201.670 9 -13377130.58947  21815030.188    21815037.0184
  21676074.102   -16490848.149 8 -12835971.34647  21676076.688    21676083.5234
  20636616.328   -22461298.157 9 -17484884.58248  20636618.761    20636625.1094
  24277385.213    -1620463.654 7  -1252489.38445  24277396.796    24277407.0644
 00  5  3  2  8 30.0000000  0  7 09 26 15 21 29 23 05
  21007115.402   -18493495.073 9 -14386265.45847  21007116.433    21007123.0374
  24738956.291       31618.476 7     47073.97245  24738967.615    24738974.8044
  22956952.692    -7188651.552 8  -5571738.33846  22956952.426    22956961.5094
  21801310.519   -17266301.058 9 -13433311.87647  21801310.245    21801317.0574
  21666284.838   -16542289.439 8 -12876055.41847  21666287.407    21666294.8364
  20635896.463   -22465077.505 9 -17487829.51148  20635899.219    20635905.9964
  24262323.877    -1699678.950 7  -1314215.35045  24262320.019    24262332.2314
 00  5  3  2  9  0.0000000  0  7 09 26 15 21 29 23 05
  21015140.078   -18451314.139 9 -14353397.17847  21015143.266    21015149.9774
  24756666.454      124592.563 7    119521.28045  24756659.121    24756666.8284
  22940596.026    -7274583.279 8  -5638698.05946  22940600.766    22940609.0464
  21787613.324   -17338257.761 9 -13489381.97747  21787616.298    21787624.2634
  21656538.695   -16593496.391 8 -12915956.89647  21656542.988    21656550.8544
  20635235.566   -22468551.778 9 -17490536.71848  20635238.085    20635244.9834
  24247265.167    -1778791.810 7  -1375861.45445  24247265.535    24247278.6594
 00  5  3  2  9 30.0000000  0  7 09 26 15 21 29 23 05
  21023276.989   -18408557.802 9 -14320080.53447  21023279.698    21023285.9224
  24774342.685      217511.614 7    191925.70445  24774341.977    24774350.1354
  22924321.186    -7360121.515 8  -5705351.17746  22924322.737    22924332.3064
  21773946.880   -17410069.980 9 -13545339.49947  21773951.212    21773958.6564
  21646840.278   -16644469.122 8 -12955675.85147  21646843.627    21646850.0084
  20634633.009   -22471719.688 9 -17493005.20548  20634635.193    20634641.9364
  24232230.792    -1857799.151 7  -1437425.33945  24232232.742    24232244.5504
 00  5  3  2 10  0.0000000  0  7 09 26 15 21 29 23 05
  21031524.003   -18365227.861 9 -14286316.93247  21031525.348    21031531.5914
  24792015.227      310375.026 7    264286.72045  24792013.828    24792021.6104
  22908116.784    -7445263.588 8  -5771695.56646  22908119.745    22908130.6694
  21760311.773   -17481735.960 9 -13601183.06647  21760313.393    21760321.3624
  21637185.064   -16695207.773 8 -12995212.39447  21637187.970    21637195.9354
  20634087.547   -22474580.008 9 -17495234.01048  20634091.078    20634097.5054
  24217217.379    -1936697.797 7  -1498904.55245  24217218.127    24217229.9614
 00  5  3  2 10 30.0000000  0  6 09 15 21 29 23 05
  21039876.827   -18321326.193 9 -14252107.82247  21039879.177    21039885.8274
  22891986.310    -7530006.557 8  -5837728.96546  22891993.685    22892002.8114
  21746701.123   -17553253.609 9 -13656911.04747  21746703.921    21746711.7744
  21627574.397   -16745712.546 8 -13034566.72347  21627577.623    21627585.3974
  20633601.880   -22477131.587 9 -17497222.23648  20633605.236    20633612.1414
  24202219.853    -2015484.898 7  -1560296.87745  24202224.304    24202235.9354
 00  5  3  2 11  0.0000000  0  6 09 15 21 29 23 05
  21048339.533   -18276854.951 9 -14217454.88547  21048342.239    21048348.1424
  22875944.440    -7614347.557 8  -5903449.15846  22875944.828    22875953.6944
  21733121.128   -17624621.477 9 -13712522.32047  21733122.713    21733130.9694
  21618004.681   -16795983.679 8 -13073738.97047  21618010.661    21618018.1424
  20633176.237   -22479373.363 9 -17498969.06148  20633178.766    20633185.5714
  24187251.710    -2094157.388 7  -1621599.93445  24187252.830    24187264.8444
 00  5  3  2 11 30.0000000  0  6 09 15 21 29 23 05
  21056907.767   -18231815.999 9 -14182359.57947  21056912.925    21056919.1334
  22859966.991    -7698284.020 8  -5968854.13146  22859972.260    22859981.6504
  21719565.473   -17695837.275 9 -13768015.10547  21719570.987    21719578.5974
  21608487.717   -16846020.959 8 -13112729.00647  21608489.191    21608496.4824
  20632809.622   -22481304.183 9 -17500473.58048  20632811.391    20632818.2144
  24172301.789    -2172712.209 7  -1682811.21845  24172305.144    24172316.6074
 00  5  3  2 12  0.0000000  0  6 09 15 21 29 23 05
  21065589.403   -18186211.064 9 -14146823.25047  21065590.739    21065596.9254
  22844075.676    -7781813.235 8  -6033941.77745  22844076.003    22844082.8904
  21706045.497   -17766899.922 9 -13823388.55147  21706048.339    21706056.3604
  21599010.353   -16895824.843 8 -13151537.17047  21599012.057    21599019.5864
  20632500.309   -22482922.889 9 -17501734.89448  20632503.344    20632509.6294
  24157379.642    -2251146.431 7  -1743928.55045  24157379.310    24157391.0244
 00  5  3  2 12 30.0000000  0  6 09 15 21 29 23 05
  21074373.433   -18140041.986 9 -14110847.31547  21074376.299    21074382.8074
  22828253.625    -7864932.218 8  -6098709.76746  22828258.592    22828268.3844
  21692551.299   -17837807.326 9 -13878641.01347  21692554.713    21692562.8654
  21589576.239   -16945395.481 8 -13190163.58047  21589578.615    21589586.5764
  20632252.254   -22484228.356 9 -17502752.12648  20632255.199    20632261.5174
  24142472.415    -2329456.992 7  -1804949.49245  24142475.631    24142486.6354
 00  5  3  2 13  0.0000000  0  6 09 15 21 29 23 05
  21083263.577   -18093310.856 9 -14074433.43147  21083268.776    21083275.5914
  22812521.242    -7947638.230 8  -6163155.88746  22812521.720    22812530.0014
  21679090.006   -17908557.760 9 -13933771.17047  21679091.246    21679099.2474
  21580187.102   -16994732.832 8 -13228608.20847  21580190.127    21580197.4874
  20632064.246   -22485219.192 9 -17503524.19148  20632066.391    20632073.1414
  24127602.369    -2407640.685 8  -1865871.64445  24127598.501    24127609.7864
 00  5  3  2 13 30.0000000  0  6 09 15 21 29 23 05
  21092265.871   -18046019.963 9 -14037583.38647  21092268.411    21092274.0934
  22796855.671    -8029928.398 8  -6227278.06546  22796860.957    22796868.7534
  21665653.539   -17979149.237 9 -13988777.46847  21665658.165    21665666.4694
  21570844.513   -17043837.358 9 -13266871.42047  21570846.092    21570853.1624
  20631935.522   -22485894.264 9 -17504050.20648  20631937.682    20631945.0624
  24112742.347    -2485694.413 7  -1926692.53245  24112745.741    24112757.3324
 00  5  3  2 14  0.0000000  0  6 09 15 21 29 23 05
  21101370.410   -17998171.107 9 -14000298.54847  21101373.916    21101379.7404
  22781282.843    -8111800.367 8  -6291074.27046  22781282.854    22781289.0334
  21652251.743   -18049580.258 9 -14043658.73047  21652255.458    21652262.8274
  21561543.485   -17092708.946 9 -13304953.12547  21561546.513    21561552.4074
  20631865.524   -22486252.475 9 -17504329.32348  20631869.558    20631876.7264
  24097915.507    -2563615.280 7  -1987409.82245  24097918.368    24097928.8844
 00  5  3  2 14 30.0000000  0  6 09 15 21 29 23 05
  21110580.627   -17949766.191 9 -13962580.40947  21110584.268    21110590.3254
  22765780.965    -8193250.884 8  -6354542.18646  22765783.513    22765787.8254
  21638880.607   -18119848.709 9 -14098413.32547  21638884.050    21638891.2844
  21552288.456   -17141347.993 9 -13342853.62447  21552290.575    21552296.4534
  20631860.956   -22486292.821 9 -17504360.75348  20631862.199    20631869.0564
  24083124.861    -2641400.189 7  -2048021.16745  24083115.688    24083127.7324
 00  5  3  2 15  0.0000000  0  6 09 15 21 29 23 05
  21119897.860   -17900807.119 9 -13924430.46747  21119900.836    21119907.5944
  22750354.534    -8274277.475 8  -6417679.73646  22750362.774    22750371.4294
  21625540.527   -18189952.808 9 -14153039.85247  21625543.214    21625550.9564
  21543075.925   -17189754.495 9 -13380572.93247  21543078.746    21543085.5354
  20631912.582   -22486014.095 9 -17504143.54748  20631914.996    20631921.9144
  24068342.820    -2719046.084 7  -2108524.22845  24068339.305    24068350.6194
 00  5  3  2 15 30.0000000  0  6 09 15 21 29 23 05
  21129319.202   -17851296.136 9 -13885850.46747  21129322.844    21129328.7464
  22735021.271    -8354877.320 8  -6480484.71346  22735026.065    22735034.7054
  21612229.892   -18259890.837 9 -14207536.96747  21612234.951    21612242.3044
  21533907.989   -17237928.610 9 -13418111.14747  21533911.583    21533917.7784
  20632024.955   -22485415.163 9 -17503676.83948  20632029.062    20632035.9634
  24053588.478    -2796549.942 7  -2168916.65045  24053591.306    24053601.3634
 00  5  3  2 16  0.0000000  0  6 09 15 21 29 23 05
  21138845.291   -17801235.328 9 -13846842.03747  21138848.833    21138855.8854
  22719769.575    -8435047.943 8  -6542955.24446  22719769.748    22719776.1544
  21598954.631   -18329660.703 9 -14261903.04947  21598958.907    21598966.2754
  21524787.163   -17285870.665 9 -13455468.54247  21524788.595    21524795.6134
  20632201.833   -22484494.906 9 -17502959.73948  20632203.809    20632210.9444
  24038869.327    -2873909.024 8  -2229196.18445  24038869.688    24038879.9684
 00  5  3  2 16 30.0000000  0  6 09 15 21 29 23 05
  21148476.213   -17750626.845 9 -13807406.84147  21148479.292    21148485.9604
  22704594.575    -8514786.489 8  -6605089.13746  22704596.416    22704602.6414
  21585712.717   -18399260.940 9 -14316136.95147  21585714.164    21585721.3244
  21515708.101   -17333580.781 9 -13492645.20047  21515709.995    21515716.4394
  20632436.793   -22483252.192 9 -17501991.37648  20632440.290    20632447.2784
  24024176.805    -2951120.106 8  -2289360.43345  24024177.440    24024188.4934
 00  5  3  2 17  0.0000000  0  6 09 15 21 29 23 05
  21158212.327   -17699472.751 9 -13767546.48747  21158214.081    21158220.2404
  22689502.643    -8594090.242 8  -6666884.23346  22689506.721    22689512.6974
  21572498.326   -18468689.672 9 -14370237.21747  21572502.148    21572509.4024
  21506671.566   -17381059.168 9 -13529641.28047  21506674.789    21506680.4484
  20632735.018   -22481685.902 9 -17500770.87948  20632738.551    20632745.1234
  24009497.341    -3028180.064 7  -2349406.94445  24009512.299    24009524.4144
 00  5  3  2 17 30.0000000  0  6 09 15 21 29 23 05
  21168047.352   -17647775.098 9 -13727262.59447  21168051.228    21168058.1874
  22674493.094    -8672956.796 8  -6728338.58146  22674497.350    22674505.4684
  21559318.966   -18537944.861 9 -14424202.25147  21559322.827    21559330.5394
  21497681.468   -17428305.945 9 -13566456.90847  21497684.023    21497689.2394
  20633096.254   -22479794.834 9 -17499297.31148  20633098.345    20633105.2814
  23994886.865    -3105085.992 8  -2409333.42545  23994879.737    23994888.5604
 00  5  3  2 18  0.0000000  0  6 09 15 21 29 23 05
  21177987.194   -17595536.170 9 -13686556.93647  21177991.953    21177998.7834
  22659570.345    -8751383.128 8  -6789449.95646  22659573.443    22659581.5064
  21546175.602   -18607024.462 9 -14478030.46247  21546177.271    21546184.3354
  21488735.537   -17475321.321 9 -13603092.21947  21488737.005    21488742.7254
  20633516.306   -22477578.023 9 -17497569.91348  20633520.108    20633527.1984
  23980270.850    -3181834.708 8  -2469137.38545  23980272.932    23980282.7934
 00  5  3  2 18 30.0000000  0  6 09 15 21 29 23 05
  21188028.999   -17542758.123 9 -13645431.16747  21188035.087    21188041.7784
  22644730.522    -8829366.650 8  -6850216.24246  22644733.730    22644742.4034
  21533061.515   -18675927.312 9 -14531720.96447  21533065.532    21533073.0034
  21479831.586   -17522105.422 9 -13639547.31047  21479833.965    21479840.9254
  20634003.262   -22475034.204 9 -17495587.70148  20634004.220    20634011.1034
  23965688.779    -3258423.104 8  -2528816.44145  23965697.997    23965709.4204
 00  5  3  2 19  0.0000000  0  6 09 15 21 29 23 05
  21198176.225   -17489443.163 9 -13603887.03647  21198180.201    21198187.1914
  22629978.499    -8906904.650 8  -6910635.42346  22629979.859    22629986.9754
  21519987.216   -18744651.117 9 -14585271.93047  21519988.215    21519995.6334
  21470970.489   -17568658.607 9 -13675822.46847  21470975.512    21470982.5234
  20634548.317   -22472162.501 9 -17493350.00648  20634550.893    20634557.8294
  23951158.518    -3334848.273 8  -2588368.34245  23951155.136    23951166.6634
 00  5  3  2 19 30.0000000  0  6 09 15 21 29 23 05
  21208425.745   -17435593.242 9 -13561926.03947  21208427.979    21208434.9684
  22615306.006    -8983994.572 8  -6970705.39146  22615308.985    22615317.2824
  21506941.375   -18813193.574 9 -14638681.58547  21506944.637    21506952.2784
  21462157.676   -17614980.928 9 -13711917.72747  21462160.433    21462167.2964
  20635157.169   -22468961.649 9 -17490855.82948  20635159.820    20635166.9544
  23936639.387    -3411107.103 8  -2647790.54545  23936643.674    23936654.4444
 00  5  3  2 20  0.0000000  0  6 09 15 21 29 23 05
  21218775.281   -17381210.712 9 -13519550.03047  21218776.656    21218783.3254
  22600721.327    -9060633.686 8  -7030424.14146  22600725.637    22600732.1524
  21493932.640   -18881553.010 9 -14691948.63747  21493936.128    21493943.3954
  21453385.377   -17661072.685 8 -13747833.33447  21453389.342    21453396.3124
  20635829.048   -22465430.608 9 -17488104.35848  20635831.844    20635838.8504
  23922155.109    -3487196.584 7  -2707080.82345  23922163.280    23922174.6174
 00  5  3  2 20 30.0000000  0  6 09 15 21 29 23 05
  21229223.935   -17326297.769 9 -13476760.70847  21229226.595    21229233.2834
  22586226.479    -9136819.369 8  -7089789.54346  22586227.504    22586236.0004
  21480960.477   -18949727.465 9 -14745071.55347  21480962.573    21480970.2334
  21444659.561   -17706933.992 9 -13783569.36447  21444662.343    21444668.4144
  20636564.222   -22461568.244 9 -17485094.71448  20636567.083    20636573.5454
  23907716.953    -3563113.750 8  -2766236.79145  23907716.534    23907728.0614
 00  5  3  2 21  0.0000000  0  6 09 15 21 29 23 05
  21239777.457   -17270856.546 9 -13433559.74247  21239776.374    21239783.0724
  22571814.388    -9212548.796 8  -7148799.39546  22571816.949    22571825.1314
  21468021.069   -19017714.852 9 -14798048.69447  21468025.602    21468032.4624
  21435974.706   -17752564.874 9 -13819125.85247  21435979.160    21435985.0514
  20637361.782   -22457373.464 9 -17481826.04148  20637365.265    20637372.0894
  23893302.312    -3638855.434 8  -2825256.05245  23893304.821    23893314.7164
 00  5  3  2 21 30.0000000  0  6 09 15 21 29 23 05
  21250420.963   -17214889.411 9 -13389948.97947  21250425.944    21250433.9124
  22557492.062    -9287819.463 8  -7207451.80846  22557493.892    22557500.9794
  21455122.299   -19085513.592 9 -14850878.85347  21455123.714    21455131.1264
  21427337.847   -17797965.799 8 -13854503.14047  21427338.887    21427346.0544
  20638224.729   -22452845.114 9 -17478297.44648  20638226.785    20638233.7694
  23878919.878    -3714418.523 8  -2884136.19245  23878923.598    23878935.6094
 00  5  3  2 22  0.0000000  0  6 09 15 21 29 23 05
  21261174.276   -17158398.714 9 -13345930.23847  21261176.240    21261183.0494
  22543257.028    -9362629.007 8  -7265744.89546  22543257.341    22543266.6644
  21442257.073   -19153121.777 9 -14903560.51447  21442258.308    21442265.7104
  21418737.496   -17843136.895 8 -13889701.34447  21418742.973    21418750.0434
  20639148.772   -22447982.184 9 -17474508.14148  20639152.257    20639159.0204
  23864584.901    -3789800.015 8  -2942874.77445  23864579.171    23864590.5544
 00  5  3  2 22 30.0000000  0  6 09 15 21 29 23 05
  21272023.072   -17101386.638 9 -13301505.22547  21272025.867    21272032.2474
  22529106.586    -9436974.691 8  -7323676.51146  22529110.152    22529118.3714
  21429424.982   -19220537.168 9 -14956091.95247  21429429.384    21429437.2014
  21410189.642   -17888078.296 8 -13924720.55747  21410191.103    21410197.8014
  20640139.947   -22442783.731 9 -17470457.38748  20640141.406    20640148.1784
  23850262.098    -3864996.920 8  -3001469.53345  23850270.283    23850280.8544
 00  5  3  2 23  0.0000000  0  6 09 15 21 29 23 05
  21282971.447   -17043855.376 9 -13256675.65947  21282972.940    21282980.0584
  22515052.341    -9510853.834 8  -7381244.62746  22515052.001    22515059.6464
  21416634.320   -19287758.383 9 -15008472.08047  21416637.836    21416644.7914
  21401679.933   -17932790.361 9 -13959561.07547  21401682.803    21401689.4244
  20641193.341   -22437248.572 9 -17466144.26648  20641194.880    20641201.2384
  23835996.202    -3940006.437 8  -3059918.31145  23835997.033    23836005.9834
 00  5  3  2 23 30.0000000  0  6 09 15 21 29 23 05
  21294013.879   -16985807.254 9 -13211443.34347  21294019.252    21294026.3314
  22501077.952    -9584264.019 8  -7438447.28946  22501081.517    22501090.2464
  21403880.076   -19354783.258 9 -15060699.22247  21403883.258    21403890.3064
  21393213.843   -17977273.278 9 -13994223.03747  21393217.873    21393224.5854
  20642310.183   -22431375.648 9 -17461567.95348  20642312.682    20642318.9844
  23821757.075    -4014825.306 8  -3118218.54445  23821758.205    23821768.6614
 00  5  3  2 24  0.0000000  0  6 09 15 21 29 23 05
  21305163.010   -16927244.587 9 -13165810.07947  21305164.136    21305170.3504
  22487196.659    -9657202.652 8  -7495282.54146  22487201.412    22487209.3624
  21391165.825   -19421609.196 9 -15112771.33447  21391166.629    21391173.8344
  21384794.887   -18021527.150 9 -14028706.52147  21384797.160    21384803.3894
  20643492.113   -22425163.801 9 -17456727.53948  20643494.699    20643501.1604
  23807547.438    -4089450.434 8  -3176367.76545  23807557.060    23807566.9484
 00  5  3  2 24 30.0000000  0  6 09 15 21 29 23 05
  21316403.070   -16868169.904 9 -13119777.83447  21316405.287    21316412.2234
  22473409.926    -9729667.181 8  -7551748.36846  22473412.276    22473421.0504
  21378486.463   -19488235.029 9 -15164687.53247  21378488.479    21378495.2024
  21376415.547   -18065552.181 9 -14063011.69547  21376419.053    21376425.5784
  20644739.768   -22418612.079 9 -17451622.28648  20644741.610    20644748.0194
  23793393.499    -4163878.761 8  -3234363.66745  23793393.237    23793404.2554
 00  5  3  2 25  0.0000000  0  6 09 15 21 29 23 05
  21327741.266   -16808585.630 9 -13073348.52347  21327743.733    21327750.6674
  22459713.347    -9801654.998 8  -7607842.70246  22459713.800    22459722.0834
  21365844.454   -19554658.163 9 -15216445.77747  21365848.191    21365855.9624
  21368080.827   -18109348.764 9 -14097138.84547  21368085.022    21368091.1604
  20646050.565   -22411719.395 9 -17446251.35448  20646052.911    20646059.7194
  23779264.547    -4238107.298 8  -3292203.87945  23779269.354    23779278.7544
 00  5  3  2 25 30.0000000  0  6 09 15 21 29 23 05
  21339173.339   -16748494.034 9 -13026523.88547  21339178.905    21339185.5274
  22446106.147    -9873163.675 8  -7663563.68146  22446105.913    22446112.6224
  21353243.237   -19620876.760 9 -15268044.64047  21353247.768    21353254.4504
  21359790.583   -18152916.783 9 -14131087.89947  21359794.244    21359800.7824
  20647427.716   -22404484.749 9 -17440613.96248  20647429.401    20647436.5744
  23765183.384    -4312132.972 8  -3349886.05445  23765182.133    23765192.2274
 00  5  3  2 26  0.0000000  0  6 09 15 21 29 23 05
  21350709.573   -16687897.444 9 -12979305.75347  21350709.875    21350716.0894
  22432586.150    -9944190.561 8  -7718909.24346  22432589.604    22432597.9574
  21340679.961   -19686888.906 9 -15319482.64747  21340686.071    21340692.5274
  21351543.680   -18196256.736 9 -14164859.25047  21351546.847    21351553.5334
  20648868.134   -22396907.218 9 -17434709.39148  20648871.459    20648878.3454
  23751134.715    -4385952.905 8  -3407407.91345  23751134.846    23751144.7334
 00  5  3  2 26 30.0000000  0  6 09 15 21 29 23 05
  21362330.167   -16626798.084 9 -12931695.84547  21362336.567    21362342.6304
  22419161.203   -10014733.172 8  -7773877.44446  22419164.795    22419172.4264
  21328161.936   -19752692.641 9 -15370758.25047  21328164.109    21328170.4454
  21343342.634   -18239368.661 9 -14198452.90647  21343342.296    21343349.4384
  20650375.656   -22388985.696 9 -17428536.76948  20650378.960    20650385.8334
  23737120.046    -4459564.075 8  -3464767.04945  23737126.520    23737136.0574
 00  5  3  2 27  0.0000000  0  6 09 15 21 29 23 05
  21374055.335   -16565198.638 9 -12883696.27347  21374058.460    21374064.5474
  22405831.828   -10084788.885 8  -7828466.27446  22405834.892    22405841.8894
  21315679.989   -19818285.960 9 -15421869.89347  21315681.836    21315688.3714
  21335178.735   -18282253.063 9 -14231869.26547  21335181.832    21335188.3554
  20651948.923   -22380719.092 9 -17422095.24948  20651952.088    20651958.6864
  23723158.480    -4532963.338 8  -3521961.10445  23723158.808    23723169.2654
 00  5  3  2 27 30.0000000  0  6 09 15 21 29 23 05
  21385873.948   -16503101.559 9 -12835308.92647  21385874.933    21385881.6244
  22392595.219   -10154355.388 8  -7882673.86446  22392595.597    22392604.4894
  21303237.482   -19883666.733 9 -15472815.91047  21303240.330    21303247.2024
  21327062.744   -18324909.910 9 -14265108.32947  21327065.035    21327071.1084
  20653588.548   -22372106.424 9 -17415384.08048  20653590.883    20653597.4134
  23709226.978    -4606147.652 8  -3578987.68645  23709232.199    23709243.6324
 00  5  3  2 28  0.0000000  0  6 09 15 21 29 23 05
  21397780.868   -16440509.143 9 -12786535.61247  21397786.087    21397792.3604
  22379447.561   -10223430.304 8  -7936498.41246  22379451.863    22379459.1864
  21290835.025   -19948833.244 9 -15523594.96547  21290839.434    21290846.5334
  21318988.270   -18367339.424 9 -14298170.24247  21318991.036    21318997.1404
  20655292.472   -22363146.739 9 -17408402.49948  20655295.712    20655302.5604
  23695345.907    -4679114.076 8  -3635844.44345  23695346.300    23695357.9334
 00  5  3  2 28 30.0000000  0  6 09 15 21 29 23 05
  21409788.527   -16377423.848 9 -12737378.22447  21409790.997    21409797.8324
  22366397.396   -10292011.128 8  -7989937.98546  22366401.001    22366409.4964
  21278478.381   -20013783.275 9 -15574205.34447  21278479.930    21278486.5034
  21310956.566   -18409541.964 9 -14331055.29547  21310960.075    21310965.8294
  20657064.896   -22353838.963 9 -17401149.68348  20657067.089    20657073.9574
  23681500.234    -4751859.403 8  -3692528.95345  23681504.384    23681514.5334
 00  5  3  2 29  0.0000000  0  6 09 15 21 29 23 05
  21421884.439   -16313848.183 9 -12687838.73247  21421888.919    21421895.4584
  22353443.735   -10360095.452 8  -8042990.59346  22353445.147    22353453.7214
  21266160.929   -20078515.162 9 -15624645.73847  21266162.286    21266168.5494
  21302968.388   -18451517.723 9 -14363763.63347  21302971.574    21302978.6494
  20658901.904   -22344182.065 9 -17393624.82348  20658904.790    20658911.3524
  23667703.274    -4824380.545 8  -3749038.75745  23667703.900    23667713.0894
 00  5  3  2 29 30.0000000  0  6 09 15 21 29 23 05
  21434076.747   -16249784.230 9 -12637918.75347  21434079.968    21434086.4244
  22340582.988   -10427680.853 8  -8095654.53046  22340584.026    22340590.2534
  21253881.871   -20143025.940 9 -15674913.83847  21253885.768    21253891.8484
  21295024.828   -18493266.875 9 -14396295.38547  21295026.854    21295033.7974
  20660806.866   -22334175.060 9 -17385827.14648  20660809.156    20660815.5404
  23653944.127    -4896674.832 8  -3805371.79845  23653946.615    23653956.3584
 00  5  3  2 30  0.0000000  0  6 09 15 21 29 23 05
  21446361.262   -16185234.682 9 -12587620.39947  21446362.970    21446369.6984
  22327814.029   -10494764.864 8  -8147927.74346  22327817.832    22327826.2774
  21241649.415   -20207314.209 9 -15725008.56047  21241652.252    21241658.6494
  21287122.248   -18534789.766 9 -14428650.84147  21287125.304    21287131.9474
  20662776.802   -22323817.018 9 -17377755.94148  20662779.713    20662786.5984
  23640232.005    -4968739.026 8  -3861525.57046  23640233.117    23640243.0684
 00  5  3  2 30 30.0000000  0  6 09 15 21 29 23 05
  21458736.416   -16120202.186 9 -12536945.71147  21458738.722    21458745.2324
  22315142.940   -10561345.129 8  -8199808.39246  22315146.997    22315156.3674
  21229460.082   -20271378.188 9 -15774928.51147  21229461.472    21229467.8744
  21279262.206   -18576086.407 9 -14460829.98747  21279266.756    21279273.7404
  20664814.456   -22313106.959 9 -17369410.43648  20664818.005    20664824.6854
  23626564.120    -5040570.204 8  -3917497.73446  23626563.363    23626573.8554
 00  5  3  2 31  0.0000000  0  6 09 15 21 29 23 05
  21471201.603   -16054689.282 9 -12485896.69947  21471205.284    21471211.5004
  22302570.379   -10627419.156 8  -8251294.60046  22302574.014    22302582.1344
  21217310.563   -20335215.443 9 -15824671.79747  21217313.650    21217320.6094
  21271447.358   -18617157.136 9 -14492833.10947  21271451.900    21271457.9784
  20666922.855   -22302043.992 9 -17360789.93848  20666923.377    20666929.8964
  23612937.444    -5112165.209 8  -3973285.89246  23612938.477    23612949.3054
 00  5  3  2 31 30.0000000  0  6 09 15 21 29 23 05
  21483758.811   -15988698.522 8 -12434475.30147  21483762.607    21483769.1684
  22290094.947   -10692984.480 8  -8302384.43346  22290097.751    22290105.8174
  21205207.002   -20398824.066 9 -15874236.92547  21205209.239    21205215.7834
  21263676.592   -18658002.139 9 -14524660.33647  21263679.497    21263685.6414
  20669092.393   -22290627.082 9 -17351893.64248  20669095.854    20669102.4374
  23599361.859    -5183520.970 8  -4028887.62646  23599361.203    23599370.7684
 00  5  3  2 32  0.0000000  0  6 09 15 21 29 23 05
  21496407.375   -15922232.034 9 -12382683.23647  21496411.270    21496417.4874
  22277715.892   -10758039.023 8  -8353076.19946  22277716.936    22277726.1874
  21193146.532   -20462202.146 9 -15923622.41347  21193148.565    21193155.2444
  21255944.827   -18698621.841 9 -14556312.01147  21255949.653    21255956.1714
  20671332.536   -22278855.376 9 -17342720.88748  20671335.916    20671342.6754
  23585822.439    -5254634.406 8  -4084300.54546  23585827.558    23585837.6454
 00  5  3  2 32 30.0000000  0  6 09 15 21 29 23 05
  21509146.873   -15855292.494 9 -12330522.53447  21509149.392    21509155.8104
  22265431.700   -10822580.573 8  -8403368.28146  22265435.442    22265443.6614
  21181130.006   -20525347.288 9 -15972826.38847  21181132.066    21181138.6784
  21248258.949   -18739016.235 9 -14587788.11847  21248262.414    21248268.8344
  20673641.057   -22266727.736 9 -17333270.78548  20673643.676    20673650.4054
  23572334.092    -5325502.996 8  -4139522.66645  23572341.319    23572351.9164
 00  5  3  2 33  0.0000000  0  6 09 15 21 29 23 05
  21521974.440   -15787882.695 9 -12277995.42047  21521977.091    21521983.2894
  22253248.425   -10886606.412 8  -8453258.48646  22253251.680    22253259.5464
  21169156.499   -20588258.017 9 -16021847.70147  21169160.156    21169167.2094
  21240615.007   -18779185.598 9 -14619088.86947  21240618.430    21240625.2214
  20676015.182   -22254243.305 9 -17323542.66148  20676019.229    20676026.0624
  23558904.858    -5396123.570 8  -4194551.55445  23558903.561    23558912.4464
 00  5  3  2 33 30.0000000  0  6 09 15 21 29 23 05
  21534888.461   -15720005.023 9 -12225103.71647  21534893.357    21534899.8194
  22241166.510   -10950114.425 8  -8502745.18846  22241167.986    22241174.4444
  21157232.876   -20650931.718 9 -16070684.33047  21157234.044    21157241.1814
  21233013.753   -18819130.326 9 -14650214.59047  21233017.808    21233024.1204
  20678460.953   -22241401.196 9 -17313535.81548  20678463.099    20678469.9974
  23545512.350    -5466493.251 8  -4249384.92746  23545512.797    23545521.9174
 00  5  3  2 34  0.0000000  0  6 09 15 21 29 23 05
  21547894.526   -15651661.967 9 -12171849.36447  21547898.451    21547905.4394
  22229177.094   -11013102.430 8  -8551826.71446  22229180.755    22229188.4984
  21145350.688   -20713366.416 9 -16119334.71647  21145353.070    21145360.1324
  21225454.825   -18858850.545 9 -14681165.36447  21225458.656    21225465.1854
  20680971.403   -22228200.486 9 -17303249.54948  20680975.186    20680981.8284
  23532170.504    -5536608.793 8  -4304020.29646  23532169.680    23532179.4624
 00  5  3  2 34 30.0000000  0  6 09 15 21 29 23 05
  21560988.635   -15582855.932 9 -12118234.26447  21560992.174    21560999.0054
  22217291.404   -11075568.120 8  -8600501.20846  22217294.038    22217301.9044
  21133513.745   -20775559.985 9 -16167797.20547  21133517.783    21133524.8224
  21217939.097   -18898346.444 9 -14711941.35147  21217942.894    21217949.1564
  20683552.686   -22214640.282 9 -17292683.16548  20683555.606    20683562.1474
  23518866.637    -5606467.146 8  -4358455.23546  23518875.823    23518886.6624
 00  5  3  2 35  0.0000000  0  6 09 15 21 29 23 05
  21574174.703   -15513589.678 8 -12064260.55147  21574172.777    21574179.5864
  22205501.637   -11137509.009 8  -8648766.77146  22205506.195    22205515.1974
  21121726.546   -20837510.407 9 -16216070.23347  21121729.159    21121735.8714
  21210469.036   -18937618.249 9 -14742542.71747  21210469.766    21210475.9304
  20686201.604   -22200719.576 9 -17281835.86148  20686204.466    20686211.4914
  23505634.135    -5676065.509 8  -4412687.59445  23505631.425    23505641.4554
 00  5  3  2 35 30.0000000  0  6 09 15 21 29 23 05
  21587441.280   -15443866.006 9 -12009930.41647  21587441.100    21587447.9294
  22193820.900   -11198922.761 8  -8696621.59846  22193820.781    22193828.4784
  21109981.534   -20899216.107 9 -16264152.57447  21109987.082    21109993.7074
  21203035.133   -18976666.374 9 -14772969.78047  21203039.093    21203045.4284
  20688919.321   -22186437.549 9 -17270707.01048  20688922.179    20688929.4224
  23492431.474    -5745400.764 8  -4466714.93245  23492437.566    23492447.6454
 00  5  3  2 36  0.0000000  0  6 09 15 21 29 23 05
  21600793.137   -15373687.333 9 -11955245.71947  21600795.720    21600802.0564
  22182228.588   -11259807.195 8  -8744063.97346  22182233.956    22182244.2474
  21098290.392   -20960674.406 9 -16312042.12847  21098292.323    21098298.5504
  21195649.611   -19015491.026 9 -14803222.72347  21195651.322    21195657.0894
  20691706.220   -22171793.150 9 -17259295.79448  20691709.270    20691716.3524
  23479291.500    -5814469.881 8  -4520534.90345  23479294.346    23479303.6334
 00  5  3  2 36 30.0000000  0  6 09 15 21 29 23 05
  21614231.909   -15303056.291 9 -11900208.53047  21614236.138    21614243.1414
  22170747.620   -11320160.421 8  -8791092.38246  22170749.980    22170758.0504
  21086641.759   -21021882.769 9 -16359736.92247  21086644.629    21086651.2274
  21188302.655   -19054092.271 9 -14833301.57847  21188305.606    21188310.9934
  20694565.516   -22156785.370 9 -17247601.43348  20694565.289    20694571.7604
  23466202.449    -5883269.899 8  -4574145.19646  23466203.409    23466210.8904
 00  5  3  2 37  0.0000000  0  6 09 15 21 29 23 05
  21627758.017   -15231975.530 9 -11844820.91847  21627762.815    21627769.2794
  22159358.237   -11379980.218 8  -8837705.18146  22159364.218    22159374.5474
  21075041.828   -21082839.447 9 -16407235.59947  21075044.340    21075051.6794
  21180998.393   -19092470.332 9 -14863206.51647  21181002.144    21181008.0314
  20697487.122   -22141413.565 9 -17235623.40048  20697490.387    20697496.7184
  23453157.729    -5951797.829 8  -4627543.48245  23453161.219    23453170.2364
 00  5  3  2 37 30.0000000  0  6 09 15 21 29 23 05
  21641370.459   -15160447.723 9 -11789084.94747  21641373.797    21641380.8724
  22148081.296   -11439264.307 8  -8883900.53646  22148083.986    22148092.1934
  21063490.078   -21143542.611 9 -16454536.73747  21063492.708    21063500.1124
  21173739.445   -19130625.604 9 -14892937.86847  21173741.838    21173747.7314
  20700483.675   -22125676.865 9 -17223361.03848  20700484.968    20700491.3334
  23440168.473    -6020050.912 8  -4680727.56845  23440172.244    23440183.1314
 00  5  3  2 38  0.0000000  0  6 09 15 21 29 23 05
  21655063.391   -15088475.452 8 -11733002.67447  21655069.565    21655076.5624
  22136903.015   -11498010.656 8  -8929676.84346  22136905.309    22136913.7894
  21051985.757   -21203989.751 9 -16501638.38547  21051990.183    21051997.5414
  21166521.028   -19168558.280 9 -14922495.75947  21166523.606    21166529.3214
  20703546.509   -22109574.443 9 -17210813.70248  20703549.157    20703555.6534
  23427230.455    -6088026.246 8  -4733695.22846  23427237.346    23427247.3244
 00  5  3  2 38 30.0000000  0  6 09 15 21 29 23 05
  21668847.173   -15016061.253 9 -11676576.02647  21668849.983    21668855.7444
  22125821.135   -11556216.967 8  -8975032.34946  22125829.488    22125837.2924
  21040534.577   -21264179.135 9 -16548539.17547  21040536.451    21040543.7124
  21159344.863   -19206268.580 9 -14951880.37347  21159347.367    21159353.2164
  20706679.924   -22093105.415 9 -17197980.69048  20706682.822    20706689.7214
  23414356.279    -6155720.689 8  -4786444.03845  23414356.403    23414364.6394
 00  5  3  2 39  0.0000000  0  6 09 15 21 29 23 05
  21682709.805   -14943207.792 9 -11619807.07847  21682713.379    21682719.1634
  22114854.711   -11613881.252 8  -9019965.51546  22114856.831    22114863.6064
  21029127.130   -21324108.598 9 -16595237.44047  21029131.965    21029139.3964
  21152209.232   -19243756.703 9 -14981091.85447  21152212.971    21152219.5064
  20709882.977   -22076268.869 9 -17184861.30748  20709886.665    20709893.5354
  23401527.656    -6223131.178 8  -4838971.61346  23401528.715    23401537.0574
 00  5  3  2 39 30.0000000  0  6 09 15 21 29 23 05
  21696657.209   -14869917.685 8 -11562697.90247  21696659.635    21696666.4464
  22103986.309   -11671001.414 8  -9064474.67746  22103986.804    22103993.1154
  21017775.359   -21383776.080 9 -16641731.55747  21017777.699    21017785.0104
  21145119.001   -19281022.928 9 -15010130.42747  21145121.420    21145127.8234
  20713158.995   -22059063.953 9 -17171454.88248  20713160.829    20713167.6374
  23388745.675    -6290254.957 8  -4891275.74145  23388753.801    23388763.4914
 00  5  3  2 40  0.0000000  0  6 09 15 21 29 23 05
  21710686.396   -14796193.545 9 -11505250.51647  21710689.308    21710695.0834
  22093215.437   -11727575.324 8  -9108558.18146  22093219.971    22093228.7654
  21006472.048   -21443179.176 9 -16688019.66347  21006474.073    21006481.1434
  21138068.224   -19318067.666 9 -15038996.40947  21138071.700    21138078.6654
  20716501.093   -22041489.910 9 -17157760.82848  20716505.028    20716511.7004
  23376032.763    -6357089.190 8  -4943354.23746  23376036.679    23376047.4274
 00  5  3  2 40 30.0000000  0  6 09 15 21 29 23 05
  21724792.572   -14722038.139 8 -11447467.07247  21724800.060    21724806.3644
  22082559.077   -11783600.606 8  -9152214.21246  22082559.539    22082567.7364
  20995217.138   -21502315.825 9 -16734100.13847  20995220.619    20995227.7344
  21131061.882   -19354890.989 9 -15067689.87347  21131064.613    21131071.6194
  20719917.246   -22023545.911 9 -17143778.50448  20719919.687    20719926.7364
  23363371.848    -6423630.905 8  -4995204.81546  23363373.335    23363383.8224
 00  5  3  2 41  0.0000000  0  6 09 15 21 29 23 05
  21738990.244   -14647454.120 8 -11389349.64647  21738993.017    21738999.6084
  22072001.074   -11839075.209 8  -9195441.12046  22072003.642    22072012.4164
  20984014.439   -21561183.697 9 -16779971.19447  20984018.573    20984025.5864
  21124097.537   -19391492.930 9 -15096210.83047  21124099.814    21124106.3014
  20723402.734   -22005231.027 9 -17129507.16848  20723404.844    20723411.8484
  23350767.382    -6489877.202 8  -5046825.20646  23350767.789    23350776.6474
 00  5  3  2 41 30.0000000  0  6 09 15 21 29 23 05
  21753261.324   -14572444.142 8 -11330900.31547  21753266.616    21753273.6544
  22061548.822   -11893997.423 8  -9238237.60346  22061551.144    22061559.9154
  20972864.809   -21619780.861 9 -16825631.30847  20972867.990    20972874.7294
  21117173.658   -19427873.927 9 -15124559.63747  21117176.553    21117183.4734
  20726960.938   -21986544.578 9 -17114946.30448  20726961.092    20726967.7204
  23338213.179    -6555825.020 8  -5098213.01145  23338218.499    23338227.7414
 00  5  3  2 42  0.0000000  0  6 09 15 21 29 23 05
  21767621.429   -14497011.122 8 -11272121.34247  21767621.221    21767628.0644
  22051201.334   -11948365.298 8  -9280602.14046  22051205.876    22051213.3444
  20961767.844   -21678105.087 9 -16871078.73147  20961769.435    20961775.9104
  21110290.999   -19464034.319 9 -15152736.54447  21110295.919    21110302.1424
  20730583.896   -21967485.652 9 -17100095.20348  20730587.635    20730594.2914
  23325720.523    -6621471.467 8  -5149365.97646  23325725.806    23325735.6784
 00  5  3  2 42 30.0000000  0  6 09 15 21 29 23 05
  21782049.295   -14421157.563 8 -11213014.66547  21782055.602    21782062.8574
  22040965.857   -12002176.724 8  -9322533.08646  22040966.245    22040973.0324
  20950719.449   -21736154.394 9 -16916311.93647  20950723.104    20950729.1374
  21103452.824   -19499974.192 9 -15180741.62047  21103456.756    21103462.3014
  20734282.085   -21948053.492 9 -17084953.26548  20734285.344    20734291.9424
  23313287.969    -6686813.646 8  -5200281.88446  23313291.561    23313301.1314
 00  5  3  2 43  0.0000000  0  6 09 15 21 29 23 05
  21796563.540   -14344886.134 8 -11153582.38847  21796570.029    21796577.0104
  22030827.077   -12055429.729 8  -9364028.88446  22030831.335    22030839.3714
  20939725.966   -21793926.771 9 -16961329.35047  20939729.242    20939735.1264
  21096657.237   -19535694.106 9 -15208575.30247  21096659.467    21096664.6524
  20738052.966   -21928247.539 9 -17069520.05848  20738054.459    20738060.9054
  23300915.350    -6751848.857 8  -5250958.57146  23300915.956    23300925.2294
 00  5  3  2 43 30.0000000  0  6 09 15 21 29 23 05
  21811162.636   -14268199.656 8 -11093826.67947  21811163.198    21811169.8254
  22020804.658   -12108122.308 8  -9405087.98546  22020805.230    22020812.8604
  20928787.262   -21851419.350 9 -17006128.74347  20928788.497    20928794.7174
  21089901.341   -19571193.716 9 -15236237.30947  21089904.063    21089909.6134
  20741890.658   -21908066.919 9 -17053794.90848  20741894.762    20741901.3454
  23288595.374    -6816574.047 8  -5301393.69046  23288598.407    23288608.1074
 00  5  3  2 44  0.0000000  0  6 09 15 21 29 23 05
  21825829.291   -14191100.792 8 -11033749.62547  21825833.454    21825841.0844
  22010884.639   -12160252.549 8  -9445708.91246  22010885.301    22010892.7114
  20917899.855   -21908630.504 9 -17050708.83947  20917901.737    20917908.0524
  21083187.714   -19606473.653 9 -15263728.14747  21083190.437    21083196.4634
  20745804.371   -21887510.859 9 -17037777.20848  20745806.073    20745813.2934
  23276339.622    -6880986.377 8  -5351585.00446  23276341.933    23276349.7134
 00  5  3  2 44 30.0000000  0  6 09 15 21 29 23 05
  21840581.598   -14113592.202 8 -10973353.32647  21840583.299    21840589.8684
  22001070.404   -12211818.655 8  -9485890.24146  22001072.832    22001080.5374
  20907065.878   -21965558.038 9 -17095067.93347  20907068.710    20907075.3254
  21076514.050   -19641534.135 9 -15291047.97747  21076518.455    21076524.9284
  20749787.475   -21866578.624 9 -17021466.38248  20749789.380    20749796.7274
  23264142.641    -6945082.879 8  -5401530.23946  23264144.969    23264153.9104
 00  5  3  2 45  0.0000000  0  6 09 15 21 29 23 05
  21855409.818   -14035676.558 8 -10912639.82047  21855410.649    21855416.5204
  21991366.268   -12262818.668 8  -9525630.46746  21991366.822    21991374.1824
  20896288.245   -22022199.867 9 -17139204.40947  20896290.006    20896296.8924
  21069885.455   -19676375.392 9 -15318196.98747  21069888.631    21069894.7414
  20753842.808   -21845269.345 9 -17004861.75847  20753844.485    20753851.6044
  23252001.221    -7008860.753 8  -5451227.20646  23252007.894    23252016.5044
 00  5  3  2 45 30.0000000  0  6 09 15 21 29 23 05
  21870310.777   -13957356.537 8 -10851611.24247  21870314.739    21870320.9854
  21981761.108   -12313250.666 8  -9564928.09646  21981769.554    21981777.6114
  20885563.288   -22078554.037 9 -17183116.73047  20885565.938    20885572.8984
  21063295.303   -19710997.550 9 -15345175.26647  21063300.448    21063306.6654
  20757969.752   -21823582.484 9 -16987962.91647  20757971.534    20757977.9944
  23239925.820    -7072317.263 8  -5500673.74546  23239932.899    23239940.9894
 00  5  3  2 46  0.0000000  0  6 09 15 21 29 23 05
  21885294.536   -13878635.106 8 -10790269.85247  21885295.168    21885301.1824
  21972280.475   -12363112.956 8  -9603781.76846  21972281.659    21972290.1954
  20874895.096   -22134617.793 9 -17226802.75647  20874897.408    20874904.2674
  21056749.912   -19745400.962 9 -15371983.08847  21056753.023    21056759.7114
  20762165.691   -21801517.187 9 -16970769.18648  20762170.361    20762177.2114
  23227917.750    -7135449.452 8  -5549867.55846  23227918.434    23227927.2134
 00  5  3  2 46 30.0000000  0  6 09 15 21 29 23 05
  21900351.146   -13799514.976 9 -10728617.80647  21900351.367    21900357.2184
  21962898.962   -12412403.668 8  -9642190.08947  21962901.925    21962910.7254
  20864281.249   -22190389.490 9 -17270261.20947  20864284.303    20864291.4194
  21050244.598   -19779585.786 9 -15398620.59047  21050248.192    21050254.0554
  20766439.018   -21779072.657 9 -16953279.94848  20766441.703    20766448.5134
  23215968.673    -7198254.471 8  -5598806.42746  23215967.715    23215976.2074
 00  5  3  2 47  0.0000000  0  6 09 15 21 29 23 05
  21915480.547   -13719998.635 8 -10666657.00047  21915482.202    21915488.4534
  21953629.684   -12461120.687 8  -9680151.35747  21953631.974    21953638.8584
  20853724.819   -22245866.615 9 -17313490.12047  20853727.748    20853734.5134
  21043782.969   -19813552.293 9 -15425087.97147  21043784.772    21043790.4694
  20770783.055   -21756248.210 9 -16935494.67748  20770785.202    20770791.7324
  23204077.184    -7260729.384 8  -5647488.09246  23204078.357    23204087.0894
 00  5  3  2 47 30.0000000  0  6 09 15 21 29 23 05
  21930685.039   -13640088.978 8 -10604389.74847  21930689.159    21930695.1824
  21944467.730   -12509262.286 8  -9717664.25046  21944469.889    21944477.9974
  20843225.815   -22301047.170 9 -17356487.94647  20843227.281    20843234.0734
  21037358.899   -19847300.582 9 -15451385.31447  21037362.703    21037368.2844
  20775199.837   -21733043.243 9 -16917412.89247  20775200.456    20775207.4924
  23192248.719    -7322871.581 8  -5695910.49746  23192252.796    23192262.7344
 00  5  3  2 48  0.0000000  0  6 09 15 21 29 23 05
  21945963.742   -13559788.675 8 -10541818.08147  21945968.928    21945975.1064
  21935414.197   -12556826.904 8  -9754727.54846  21935418.177    21935426.1084
  20832782.429   -22355928.858 9 -17399252.87047  20832783.750    20832790.0274
  21030979.269   -19880831.193 9 -15477513.03947  21030981.896    21030987.4394
  20779686.219   -21709457.261 9 -16899034.21447  20779688.642    20779695.6874
  23180490.000    -7384678.051 8  -5744071.29746  23180492.408    23180500.5794
 00  5  3  2 48 30.0000000  0  6 09 15 21 29 23 05
  21961320.063   -13479100.591 8 -10478944.24947  21961322.843    21961328.3594
  21926472.809   -12603812.776 8  -9791339.87046  21926476.755    21926485.7334
  20822394.125   -22410509.539 9 -17441783.25547  20822397.246    20822403.7354
  21024638.968   -19914143.967 9 -15503471.02947  21024642.978    21024648.2524
  20784247.991   -21685489.476 9 -16880358.02547  20784249.857    20784256.5144
  23168788.832    -7446146.185 8  -5791968.44646  23168794.414    23168803.3374
 00  5  3  2 49  0.0000000  0  6 09 15 21 29 23 05
  21976752.916   -13398027.361 8 -10415770.29447  21976751.293    21976757.4224
  21917640.280   -12650218.163 8  -9827499.86146  21917646.792    21917654.9454
  20812065.559   -22464786.606 9 -17484077.05447  20812068.615    20812075.2004
  21018341.134   -19947239.363 9 -15529259.63447  21018345.219    21018350.4914
  20788881.464   -21661139.095 9 -16861383.70547  20788883.565    20788890.1384
  23157161.046    -7507272.983 8  -5839599.64146  23157161.942    23157172.0344
 00  5  3  2 49 30.0000000  0  7 09 15 21 29 23 05 30
  21992246.933   -13316571.816 8 -10352298.44547  21992251.401    21992257.2084
  21908922.745   -12696041.253 8  -9863206.12747  21908928.083    21908935.0214
  20801792.216   -22518758.641 9 -17526133.17247  20801797.934    20801804.4714
  21012086.428   -19980117.898 9 -15554879.25047  21012088.226    21012093.8974
  20793586.598   -21636405.579 9 -16842110.83947  20793590.096    20793596.7584
  23145590.988    -7568055.655 8  -5886962.66246  23145595.847    23145604.1664
  24379292.891      -54976.92817
 00  5  3  2 50  0.0000000  0  7 09 15 21 29 23 05 30
  22007823.107   -13234736.640 8 -10288530.75547  22007824.736    22007830.1984
  21900317.907   -12741280.364 8  -9898457.33647  21900318.498    21900326.1444
  20791584.568   -22572423.611 9 -17567950.01747  20791585.970    20791592.4534
  21005867.040   -20012779.214 9 -15580329.60047  21005872.524    21005878.9784
  20798365.403   -21611288.231 9 -16822538.88347  20798369.259    20798376.5554
  23134091.201    -7628491.375 8  -5934055.34046  23134095.249    23134104.3674
  24361322.533     -149406.902 7    -93878.98755  24361340.755    24361352.6034
 00  5  3  2 50 30.0000000  0  7 09 15 21 29 23 05 30
  22023463.530   -13152524.523 8 -10224469.37047  22023468.373    22023475.0264
  21891817.450   -12785933.753 8  -9933252.13847  21891820.364    21891828.9544
  20781431.770   -22625779.065 9 -17609525.67447  20781432.572    20781439.3684
  20999694.537   -20045223.933 9 -15605611.18347  20999698.552    20999704.8974
  20803221.110   -21585786.477 9 -16802667.39847  20803222.480    20803229.5044
  23122654.782    -7688577.655 8  -5980875.69046  23122660.870    23122670.0684
  24343373.790     -243828.246 7   -167453.86145  24343374.671    24343384.6544
 00  5  3  2 51  0.0000000  0  7 09 15 21 29 23 05 30
  22039187.254   -13069938.594 8 -10160116.69847  22039184.521    22039190.8384
  21883428.520   -12829999.941 8  -9967589.39047  21883434.649    21883443.0944
  20771334.520   -22678822.373 9 -17650858.09547  20771338.538    20771345.3684
  20993560.558   -20077452.110 9 -15630724.02647  20993565.611    20993571.8014
  20808146.007   -21559899.709 9 -16782495.89547  20808148.451    20808155.5714
  23111293.954    -7748311.435 8  -6027421.40746  23111294.147    23111303.7304
  24325401.089     -338237.818 7   -241019.50945  24325407.490    24325418.9534
 00  5  3  2 51 30.0000000  0  7 09 15 21 29 23 05 30
  22054968.100   -12986981.381 8 -10095474.72347  22054970.181    22054977.3074
  21875163.185   -12873477.298 8 -10001467.81947  21875162.446    21875169.8544
  20761302.602   -22731551.551 9 -17691945.75447  20761304.909    20761310.9674
  20987471.148   -20109464.130 9 -15655668.43547  20987474.433    20987480.0454
  20813145.924   -21533627.274 9 -16762023.87947  20813148.056    20813154.8464
  23099988.164    -7807689.959 8  -6073690.28146  23099994.621    23100002.7194
  24307452.288     -432632.954 7   -314573.93345  24307445.855    24307455.5474
 00  5  3  2 52  0.0000000  0  7 09 15 21 29 23 05 30
  22070824.120   -12903655.486 8 -10030545.45347  22070826.470    22070833.8004
  21866997.328   -12916364.282 8 -10034886.22147  21867000.936    21867008.5204
  20751327.168   -22783964.258 9 -17732786.81047  20751330.843    20751337.1374
  20981419.915   -20141260.030 9 -15680444.44347  20981423.895    20981429.8154
  20818219.061   -21506968.560 9 -16741250.86247  20818221.167    20818227.9254
  23088759.523    -7866710.611 8  -6119680.32146  23088763.278    23088771.5524
  24289480.146     -527010.630 7   -388114.77245  24289484.834    24289496.5054
 00  5  3  2 52 30.0000000  0  7 09 15 21 29 23 05 30
  22086751.557   -12819964.016 8  -9965331.32047  22086752.940    22086759.1454
  21858950.110   -12958659.270 8 -10067843.32547  21858952.463    21858961.1914
  20741415.821   -22836058.625 9 -17773379.79947  20741417.399    20741423.6434
  20975410.101   -20172840.236 9 -15705052.37547  20975414.079    20975420.1094
  20823364.663   -21479923.037 9 -16720176.43747  20823367.517    20823374.6434
  23077597.015    -7925370.781 8  -6165389.46746  23077601.065    23077608.4324
  24271529.525     -621367.693 7   -461639.54245  24271529.351    24271540.5534
 00  5  3  2 53  0.0000000  0  7 09 15 21 29 23 05 30
  22102741.497   -12735909.698 8  -9899834.43547  22102747.953    22102754.7074
  21851012.499   -13000360.707 8 -10100337.92547  21851016.757    21851025.2344
  20731563.379   -22887832.330 9 -17813722.92947  20731565.256    20731571.3784
  20969442.119   -20204204.797 9 -15729492.27547  20969445.696    20969451.3214
  20828583.287   -21452490.104 9 -16698800.13647  20828587.882    20828594.9034
  23066503.176    -7983667.642 8  -6210815.50546  23066507.022    23066515.1824
  24253567.280     -715701.280 7   -535145.97045  24253578.371    24253588.2514
 00  5  3  2 53 30.0000000  0  8 09 15 21 29 23 05 30 25
  22118810.372   -12651495.139 8  -9834056.85647  22118811.719    22118818.2204
  21843192.303   -13041466.972 8 -10132368.74147  21843194.016    21843202.6044
  20721771.535   -22939282.910 9 -17853814.27347  20721774.574    20721781.1254
  20963515.899   -20235354.010 9 -15753764.36347  20963518.231    20963524.1334
  20833880.747   -21424669.174 9 -16677121.48947  20833882.388    20833888.9834
  23055480.967    -8041598.260 8  -6255956.15546  23055483.744    23055492.6634
  24235632.444     -810008.493 7   -608631.92445  24235633.085    24235643.1854
  24719843.092    -3185238.51317  -2467875.89355  24719853.775    24719862.2764
 00  5  3  2 54  0.0000000  0  8 09 15 21 29 23 05 30 25
  22134942.920   -12566723.069 8  -9768000.68647  22134942.959    22134949.1744
  21835484.851   -13081976.698 8 -10163934.72347  21835485.542    21835493.4234
  20712042.030   -22990408.422 9 -17893652.32147  20712045.770    20712052.1404
  20957630.387   -20266288.155 9 -15777868.87547  20957631.899    20957638.1074
  20839248.260   -21396459.817 9 -16655140.18547  20839250.475    20839256.9034
  23044527.786    -8099160.211 8  -6300809.53346  23044529.967    23044538.7764
  24217675.535     -904286.369 7   -682094.98445  24217692.305    24217701.3944
  24700040.284    -3289327.519 7  -2548984.06345  24700045.972    24700054.5744
 00  5  3  2 54 30.0000000  0  8 09 15 21 29 23 05 30 25
  22151137.388   -12481596.341 8  -9701668.17147  22151142.265    22151148.9194
  21827889.678   -13121888.401 8 -10195034.71646  21827891.303    21827897.5824
  20702375.174   -23041207.085 9 -17933235.68347  20702378.911    20702385.4304
  20951782.763   -20297007.303 9 -15801805.85347  20951786.005    20951792.0484
  20844690.216   -21367861.413 9 -16632855.72747  20844692.770    20844699.4684
  23033640.889    -8156350.809 8  -6345373.53846  23033646.988    23033655.1914
  24199753.180     -998531.741 7   -755532.78845  24199757.601    24199765.9314
  24680263.608    -3393319.039 7  -2630016.28445  24680257.098    24680264.6454
 00  5  3  2 55  0.0000000  0  8 09 15 21 29 23 05 30 25
  22167405.299   -12396117.880 8  -9635061.59847  22167408.663    22167414.9724
  21820406.204   -13161200.626 8 -10225667.59346  21820410.291    21820416.6154
  20692772.531   -23091676.331 9 -17972562.35647  20692774.957    20692781.6974
  20945976.717   -20327511.782 9 -15825575.55447  20945981.261    20945987.2314
  20850207.542   -21338873.519 9 -16610267.76447  20850208.554    20850215.6404
  23022835.349    -8213167.120 8  -6389645.91446  23022834.765    23022842.5794
  24181841.358    -1092741.647 8   -828942.97445  24181829.654    24181838.7354
  24660481.590    -3497211.550 7  -2710971.34245  24660485.428    24660494.5394
 00  5  3  2 55 30.0000000  0  8 09 15 21 29 23 05 30 25
  22183737.460   -12310290.431 8  -9568183.06247  22183740.668    22183747.2124
  21813038.882   -13199911.979 8 -10255832.24246  21813042.575    21813050.0134
  20683231.969   -23141814.012 9 -18011630.66148  20683234.101    20683241.3294
  20940215.322   -20357801.582 9 -15849177.97447  20940217.176    20940223.0794
  20855796.978   -21309495.399 9 -16587375.73747  20855799.064    20855806.0614
  23012092.828    -8269606.460 8  -6433624.53246  23012094.099    23012102.4574
  24163896.080    -1186913.171 8   -902323.23245  24163909.689    24163919.5194
  24640724.738    -3601002.892 7  -2791847.60345  24640735.479    24640743.8084
 00  5  3  2 56  0.0000000  0  8 09 15 21 29 23 05 30 25
  22200139.683   -12224116.751 8  -9501034.73847  22200139.304    22200145.0214
  21805789.959   -13238021.072 8 -10285527.60647  21805792.183    21805799.0644
  20673756.440   -23191618.124 9 -18050439.03648  20673756.802    20673763.7324
  20934492.572   -20387877.181 9 -15872613.48947  20934494.222    20934499.6114
  20861462.362   -21279726.605 9 -16564179.28147  20861463.839    20861470.9174
  23001424.428    -8325666.257 8  -6477307.40746  23001426.389    23001434.3494
  24145996.910    -1281043.425 8   -975671.29645  24145996.711    24146006.8714
  24621016.881    -3704691.412 7  -2872643.72745  24621002.451    24621010.9954
 00  5  3  2 56 30.0000000  0  8 09 15 21 29 23 05 30 25
  22216597.183   -12137599.400 8  -9433618.61546  22216602.220    22216609.1834
  21798650.300   -13275526.523 8 -10314752.60247  21798654.848    21798662.4894
  20664341.412   -23241085.784 9 -18088985.24748  20664343.942    20664350.3644
  20928808.572   -20417738.723 9 -15895882.20547  20928811.568    20928817.1424
  20867199.358   -21249566.623 9 -16540678.00847  20867203.157    20867210.2484
  22990830.515    -8381343.818 8  -6520692.44146  22990831.264    22990840.2844
  24128084.678    -1375129.216 8  -1048984.70645  24128091.633    24128103.3614
  24601288.183    -3808275.220 7  -2953358.27845  24601291.722    24601301.2514
 00  5  3  2 57  0.0000000  0  8 09 15 21 29 23 05 30 25
  22233128.802   -12050741.291 8  -9365936.97946  22233131.719    22233136.5144
  21791631.557   -13312426.793 8 -10343506.03047  21791632.940    21791639.6724
  20654991.484   -23290215.170 9 -18127267.86648  20654994.481    20655001.0774
  20923165.876   -20447386.464 9 -15918984.31547  20923169.459    20923175.5254
  20873016.429   -21219015.065 9 -16516871.61147  20873017.109    20873024.0504
  22980304.950    -8436636.654 8  -6563777.66946  22980309.488    22980318.3444
  24110197.433    -1469167.503 8  -1122261.11545  24110197.480    24110207.9184
  24581598.535    -3911752.757 7  -3033989.97945  24581600.974    24581611.6394
 00  5  3  2 57 30.0000000  0  8 09 15 21 29 23 05 30 25
  22249719.676   -11963545.327 8  -9297992.05446  22249723.918    22249729.5974
  21784722.505   -13348720.804 8 -10371787.05247  21784724.966    21784733.2254
  20645707.569   -23339004.628 9 -18165285.61148  20645709.869    20645716.6794
  20917565.557   -20476820.740 9 -15941920.09647  20917568.345    20917574.0714
  20878903.760   -21188071.487 9 -16492759.74447  20878905.516    20878912.1424
  22969862.197    -8491542.147 8  -6606561.07946  22969861.444    22969869.4584
  24092304.655    -1563155.385 8  -1195498.23645  24092312.033    24092322.4934
  24561936.369    -4015122.026 8  -3114537.30545  24561931.600    24561940.2164
 00  5  3  2 58  0.0000000  0  8 09 15 21 29 23 05 30 25
  22266381.787   -11876014.305 8  -9229786.05646  22266380.470    22266386.6554
  21777928.848   -13384407.296 8 -10399594.67447  21777934.011    21777942.1684
  20636489.496   -23387451.770 9 -18203036.62548  20636490.611    20636497.7204
  20912005.658   -20506041.331 9 -15964689.37047  20912008.093    20912013.5364
  20884865.586   -21156735.266 9 -16468341.91647  20884868.403    20884875.4364
  22959489.208    -8546057.668 8  -6649040.62046  22959487.212    22959495.8004
  24074435.560    -1657089.735 8  -1268693.63445  24074436.777    24074446.3494
  24542277.606    -4118381.162 8  -3194998.82545  24542281.668    24542289.8744
 00  5  3  2 58 30.0000000  0  8 09 15 21 29 23 05 30 25
  22283094.938   -11788151.029 8  -9161321.16846  22283100.451    22283106.2804
  21771257.510   -13419484.869 8 -10426927.82847  21771260.415    21771266.7654
  20627335.124   -23435554.109 9 -18240518.94848  20627337.282    20627343.8554
  20906484.306   -20535048.778 9 -15987292.55547  20906488.015    20906493.8534
  20890902.125   -21125006.025 9 -16443617.84147  20890906.466    20890913.3354
  22949183.973    -8600180.401 8  -6691214.10346  22949188.448    22949196.6004
  24056569.294    -1750967.415 8  -1341844.88745  24056572.813    24056583.0454
  24522647.721    -4221528.608 8  -3275373.35645  24522652.967    24522660.9224
 00  5  3  2 59  0.0000000  0  8 09 15 21 29 23 05 30 25
  22299878.801   -11699958.172 8  -9092599.45646  22299883.012    22299889.2274
  21764697.091   -13453952.119 8 -10453785.40447  21764701.496    21764708.9114
  20618247.442   -23483309.207 9 -18277730.70648  20618249.657    20618256.5394
  20901005.417   -20563843.214 9 -16009729.76147  20901009.078    20901014.6794
  20897017.153   -21092883.313 9 -16418587.17147  20897019.532    20897026.1034
  22938959.452    -8653908.104 8  -6733079.76046  22938963.848    22938972.1194
  24038713.998    -1844785.452 8  -1414949.70045  24038719.691    24038730.1884
  24503050.453    -4324562.286 8  -3355659.22345  24503046.358    24503054.0934
 00  5  3  2 59 30.0000000  0  8 09 15 21 29 23 05 30 25
  22316725.034   -11611438.532 8  -9023623.12146  22316727.326    22316733.6584
  21758256.293   -13487807.960 8 -10480166.55547  21758258.571    21758265.5864
  20609227.332   -23530715.819 9 -18314670.90348  20609228.660    20609235.5604
  20895566.469   -20592424.863 9 -16032001.15347  20895569.900    20895575.7634
  20903203.829   -21060366.867 9 -16393249.69247  20903207.000    20903213.9794
  22928813.848    -8707238.179 8  -6774635.59446  22928814.901    22928824.0244
  24020877.187    -1938541.001 8  -1488005.79845  24020879.588    24020888.4944
  24483456.417    -4427480.910 7  -3435855.43045  24483460.684    24483469.1954
 00  5  3  3  0  0.0000000  0  8 09 15 21 29 23 05 30 25
  22333628.454   -11522594.916 8  -8954394.31046  22333633.858    22333640.6334
  21751932.488   -13521051.125 8 -10506070.29747  21751932.640    21751939.2404
  20600274.043   -23577771.148 9 -18351337.38348  20600274.467    20600281.2794
  20890169.139   -20620793.918 9 -16054106.88847  20890170.860    20890177.4234
  20909466.137   -21027456.082 9 -16367604.93747  20909469.670    20909476.7724
  22918736.573    -8760167.758 8  -6815879.34046  22918743.085    22918751.2804
  24003050.513    -2032230.885 8  -1561010.75745  24003050.009    24003058.6874
  24463893.886    -4530282.564 7  -3515960.45545  24463898.501    24463907.0564
 00  5  3  3  0 30.0000000  0  8 09 15 21 29 23 05 30 25
  22350597.161   -11433430.191 8  -8884915.32546  22350601.210    22350608.0934
  21745721.122   -13553680.455 8 -10531495.73447  21745723.293    21745730.4574
  20591385.296   -23624473.323 9 -18387728.66948  20591387.518    20591394.1004
  20884807.538   -20648950.484 9 -16076047.04647  20884812.632    20884819.5944
  20915805.717   -20994150.568 9 -16341652.60647  20915807.623    20915814.5044
  22908745.754    -8812694.321 8  -6856809.05546  22908747.739    22908756.2744
  23985232.420    -2125852.135 8  -1633962.22945  23985234.252    23985244.0034
  24444353.489    -4632965.272 7  -3595972.85745  24444359.156    24444367.8654
 00  5  3  3  1  0.0000000  0  8 09 15 21 29 23 05 30 25
  22367628.132   -11343947.003 8  -8815188.15546  22367629.877    22367635.0904
  21739628.835   -13585694.778 8 -10556441.93047  21739631.006    21739638.0224
  20582563.379   -23670819.894 9 -18423842.86748  20582567.953    20582574.5734
  20879492.829   -20676894.904 9 -16097821.90147  20879495.513    20879501.7104
  20922219.810   -20960450.005 9 -16315392.44647  20922220.542    20922227.2704
  22898824.754    -8864815.498 8  -6897422.89046  22898829.094    22898838.0084
  23967432.298    -2219401.397 8  -1706857.61745  23967431.746    23967442.1664
  24424838.757    -4735527.453 8  -3675891.28645  24424841.191    24424850.7224
 00  5  3  3  1 30.0000000  0  8 09 15 21 29 23 05 30 25
  22384718.748   -11254148.231 8  -8745215.06646  22384718.029    22384724.1404
  21733654.635   -13617092.899 8 -10580907.97547  21733656.727    21733663.0024
  20573814.256   -23716809.041 9 -18459678.55148  20573816.609    20573823.2284
  20874215.074   -20704627.365 9 -16119431.60247  20874218.556    20874223.8784
  20928704.268   -20926353.973 9 -16288824.12947  20928708.886    20928715.8804
  22888982.291    -8916528.724 8  -6937718.82546  22888988.117    22888996.7874
  23949634.497    -2312875.879 8  -1779694.73246  23949644.905    23949654.3104
  24405342.968    -4837967.554 8  -3755714.61045  24405348.353    24405356.8794
 00  5  3  3  2  0.0000000  0  8 09 15 21 29 23 05 30 25
  22401857.820   -11164036.355 8  -8674998.01346  22401865.518    22401871.4214
  21727796.025   -13647873.828 8 -10604893.11047  21727799.639    21727805.9214
  20565131.393   -23762437.914 9 -18495233.49948  20565133.440    20565139.9744
  20868979.126   -20732147.830 9 -16140876.10147  20868981.295    20868986.8494
  20935271.388   -20891862.174 9 -16261947.41247  20935272.440    20935279.2084
  22879220.814    -8967831.298 8  -6977694.80446  22879225.908    22879234.7584
  23931869.917    -2406272.461 8  -1852471.11846  23931871.838    23931881.0554
  24385871.908    -4940283.520 7  -3835441.20645  24385877.547    24385887.1414
 00  5  3  3  2 30.0000000  0  8 09 15 21 29 23 05 30 25
  22419073.830   -11073614.493 8  -8604539.43146  22419072.897    22419079.4864
  21722057.036   -13678036.299 8 -10628396.30347  21722060.155    21722065.9154
  20556515.925   -23807704.554 9 -18530506.19648  20556519.501    20556525.9904
  20863781.497   -20759456.606 9 -16162155.65047  20863784.512    20863790.2084
  20941908.540   -20856974.182 9 -16234761.97447  20941911.304    20941918.2844
  22869537.803    -9018720.964 8  -7017349.01546  22869542.446    22869549.8314
  23914117.944    -2499587.897 8  -1925184.31046  23914114.277    23914123.8584
  24366434.348    -5042473.732 8  -3915069.81945  24366431.152    24366440.3644
 00  5  3  3  3  0.0000000  0  8 09 15 21 29 23 05 30 25
  22436330.461   -10982885.348 8  -8533841.39646  22436337.005    22436343.7724
  21716432.789   -13707579.521 8 -10651416.96947  21716437.797    21716443.7644
  20547972.423   -23852606.935 9 -18565495.04648  20547974.549    20547981.4294
  20858625.568   -20786554.251 9 -16183270.68847  20858628.131    20858633.6414
  20948622.964   -20821689.728 9 -16207267.61047  20948625.804    20948632.6164
  22859937.668    -9069195.221 8  -7056679.52646  22859937.103    22859944.4034
  23896375.712    -2592818.999 8  -1997831.77345  23896372.480    23896381.8834
  24347004.523    -5144536.398 7  -3994599.02945  24347008.055    24347017.8474
 00  5  3  3  3 30.0000000  0  8 09 15 21 29 23 05 30 25
  22453658.089   -10891851.424 8  -8462905.88246  22453660.301    22453667.0304
  21710933.656   -13736502.521 8 -10673954.32947  21710933.499    21710939.5884
  20539495.570   -23897142.707 9 -18600198.23348  20539499.504    20539506.3654
  20853507.992   -20813440.411 9 -16204220.91947  20853511.698    20853517.3114
  20955411.959   -20786008.474 9 -16179464.04447  20955415.611    20955422.4134
  22850405.172    -9119251.547 8  -7095684.39346  22850411.243    22850419.4904
  23878640.862    -2685963.049 8  -2070411.39746  23878648.815    23878657.8254
  24327605.361    -5246469.814 8  -4074027.51445  24327611.282    24327620.4934
 00  5  3  3  4  0.0000000  0  8 09 15 21 29 23 05 30 25
  22471040.536   -10800515.661 8  -8391735.17746  22471040.244    22471047.9204
  21705544.943   -13764804.130 8 -10696007.51347  21705547.422    21705554.7164
  20531094.890   -23941310.099 9 -18634614.37248  20531095.207    20531101.3444
  20848431.969   -20840115.616 9 -16225006.78547  20848435.546    20848441.2024
  20962277.189   -20749930.036 9 -16151351.00147  20962281.083    20962287.8224
  22840962.539    -9168887.457 8  -7134361.63946  22840965.216    22840974.1384
  23860936.881    -2779016.876 8  -2142920.70946  23860940.653    23860950.4724
  24308245.903    -5348272.080 8  -4153353.84245  24308238.763    24308248.4194
 00  5  3  3  4 30.0000000  0  8 09 15 21 29 23 05 30 25
  22488472.889   -10708881.138 8  -8320331.65246  22488478.648    22488484.7704
  21700277.291   -13792483.405 8 -10717575.76147  21700280.018    21700288.1534
  20522759.030   -23985106.599 9 -18668741.50348  20522761.279    20522767.1914
  20843396.166   -20866579.856 9 -16245628.25947  20843399.405    20843405.0454
  20969220.189   -20713454.106 9 -16122928.22047  20969222.426    20969228.8744
  22831600.166    -9218100.484 8  -7172709.39146  22831601.374    22831609.0074
  23843256.996    -2871977.234 8  -2215357.18546  23843250.437    23843259.9174
  24288889.815    -5449941.353 8  -4232576.52445  24288891.988    24288901.2724
 00  5  3  3  5  0.0000000  0  8 09 15 21 29 23 05 30 25
  22505969.910   -10616950.385 8  -8248697.29446  22505971.904    22505979.1194
  21695127.754   -13819539.286 8 -10738658.25547  21695132.714    21695139.9044
  20514494.250   -24028530.116 9 -18702577.99748  20514497.571    20514503.8414
  20838400.442   -20892833.299 9 -16266085.47447  20838403.804    20838409.2984
  20976238.404   -20676580.446 9 -16094195.51447  20976239.034    20976245.6464
  22822311.301    -9266888.068 8  -7210725.61646  22822317.410    22822325.5664
  23825576.879    -2964841.147 8  -2287718.48446  23825578.720    23825588.1394
  24269575.022    -5551476.660 8  -4311694.84345  24269571.270    24269580.0114
 00  5  3  3  5 30.0000000  0  8 09 15 21 29 23 05 30 25
  22523515.450   -10524726.281 8  -8176834.36246  22523521.784    22523528.3704
  21690097.701   -13845970.910 8 -10759254.30447  21690102.399    21690108.9804
  20506302.430   -24071578.727 9 -18736122.35848  20506305.987    20506312.1344
  20833445.785   -20918876.305 9 -16286378.70647  20833448.098    20833453.7814
  20983328.316   -20639308.646 9 -16065152.56847  20983331.567    20983338.2794
  22813116.033    -9315247.826 8  -7248408.46646  22813114.473    22813122.9284
  23807922.864    -3057605.562 8  -2360002.29946  23807926.555    23807936.1724
  24250263.213    -5652875.705 7  -4390707.01745  24250275.142    24250282.0014
 00  5  3  3  6  0.0000000  0  8 09 15 21 29 23 05 30 25
  22541121.307   -10432211.506 8  -8104744.91246  22541126.254    22541134.1914
  21685189.969   -13871777.419 8 -10779363.25047  21685192.054    21685198.4674
  20498185.319   -24114249.739 9 -18769372.48648  20498186.232    20498192.3704
  20828528.884   -20944709.017 9 -16306508.07547  20828532.193    20828537.7764
  20990497.460   -20601638.646 9 -16035799.33847  20990500.003    20990506.5884
  22803988.968    -9363177.500 8  -7285756.20146  22803992.647    22804001.6494
  23790290.021    -3150267.269 8  -2432206.03346  23790293.353    23790303.7974
  24231002.033    -5754136.701 8  -4469611.59845  24231004.986    24231013.2714
 00  5  3  3  6 30.0000000  0  8 09 15 21 29 23 05 30 25
  22558784.192   -10339409.067 8  -8032431.34546  22558786.246    22558794.1314
  21680399.955   -13896957.870 8 -10798984.35547  21680400.363    21680406.1534
  20490133.873   -24156541.685 9 -18802327.24148  20490137.705    20490144.3654
  20823654.221   -20970331.560 9 -16326473.68748  20823656.579    20823662.1234
  20997739.656   -20563570.109 9 -16006135.56147  20997744.142    20997750.9534
  22794954.536    -9410674.552 8  -7322766.81046  22794954.559    22794963.1514
  23772671.438    -3242823.159 8  -2504327.35345  23772679.310    23772689.0784
  24211761.827    -5855258.483 7  -4548407.67145  24211761.907    24211771.0204
 00  5  3  3  7  0.0000000  0  8 09 15 21 29 23 05 30 25
  22576489.593   -10246321.467 8  -7959895.56546  22576499.671    22576507.0034
  21675723.399   -13921511.603 8 -10818117.11747  21675727.511    21675734.1794
  20482161.032   -24198452.035 9 -18834984.64348  20482162.216    20482169.0204
  20818816.570   -20995743.877 9 -16346275.48747  20818820.140    20818826.6564
  21005064.543   -20525102.707 9 -15976160.98747  21005064.779    21005071.3724
  22785995.848    -9457736.857 8  -7359438.68146  22785999.381    22786007.6914
  23755083.442    -3335270.157 8  -2576363.82645  23755087.976    23755097.0554
  24192539.936    -5956238.749 8  -4627093.44745  24192545.614    24192553.8614
 00  5  3  3  7 30.0000000  0  8 09 15 21 29 23 05 30 25
  22594264.735   -10152951.442 8  -7887139.69246  22594269.034    22594275.6694
  21671171.957   -13945437.781 8 -10836760.86247  21671174.745    21671179.7624
  20474257.293   -24239978.392 9 -18867342.84148  20474260.343    20474266.9144
  20814021.942   -21020946.439 9 -16365913.83048  20814024.749    20814030.5734
  21012457.208   -20486236.216 9 -15945875.41847  21012460.641    21012467.5284
  22777120.035    -9504361.988 8  -7395769.86046  22777126.228    22777134.5384
  23737517.087    -3427605.072 8  -2648312.98146  23737517.540    23737526.3554
  24173362.133    -6057076.365 8  -4705668.07145  24173357.801    24173366.1194
 00  5  3  3  8  0.0000000  0  8 09 15 21 29 23 05 30 25
  22612082.732   -10059301.699 8  -7814165.87446  22612089.079    22612095.8834
  21666741.571   -13968735.649 8 -10854915.02547  21666741.602    21666747.3644
  20466429.589   -24281119.092 9 -18899400.52148  20466431.441    20466438.0794
  20809266.246   -21045939.341 9 -16385388.80948  20809269.005    20809274.8234
  21019929.483   -20446970.446 9 -15915278.72547  21019932.309    21019939.1954
  22768332.949    -9550547.293 8  -7431758.33746  22768338.884    22768346.3374
  23719969.845    -3519824.900 8  -2720172.44546  23719968.295    23719977.9864
  24154193.048    -6157769.092 8  -4784129.79845  24154196.155    24154205.3374
 00  5  3  3  8 30.0000000  0  8 09 15 21 29 23 05 30 25
  22629954.870    -9965375.234 8  -7740976.38546  22629962.813    22629969.1244
  21662421.075   -13991404.098 8 -10872578.72247  21662427.243    21662433.6094
  20458673.311   -24321872.073 9 -18931156.07048  20458676.274    20458682.9054
  20804550.312   -21070722.652 9 -16404700.47348  20804552.702    20804558.7264
  21027479.106   -20407305.286 9 -15884370.82147  21027480.382    21027487.3014
  22759629.588    -9596290.628 8  -7467402.41846  22759634.036    22759642.2474
  23702430.187    -3611926.490 8  -2791939.75846  23702442.430    23702451.3024
  24135067.302    -6258315.321 8  -4862477.40245  24135063.823    24135070.5584
 00  5  3  3  9  0.0000000  0  8 09 15 21 29 23 05 30 25
  22647885.938    -9871174.582 8  -7667573.31046  22647887.942    22647895.8444
  21658231.770   -14013442.527 8 -10889751.49747  21658233.383    21658240.2424
  20450994.087   -24362235.269 9 -18962607.91048  20450995.706    20451002.2624
  20799873.318   -21095296.592 9 -16423848.98248  20799876.717    20799882.2464
  21035103.743   -20367240.445 9 -15853151.48447  21035104.978    21035111.2834
  22751015.877    -9641589.694 8  -7502700.32746  22751012.840    22751021.5584
  23684934.826    -3703906.684 8  -2863612.48146  23684937.932    23684947.9234
  24115957.565    -6358713.708 8  -4940709.80545  24115957.438    24115964.8144
 00  5  3  3  9 30.0000000  0  8 09 15 21 29 23 05 30 25
  22665865.560    -9776702.615 8  -7593958.79646  22665866.476    22665872.7334
  21654159.518   -14034850.248 8 -10906432.83247  21654159.991    21654166.0574
  20443387.481   -24402206.288 9 -18993754.14848  20443389.420    20443396.2934
  20795236.835   -21119661.418 9 -16442834.55648  20795239.796    20795245.5884
  21042802.659   -20326775.648 9 -15821620.48947  21042805.016    21042811.4214
  22742476.419    -9686442.336 8  -7537650.35246  22742477.869    22742486.2014
  23667447.993    -3795762.538 8  -2935188.28346  23667457.256    23667467.5224
  24096876.209    -6458962.627 7  -5018825.74845  24096879.540    24096888.0804
 00  5  3  3 10  0.0000000  0  8 09 15 21 29 23 05 30 25
  22683893.913    -9681962.168 8  -7520135.06546  22683895.135    22683902.5234
  21650202.377   -14055626.498 8 -10922622.09147  21650205.995    21650212.0334
  20435856.303   -24441783.038 9 -19024593.16148  20435858.178    20435864.9254
  20790640.125   -21143817.187 9 -16461657.22448  20790642.848    20790649.1564
  21050577.114   -20285910.811 9 -15789777.78047  21050581.279    21050587.9964
  22734026.688    -9730846.199 8  -7572250.69646  22734028.391    22734036.2744
  23650004.053    -3887490.716 8  -3006664.64446  23650004.011    23650012.1374
  24077834.274    -6559059.853 7  -5096823.45645  24077831.708    24077841.8044
 00  5  3  3 10 30.0000000  0  8 09 15 21 29 23 05 30 25
  22701968.378    -9586955.776 8  -7446104.12646  22701974.233    22701980.2534
  21646367.608   -14075770.859 8 -10938318.98947  21646371.328    21646379.3404
  20428399.468   -24480963.128 9 -19055123.10148  20428402.433    20428409.1674
  20786082.606   -21167763.950 9 -16480317.01847  20786085.893    20786091.7884
  21058431.301   -20244645.874 9 -15757623.30347  21058433.718    21058440.6124
  22725664.136    -9774799.082 8  -7606499.62046  22725665.146    22725672.2724
  23632567.621    -3979088.235 8  -3078039.17846  23632571.948    23632581.8384
  24058812.591    -6659003.798 8  -5174701.72145  24058813.545    24058824.0514
 00  5  3  3 11  0.0000000  0  8 09 15 21 29 23 05 30 25
  22720102.091    -9491686.289 8  -7371868.14146  22720102.777    22720109.0464
  21642656.593   -14095282.721 8 -10953523.01347  21642659.909    21642665.8664
  20421018.750   -24519744.885 9 -19085342.64048  20421022.303    20421029.2024
  20781564.124   -21191502.027 9 -16498814.20947  20781568.578    20781574.5674
  21066358.556   -20202980.689 9 -15725156.94147  21066362.248    21066369.3934
  22717386.696    -9818298.552 8  -7640395.25546  22717386.929    22717393.9424
  23615168.396    -4070551.911 8  -3149309.44246  23615167.195    23615176.3684
  24039820.229    -6758793.352 8  -5252459.70946  24039824.973    24039833.2864
 00  5  3  3 11 30.0000000  0  8 09 15 21 29 23 05 30 25
  22738273.779    -9396156.465 8  -7297429.32846  22738281.951    22738288.7404
  21639065.557   -14114161.488 8 -10968233.71447  21639067.207    21639073.5554
  20413716.544   -24558126.214 9 -19115250.15748  20413718.637    20413725.3354
  20777089.036   -21215031.468 9 -16517148.82748  20777091.450    20777097.4324
  21074364.129   -20160915.084 9 -15692378.57547  21074366.705    21074373.9004
  22709192.741    -9861342.436 8  -7673935.87846  22709195.453    22709203.5454
  23597786.093    -4161878.563 8  -3220472.92046  23597788.918    23597796.7934
  24020864.499    -6858426.901 8  -5330096.12346  24020865.638    24020873.7004
 00  5  3  3 12  0.0000000  0  8 09 15 21 29 23 05 30 25
  22756504.561    -9300369.004 8  -7222789.74646  22756509.156    22756515.5994
  21635592.701   -14132406.610 8 -10982450.66947  21635595.487    21635602.1024
  20406488.795   -24596104.825 9 -19144843.87648  20406491.569    20406498.3644
  20772651.697   -21238352.503 9 -16535321.04548  20772653.966    20772659.3694
  21082445.128   -20118448.991 9 -15659288.14347  21082448.104    21082455.0604
  22701086.085    -9903928.349 8  -7707119.63746  22701091.269    22701099.1144
  23580427.481    -4253065.104 8  -3291527.23146  23580436.050    23580444.5914
  24001937.562    -6957902.468 8  -5407609.43446  24001935.832    24001943.0864
 00  5  3  3 12 30.0000000  0  8 09 15 21 29 23 05 30 25
  22774787.353    -9204326.660 8  -7147951.55446  22774785.752    22774792.8074
  21632240.910   -14150017.510 8 -10996173.43247  21632244.083    21632250.8344
  20399338.230   -24633678.690 9 -19174122.20448  20399341.363    20399348.2594
  20768251.934   -21261465.146 9 -16553330.88848  20768255.417    20768261.0374
  21090601.982   -20075582.421 9 -15625885.63347  21090605.482    21090612.3704
  22693071.011    -9946054.345 8  -7739945.02646  22693074.429    22693082.7914
  23563113.151    -4344108.366 8  -3362469.87946  23563111.188    23563119.9074
  23983028.378    -7057217.945 8  -5484997.99045  23983035.834    23983044.3574
 00  5  3  3 13  0.0000000  0  8 09 15 21 29 23 05 30 25
  22793109.231    -9108032.002 8  -7072916.77346  22793110.227    22793116.5474
  21629008.798   -14166993.719 8 -11009401.63947  21629012.901    21629021.2424
  20392265.221   -24670845.804 9 -19203083.58348  20392268.788    20392275.7734
  20763894.063   -21284369.602 9 -16571178.50748  20763896.646    20763902.5414
  21098835.840   -20032315.218 9 -15592170.95047  21098838.685    21098845.9794
  22685145.190    -9987718.302 8  -7772410.37846  22685146.641    22685154.3064
  23545815.018    -4435005.141 8  -3433298.38546  23545814.069    23545822.3634
  23964160.936    -7156372.163 7  -5562260.87145  23964166.399    23964175.6464
 00  5  3  3 13 30.0000000  0  8 09 15 21 29 23 05 30 25
  22811480.900    -9011487.826 8  -6997687.55246  22811482.086    22811487.5244
  21625899.713   -14183334.902 8 -11022135.01647  21625903.556    21625910.4114
  20385270.999   -24707604.143 9 -19231726.44348  20385273.793    20385280.6854
  20759576.139   -21307066.179 9 -16588864.13748  20759577.937    20759583.4884
  21107141.112   -19988647.065 9 -15558143.84147  21107148.134    21107155.4164
  22677303.000   -10028917.950 8  -7804513.92446  22677306.607    22677314.3054
  23528545.049    -4525752.294 8  -3504010.32746  23528545.471    23528553.9934
  23945318.800    -7255363.421 8  -5639396.80245  23945329.557    23945337.5944
 00  5  3  3 14  0.0000000  0  8 09 15 21 29 23 05 30 25
  22829892.558    -8914697.014 8  -6922266.14946  22829899.862    22829907.4444
  21622913.197   -14199040.482 8 -11034373.12147  21622915.767    21622921.3844
  20378355.232   -24743951.324 9 -19260048.90548  20378357.116    20378363.9004
  20755294.625   -21329554.768 9 -16606387.70248  20755298.312    20755304.1094
  21115531.098   -19944577.951 9 -15523804.29847  21115534.536    21115541.4074
  22669552.649   -10069651.146 8  -7836254.01546  22669555.562    22669563.1304
  23511298.819    -4616346.634 8  -3574603.16146  23511305.954    23511314.5454
  23926522.325    -7354189.960 8  -5716404.40745  23926524.378    23926531.8534
 00  5  3  3 14 30.0000000  0  8 09 15 21 29 23 05 30 25
  22848364.106    -8817662.084 8  -6846654.52746  22848365.492    22848372.2534
  21620041.487   -14214110.008 8 -11046115.59047  21620046.860    21620054.3864
  20371517.156   -24779885.630 9 -19288049.65748  20371519.489    20371525.9474
  20751057.222   -21351835.511 9 -16623749.30648  20751058.239    20751064.1394
  21123995.595   -19900107.968 9 -15489152.37847  21123997.352    21124003.9774
  22661892.927   -10109915.791 8  -7867629.01246  22661893.424    22661900.3144
  23494091.903    -4706785.082 8  -3645074.53246  23494095.112    23494103.9244
  23907749.407    -7452850.137 8  -5793282.31946  23907749.498    23907757.2874
 00  5  3  3 15  0.0000000  0  8 09 15 21 29 23 05 30 25
  22866869.363    -8720385.808 8  -6770854.83846  22866876.440    22866882.8694
  21617297.355   -14228542.965 8 -11057362.03847  21617300.551    21617307.6334
  20364758.100   -24815404.716 9 -19315726.86348  20364760.160    20364766.9904
  20746855.734   -21373908.674 9 -16640949.15547  20746858.011    20746863.5244
  21132533.781   -19855237.076 9 -15454188.05947  21132535.437    21132542.3494
  22654318.944   -10149709.658 8  -7898637.15046  22654320.050    22654327.9854
  23476913.139    -4797064.422 8  -3715421.97046  23476916.359    23476923.6614
  23889003.987    -7551342.401 8  -5870029.43646  23889007.505    23889015.0934
 00  5  3  3 15 30.0000000  0  8 09 15 21 29 23 05 30 25
  22885429.061    -8622870.787 8  -6694869.10446  22885432.902    22885440.1204
  21614671.452   -14242339.038 8 -11068112.20547  21614675.634    21614682.7404
  20358077.784   -24850506.563 9 -19343078.94048  20358080.472    20358087.1834
  20742693.992   -21395774.269 9 -16657987.27247  20742696.847    20742702.6724
  21141147.805   -19809965.185 9 -15418911.29547  21141150.646    21141157.3624
  22646834.413   -10189030.538 8  -7929276.75546  22646837.857    22646844.9084
  23459766.070    -4887181.503 8  -3785642.94246  23459767.814    23459775.5854
  23870292.776    -7649665.204 8  -5946644.48746  23870296.900    23870304.3034
 00  5  3  3 16  0.0000000  0  8 09 15 21 29 23 05 30 25
  22904031.387    -8525119.954 8  -6618699.62046  22904034.782    22904041.2734
  21612169.751   -14255497.914 8 -11078365.86847  21612171.576    21612179.0054
  20351478.426   -24885188.956 9 -19370104.17348  20351480.565    20351487.1634
  20738573.078   -21417432.449 9 -16674863.77147  20738575.327    20738580.8564
  21149842.169   -19764292.407 9 -15383322.14547  21149841.958    21149848.9924
  22639442.213   -10227876.493 8  -7959546.27446  22639445.716    22639453.7054
  23442643.658    -4977133.365 8  -3855735.17845  23442648.893    23442658.1834
  23851613.190    -7747816.977 8  -6023126.24745  23851618.658    23851626.8574
 00  5  3  3 16 30.0000000  0  8 09 15 21 29 23 05 30 25
  22922682.829    -8427136.003 8  -6542348.47446  22922680.396    22922686.8044
  21609784.776   -14268019.355 8 -11088122.83447  21609788.640    21609796.6844
  20344958.837   -24919449.944 9 -19396801.03648  20344960.856    20344967.5704
  20734489.647   -21438883.372 9 -16691578.76347  20734493.441    20734498.8284
  21158606.949   -19718218.790 9 -15347420.65647  21158609.866    21158616.6554
  22632143.007   -10266245.603 8  -7989444.22846  22632145.117    22632151.6524
  23425565.682    -5066916.737 8  -3925696.13245  23425563.521    23425571.9124
  23832973.029    -7845796.187 8  -6099473.56845  23832973.358    23832980.6014
 00  5  3  3 17  0.0000000  0  8 09 15 21 29 23 05 30 25
  22941362.758    -8328921.566 8  -6465817.74646  22941369.951    22941376.7054
  21607524.503   -14279903.055 8 -11097382.85347  21607527.623    21607535.4974
  20338519.940   -24953287.540 9 -19423167.99248  20338521.885    20338528.2084
  20730445.670   -21460127.056 9 -16708132.27647  20730450.765    20730456.6264
  21167451.707   -19671744.321 9 -15311206.79947  21167453.783    21167459.7994
  22624930.781   -10304135.737 8  -8018968.94946  22624934.305    22624941.7824
  23408507.413    -5156528.203 8  -3995523.11045  23408511.646    23408519.8074
  23814352.812    -7943601.132 8  -6175685.10445  23814361.346    23814370.3814
 00  5  3  3 17 30.0000000  0  8 09 15 21 29 23 05 30 25
  22960100.310    -8230479.175 8  -6389109.40446  22960102.548    22960109.7684
  21605387.186   -14291148.566 8 -11106145.57947  21605387.853    21605395.0284
  20332160.443   -24986700.117 9 -19449203.76548  20332163.737    20332170.3354
  20726445.261   -21481163.696 9 -16724524.44047  20726447.940    20726453.6784
  21176369.408   -19624868.929 9 -15274680.53647  21176373.043    21176380.1964
  22617814.465   -10341544.816 8  -8048118.80946  22617815.628    22617822.9114
  23391492.802    -5245964.820 8  -4065213.83746  23391492.721    23391501.7974
  23795787.730    -8041229.906 8  -6251759.36846  23795784.772    23795792.1934
 00  5  3  3 18  0.0000000  0  8 09 15 21 29 23 05 30 25
  22978875.084    -8131811.499 8  -6312225.51246  22978878.497    22978885.7094
  21603366.664   -14301755.781 8 -11114410.92747  21603369.118    21603376.2584
  20325884.530   -25019685.547 9 -19474906.69448  20325886.908    20325893.3364
  20722481.593   -21501993.339 9 -16740755.32248  20722484.324    20722489.8764
  21185368.771   -19577592.602 9 -15237841.87047  21185369.696    21185376.9264
  22610788.951   -10378470.838 8  -8076892.28546  22610788.488    22610796.8044
  23374505.755    -5335223.474 8  -4134765.92746  23374506.726    23374515.7084
  23777232.575    -8138681.271 8  -6327695.39946  23777240.013    23777247.0934
 00  5  3  3 18 30.0000000  0  8 09 15 21 29 23 05 30 25
  22997690.206    -8032921.280 8  -6235168.18446  22997696.594    22997703.5954
  21601468.761   -14311724.542 8 -11122178.79847  21601472.212    21601479.8674
  20319689.967   -25052241.527 9 -19500274.98148  20319691.719    20319697.9004
  20718555.518   -21522616.060 9 -16756824.97048  20718560.094    20718565.7444
  21194440.802   -19529915.560 9 -15200690.94847  21194442.577    21194449.5854
  22603853.887   -10414911.793 8  -8105287.78246  22603853.716    22603862.0534
  23357554.465    -5424300.962 8  -4204176.84446  23357556.519    23357563.3684
  23758721.460    -8235953.378 8  -6403491.74745  23758728.403    23758735.9764
 00  5  3  3 19  0.0000000  0  8 09 15 21 29 23 05 30 25
  23016555.452    -7933811.185 8  -6157939.53846  23016556.801    23016563.4994
  21599693.502   -14321054.834 8 -11129449.14847  21599696.191    21599703.3274
  20313576.193   -25084366.350 9 -19525307.30148  20313578.605    20313584.7294
  20714671.576   -21543032.190 9 -16772733.62548  20714674.737    20714680.8074
  21203588.509   -19481837.798 9 -15163227.78947  21203591.420    21203598.5034
  22597009.859   -10450865.825 8  -8133303.85346  22597011.514    22597020.1684
  23340639.456    -5513194.055 8  -4273444.08946  23340640.055    23340648.2944
  23740248.033    -8333044.687 8  -6479147.22146  23740252.430    23740260.7734
 00  5  3  3 19 30.0000000  0  8 09 15 21 29 23 05 30 25
  23035452.514    -7834483.893 8  -6080541.62846  23035458.493    23035464.8354
  21598041.455   -14329746.346 8 -11136221.76847  21598042.675    21598050.0974
  20307544.417   -25116057.578 9 -19550001.76248  20307547.914    20307554.3024
  20710827.209   -21563241.576 9 -16788481.19648  20710828.911    20710834.6444
  21212813.369   -19433359.457 9 -15125452.48947  21212816.660    21212823.7334
  22590262.614   -10486330.790 8  -8160938.82546  22590263.398    22590270.4494
  23323745.481    -5601899.913 8  -4342565.40146  23323758.554    23323768.9744
  23721806.502    -8429953.682 8  -6554660.61746  23721811.316    23721819.4344
 00  5  3  3 20  0.0000000  0  8 09 15 21 29 23 05 30 25
  23054405.076    -7734942.049 8  -6002976.54746  23054400.801    23054407.3954
  21596503.704   -14337799.160 8 -11142496.65947  21596510.183    21596517.7394
  20301597.885   -25147313.387 9 -19574356.93348  20301599.843    20301606.1834
  20707019.624   -21583244.499 9 -16804067.89148  20707022.843    20707028.1694
  21222115.319   -19384480.727 9 -15087365.18847  21222117.838    21222125.2314
  22583607.133   -10521304.816 8  -8188191.24846  22583608.034    22583615.7954
  23306915.326    -5690415.091 8  -4411538.16646  23306916.039    23306924.5594
  23703403.392    -8526678.680 8  -6630030.67346  23703406.173    23703413.0874
 00  5  3  3 20 30.0000000  0  8 09 15 21 29 23 05 30 25
  23073376.458    -7635188.281 8  -5925246.34346  23073382.671    23073389.9844
  21595098.663   -14345213.177 9 -11148273.82647  21595099.930    21595107.1334
  20295732.543   -25178132.299 9 -19598371.66948  20295734.969    20295741.5674
  20703252.134   -21603040.990 9 -16819493.71848  20703255.336    20703261.2844
  21231489.932   -19335201.517 9 -15048965.83447  21231495.537    21231502.8304
  22577041.021   -10555786.113 8  -8215059.73346  22577046.161    22577053.7394
  23290105.809    -5778736.383 8  -4480359.85046  23290108.619    23290117.5344
  23685038.707    -8623218.533 8  -6705256.42446  23685035.818    23685042.4984
 00  5  3  3 21  0.0000000  0  8 09 15 21 29 23 05 30 25
  23092405.119    -7535225.559 8  -5847353.30046  23092405.174    23092412.4164
  21593807.747   -14351988.225 8 -11153553.06847  21593809.983    21593818.1504
  20289950.943   -25208511.936 9 -19622044.10648  20289954.060    20289960.8544
  20699525.050   -21622631.006 9 -16834758.65248  20699527.412    20699533.2864
  21240948.874   -19285522.017 9 -15010254.56247  21240949.380    21240956.1144
  22570575.582   -10589772.726 8  -8241542.75446  22570579.099    22570587.1154
  23273339.969    -5866860.580 8  -4549027.91246  23273338.135    23273348.1604
  23666698.189    -8719571.500 8  -6780336.58246  23666699.704    23666707.6014
 00  5  3  3 21 30.0000000  0  8 09 15 21 29 23 05 30 25
  23111461.224    -7435056.195 8  -5769299.25046  23111466.994    23111473.7074
  21592636.739   -14358124.125 8 -11158334.27547  21592641.909    21592649.8904
  20284255.001   -25238450.315 9 -19645372.71248  20284257.303    20284263.8604
  20695835.855   -21642014.782 9 -16849862.88748  20695838.968    20695844.8814
  21250474.047   -19235442.543 9 -14971231.62547  21250479.011    21250486.2154
  22564203.353   -10623262.987 8  -8267638.99946  22564205.993    22564213.9344
  23256592.612    -5954784.658 8  -4617540.03346  23256606.691    23256616.0914
  23648388.913    -8815735.805 8  -6855269.71946  23648399.026    23648407.6864
 00  5  3  3 22  0.0000000  0  8 09 15 21 29 23 05 30 25
  23130565.307    -7334682.865 8  -5691086.25246  23130567.187    23130574.1364
  21591594.806   -14363621.117 8 -11162617.65547  21591596.831    21591603.9564
  20278641.635   -25267945.679 9 -19668356.11348  20278644.395    20278650.9414
  20692189.045   -21661192.232 9 -16864806.35248  20692190.017    20692195.4594
  21260081.437   -19184963.128 9 -14931897.05347  21260084.781    21260092.1714
  22557923.313   -10656254.760 8  -8293346.80646  22557928.164    22557935.1254
  23239909.497    -6042505.682 8  -4685893.95046  23239915.632    23239923.3164
  23630134.373    -8911709.984 8  -6930054.69346  23630135.639    23630144.3904
 00  5  3  3 22 30.0000000  0  8 09 15 21 29 23 05 30 25
  23149711.380    -7234108.155 8  -5612716.32846  23149705.088    23149711.8454
  21590669.367   -14368479.086 8 -11166403.07347  21590671.792    21590679.5534
  20273114.143   -25296996.071 9 -19690992.77848  20273116.437    20273122.7304
  20688576.332   -21680163.678 9 -16879589.28848  20688579.604    20688585.3604
  21269763.624   -19134083.834 9 -14892250.87447  21269766.851    21269774.1114
  22551743.931   -10688746.179 8  -8318664.73446  22551744.869    22551752.5504
  23223260.602    -6130020.313 8  -4754087.03146  23223261.345    23223270.1034
  23611906.930    -9007492.556 8  -7004690.39546  23611908.618    23611916.6504
 00  5  3  3 23  0.0000000  0  8 09 15 21 29 23 05 30 25
  23168870.641    -7133334.805 8  -5534191.62346  23168881.627    23168889.4194
  21589867.145   -14372698.076 8 -11169690.58047  21589869.352    21589875.9494
  20267670.851   -25325599.056 9 -19713280.81548  20267673.516    20267679.7734
  20685005.356   -21698928.861 9 -16894211.49748  20685008.794    20685014.2004
  21279523.891   -19082804.876 9 -14852293.27447  21279525.099    21279531.8434
  22545659.567   -10720735.559 8  -8343591.45746  22545657.631    22545665.5714
  23206640.711    -6217325.188 8  -4822116.68546  23206648.349    23206655.7474
  23593721.513    -9103082.069 8  -7079175.63146  23593719.061    23593726.8474
 00  5  3  3 23 30.0000000  0  8 09 15 21 29 23 05 30 25
  23188094.367    -7032365.331 8  -5455514.09946  23188096.000    23188103.5964
  21589186.781   -14376278.331 9 -11172480.40047  21589188.636    21589195.0564
  20262312.164   -25353752.784 9 -19735218.78648  20262315.733    20262322.3974
  20681475.823   -21717488.111 9 -16908673.24548  20681477.284    20681482.6054
  21289356.859   -19031126.473 9 -14812024.42147  21289359.299    21289366.0684
  22539661.680   -10752221.198 8  -8368125.67346  22539665.959    22539674.1884
  23190071.232    -6304417.101 8  -4889980.38346  23190075.006    23190083.1774
  23575560.664    -9198476.661 8  -7153509.00146  23575566.231    23575574.5804
 00  5  3  3 24  0.0000000  0  8 09 15 21 29 23 05 30 25
  23207350.027    -6931202.311 8  -5376685.76946  23207347.025    23207353.9514
  21588625.109   -14379219.967 8 -11174772.57947  21588627.991    21588635.2604
  20257042.577   -25381455.903 9 -19756805.63148  20257043.924    20257050.7864
  20677982.102   -21735841.626 9 -16922974.68348  20677984.630    20677990.0094
  21299265.036   -18979049.015 9 -14771444.60247  21299269.275    21299276.0364
  22533769.471   -10783201.414 8  -8392266.04246  22533769.670    22533777.5974
  23173542.201    -6391292.976 8  -4957675.72546  23173542.162    23173551.1834
  23557449.340    -9293675.040 8  -7227689.47546  23557450.910    23557457.7284
 00  5  3  3 24 30.0000000  0  8 09 15 21 29 23 05 30 25
  23226630.873    -6829848.289 8  -5297708.57346  23226633.621    23226640.5854
  21588187.063   -14381522.940 8 -11176567.09947  21588189.409    21588196.9784
  20251856.859   -25408706.183 9 -19778039.60848  20251858.752    20251865.1334
  20674527.833   -21753989.044 9 -16937115.52148  20674530.797    20674536.2894
  21309253.279   -18926572.614 9 -14730553.93347  21309255.206    21309261.8624
  22527968.628   -10813674.118 8  -8416010.95946  22527970.708    22527979.6394
  23157048.076    -6477949.786 8  -5025200.37846  23157051.780    23157059.6124
  23539368.839    -9388675.805 8  -7301715.98546  23539372.685    23539381.0704
 00  5  3  3 25  0.0000000  0  8 09 15 21 29 23 05 30 25
  23245954.162    -6728305.974 8  -5218584.66346  23245956.059    23245963.3724
  21587873.476   -14383187.591 8 -11177864.23847  21587872.880    21587880.0184
  20246757.147   -25435501.821 9 -19798919.33048  20246759.703    20246766.2304
  20671114.400   -21771930.725 9 -16951096.04448  20671116.518    20671122.3634
  21319314.444   -18873697.390 9 -14689352.49747  21319317.285    21319324.2064
  22522270.888   -10843637.796 8  -8439359.20546  22522268.964    22522276.7334
  23140596.536    -6564384.363 8  -5092551.87646  23140604.684    23140612.7034
  23521335.416    -9483477.239 8  -7375587.10946  23521332.250    23521339.7694
 00  5  3  3 25 30.0000000  0  8 09 15 21 29 23 05 30 25
  23265315.309    -6626578.025 8  -5139316.12446  23265314.488    23265321.5594
  21587675.960   -14384214.179 8 -11178664.15947  21587677.586    21587684.4954
  20241746.161   -25461840.824 9 -19819443.22548  20241747.385    20241753.9834
  20667738.453   -21789666.582 9 -16964916.17948  20667741.651    20667747.5134
  21329451.252   -18820423.738 9 -14647840.59547  21329454.382    21329461.8734
  22516664.826   -10873090.595 8  -8462309.38446  22516665.014    22516671.9884
  23124200.071    -6650593.401 8  -5159727.62546  23124199.203    23124206.7604
  23503328.854    -9578077.652 8  -7449301.66746  23503330.937    23503338.2354
 00  5  3  3 26  0.0000000  0  8 09 15 21 29 23 05 30 25
  23284703.029    -6524666.797 8  -5059904.75846  23284708.482    23284714.5944
  21587600.359   -14384603.015 8 -11178967.14047  21587603.342    21587610.5134
  20236820.385   -25487721.655 9 -19839610.10048  20236822.245    20236829.1124
  20664404.184   -21807196.680 9 -16978575.99048  20664405.812    20664411.5814
  21339667.955   -18766751.942 9 -14606018.45247  21339668.040    21339675.4574
  22511155.147   -10902030.799 8  -8484860.13846  22511158.015    22511165.1354
  23107837.178    -6736573.829 8  -5226725.23646  23107837.098    23107844.8594
  23485352.882    -9672475.713 8  -7522858.49846  23485366.611    23485374.2414
 00  5  3  3 26 30.0000000  0  8 09 15 21 29 23 05 30 25
  23304136.302    -6422575.094 8  -4980352.76646  23304135.717    23304141.6274
  21587648.911   -14384354.190 8 -11178773.26547  21587651.114    21587658.0184
  20231981.954   -25513142.288 9 -19859418.39248  20231984.855    20231991.9034
  20661105.794   -21824521.159 9 -16992075.58048  20661109.258    20661114.4264
  21349953.269   -18712682.159 9 -14563886.18547  21349957.092    21349964.4824
  22505745.512   -10930456.794 8  -8507010.20746  22505747.989    22505755.8574
  23091520.573    -6822322.594 8  -5293542.35046  23091519.831    23091526.9464
  23467447.830    -9766670.047 8  -7596256.62646  23467442.713    23467449.5504
 00  5  3  3 27  0.0000000  0  8 09 15 21 29 23 05 30 25
  23323596.160    -6320305.645 8  -4900662.25946  23323597.562    23323603.0004
  21587818.390   -14383468.068 8 -11178082.77047  21587819.454    21587825.9254
  20227232.799   -25538100.549 9 -19878866.38648  20227235.226    20227242.2834
  20657848.500   -21841640.236 9 -17005415.10948  20657851.184    20657856.7224
  21360321.180   -18658214.747 9 -14521444.08447  21360321.996    21360329.5054
  22500432.300   -10958366.967 8  -8528758.34246  22500436.547    22500444.0104
  23075243.936    -6907836.422 8  -5360176.37946  23075246.655    23075254.8554
  23449554.313    -9860659.186 8  -7669494.82646  23449556.909    23449563.9154
 00  5  3  3 27 30.0000000  0  8 09 15 21 29 23 05 30 25
  23343091.932    -6217860.719 8  -4820835.04346  23343091.175    23343098.1854
  21588106.611   -14381945.215 8 -11176896.13547  21588109.452    21588115.4524
  20222571.656   -25562595.008 9 -19897952.98448  20222574.267    20222581.0334
  20654629.930   -21858553.617 9 -17018594.36747  20654632.648    20654638.0614
  21370762.195   -18603350.027 9 -14478692.38347  21370762.612    21370769.9364
  22495225.638   -10985759.760 8  -8550103.33046  22495224.145    22495231.3054
  23059015.771    -6993112.243 8  -5426624.96246  23059019.629    23059027.2704
  23431712.242    -9954441.498 8  -7742571.88946  23431710.689    23431717.9024
 00  5  3  3 28  0.0000000  0  8 09 15 21 29 23 05 30 25
  23362607.449    -6115243.015 8  -4740873.18046  23362618.650    23362624.6984
  21588516.896   -14379785.881 8 -11175213.53447  21588520.883    21588527.7284
  20217999.827   -25586624.016 9 -19916676.88848  20218001.988    20218008.2664
  20651448.674   -21875261.438 9 -17031613.43847  20651453.219    20651458.6644
  21381275.874   -18548088.367 9 -14435631.38447  21381278.772    21381285.7954
  22490105.577   -11012633.504 8  -8571043.87046  22490110.625    22490117.0904
  23042835.888    -7078146.797 8  -5492885.51646  23042837.759    23042846.0744
  23413901.367   -10048015.750 8  -7815486.82046  23413904.164    23413912.0814
 00  5  3  3 28 30.0000000  0  8 09 15 21 29 23 05 30 25
  23382177.181    -6012454.722 8  -4660778.38446  23382178.618    23382185.0654
  21589051.296   -14376990.433 8 -11173035.26647  21589052.401    21589058.7074
  20213516.625   -25610185.723 9 -19935036.66048  20213518.442    20213524.6864
  20648310.764   -21891763.834 9 -17044472.43648  20648313.053    20648318.6504
  21391866.257   -18492430.074 9 -14392261.33047  21391870.085    21391877.5184
  22485091.755   -11038986.557 8  -8591578.64946  22485095.938    22485102.4134
  23026697.363    -7162936.774 8  -5558955.49746  23026702.416    23026711.5384
  23396136.020   -10141380.294 8  -7888238.35746  23396137.576    23396144.8404
 00  5  3  3 29  0.0000000  0  8 09 15 21 29 23 05 30 25
  23401768.879    -5909498.637 8  -4580552.85346  23401769.915    23401776.2214
  21589700.709   -14373559.092 8 -11170361.50147  21589704.530    21589712.2944
  20209120.845   -25633277.783 9 -19953030.47148  20209123.829    20209130.2824
  20645209.891   -21908060.778 9 -17057171.34848  20645212.008    20645217.6334
  21402535.807   -18436375.622 9 -14348582.58347  21402537.130    21402544.2234
  22480177.543   -11064817.432 8  -8611706.54746  22480180.719    22480187.8064
  23010610.163    -7247479.210 8  -5624832.58846  23010614.451    23010622.9374
  23378414.746   -10234533.623 8  -7960825.28646  23378410.154    23378418.2674
 00  5  3  3 29 30.0000000  0  8 09 15 21 29 23 05 30 25
  23421384.945    -5806377.419 8  -4500198.64146  23421392.879    23421399.4434
  21590476.011   -14369492.494 8 -11167192.72747  21590478.930    21590485.3604
  20204818.465   -25655898.223 9 -19970656.78548  20204819.723    20204825.7994
  20642147.227   -21924152.247 9 -17069710.14748  20642150.022    20642155.2814
  21413275.422   -18379925.413 9 -14304595.44147  21413278.541    21413285.7464
  22475366.150   -11090124.581 8  -8631426.35146  22475363.896    22475372.3284
  22994574.451    -7331770.993 8  -5690514.38446  22994574.737    22994582.9394
  23360716.656   -10327474.438 8  -8033246.60946  23360724.245    23360732.9004
 00  5  3  3 30  0.0000000  0  8 09 15 21 29 23 05 30 25
  23441050.053    -5703093.368 8  -4419717.55645  23441047.352    23441053.8144
  21591371.427   -14364790.839 8 -11163529.09347  21591373.609    21591380.8124
  20200602.974   -25678045.758 9 -19987914.60148  20200605.321    20200611.3004
  20639124.814   -21940038.359 9 -17082088.92748  20639126.938    20639132.5104
  21424093.648   -18323079.619 9 -14260300.04847  21424096.125    21424103.2134
  22470649.651   -11114906.405 8  -8650736.81546  22470647.727    22470656.7574
  22978577.252    -7415808.972 8  -5755998.41146  22978583.156    22978590.5464
  23343076.333   -10420201.188 8  -8105501.15946  23343079.786    23343086.4554
 00  5  3  3 30 30.0000000  0  8 09 15 21 29 23 05 30 25
  23460725.616    -5599649.031 8  -4339111.54745  23460732.541    23460738.0124
  21592388.464   -14359454.864 8 -11159371.20447  21592389.060    21592396.1254
  20196477.689   -25699718.872 9 -20004802.74448  20196480.815    20196487.0174
  20636138.821   -21955718.997 9 -17094307.60248  20636142.683    20636148.4804
  21434984.229   -18265838.642 9 -14215696.71247  21434988.979    21434996.1204
  22466032.362   -11139161.339 8  -8669636.72546  22466033.558    22466040.4844
  22962636.706    -7499589.873 8  -5821282.14446  22962639.529    22962647.0084
  23325472.306   -10512712.160 8  -8177587.57046  23325474.859    23325482.4764
 00  5  3  3 31  0.0000000  0  8 09 15 21 29 23 05 30 25
  23480450.868    -5496047.116 8  -4258382.75145  23480447.050    23480453.3034
  21593518.394   -14353485.016 8 -11154719.37847  21593524.406    21593531.7034
  20192444.844   -25720915.257 9 -20021319.40048  20192447.180    20192453.5134
  20633193.000   -21971194.305 9 -17106366.27648  20633197.568    20633203.7844
  21445955.940   -18208202.973 9 -14170785.83247  21445956.719    21445963.5444
  22461516.839   -11162887.896 8  -8688124.90246  22461517.863    22461525.5704
  22946747.826    -7583110.708 8  -5886363.21046  22946746.511    22946753.3734
  23307909.113   -10605006.121 8  -8249504.86946  23307912.247    23307919.3454
 00  5  3  3 31 30.0000000  0  8 09 15 21 29 23 05 30 25
  23500188.604    -5392290.051 8  -4177533.07645  23500191.238    23500197.7934
  21594777.868   -14346881.953 8 -11149574.14947  21594781.565    21594788.5144
  20188503.339   -25741633.687 9 -20037463.62448  20188504.810    20188510.7414
  20630290.497   -21986464.274 9 -17118264.93748  20630292.269    20630298.1014
  21456997.928   -18150172.983 9 -14125567.70147  21456999.575    21457006.8104
  22457101.219   -11186084.558 8  -8706200.18146  22457104.448    22457110.9444
  22930898.952    -7666368.328 8  -5951239.17846  22930903.356    22930910.4264
  23290385.799   -10697081.903 8  -8321252.15846  23290390.572    23290398.1954
 00  5  3  3 32  0.0000000  0  8 09 15 21 29 23 05 30 25
  23519968.453    -5288380.219 8  -4096564.38046  23519964.782    23519971.2004
  21596152.856   -14339646.489 8 -11143936.12447  21596158.725    21596165.0924
  20184650.913   -25761871.981 9 -20053233.72548  20184653.607    20184659.6024
  20627422.479   -22001528.858 9 -17130003.55748  20627425.579    20627431.3454
  21468112.931   -18091749.128 9 -14080042.64947  21468117.349    21468124.7254
  22452788.812   -11208750.015 8  -8723861.54646  22452790.831    22452797.6174
  22915109.626    -7749359.570 8  -6015907.58746  22915110.336    22915117.4944
  23272908.803   -10788937.948 8  -8392828.22646  23272910.935    23272917.7354
 00  5  3  3 32 30.0000000  0  8 09 15 21 29 23 05 30 25
  23539764.966    -5184320.242 8  -4015478.68346  23539767.405    23539773.6294
  21597654.755   -14331779.119 8 -11137805.70547  21597656.159    21597663.2844
  20180890.502   -25781628.797 9 -20068628.64148  20180893.504    20180900.2534
  20624595.876   -22016388.100 9 -17141582.16948  20624598.013    20624603.8244
  21479305.070   -18032931.873 9 -14034211.06847  21479309.809    21479317.0264
  22448577.800   -11230882.880 8  -8741107.88446  22448578.523    22448585.4504
  22899356.653    -7832081.372 8  -6080366.03846  22899367.634    22899375.6754
  23255471.324   -10880572.798 8  -8464231.95146  23255473.685    23255479.2904
 00  5  3  3 33  0.0000000  0  8 09 15 21 29 23 05 30 25
  23559592.959    -5080112.405 8  -3934277.74846  23559597.493    23559603.3484
  21599271.743   -14323280.211 8 -11131183.19547  21599273.335    21599280.2984
  20177223.452   -25800902.067 9 -20083646.78048  20177225.947    20177232.9544
  20621806.515   -22031041.999 9 -17153000.78248  20621809.403    20621815.3404
  21490573.605   -17973721.771 9 -13988073.36247  21490577.396    21490584.2994
  22444467.839   -11252481.809 8  -8757938.18546  22444468.363    22444475.0494
  22883672.086    -7914530.480 8  -6144611.99146  22883678.611    22883686.7514
  23238078.056   -10971985.106 8  -8535462.28246  23238078.654    23238084.5254
 00  5  3  3 33 30.0000000  0  8 09 15 21 29 23 05 30 25
  23579445.779    -4975759.354 8  -3852963.65745  23579455.069    23579461.4544
  21601006.923   -14314150.513 8 -11124069.15147  21601010.163    21601017.7004
  20173648.787   -25819690.014 9 -20098286.74248  20173651.096    20173657.9094
  20619055.645   -22045490.407 9 -17164259.26248  20619059.532    20619065.7704
  21501915.969   -17914119.326 9 -13941629.93247  21501919.410    21501925.9254
  22440456.128   -11273545.433 8  -8774351.35646  22440459.792    22440467.6534
  22868038.287    -7996703.543 8  -6208642.87746  22868041.587    22868048.5174
  23220718.439   -11063173.288 8  -8606517.95546  23220724.752    23220732.9074
 00  5  3  3 34  0.0000000  0  8 09 15 21 29 23 05 30 25
  23599332.517    -4871263.563 8  -3771538.33145  23599339.260    23599346.4374
  21602863.841   -14304390.704 8 -11116464.11947  21602867.921    21602875.2624
  20170167.051   -25837991.163 9 -20112547.37648  20170168.399    20170174.9054
  20616345.189   -22059733.650 9 -17175357.87248  20616349.290    20616355.1024
  21513333.166   -17854124.865 9 -13894881.03047  21513336.070    21513343.3984
  22436552.699   -11294072.385 8  -8790346.33746  22436554.326    22436561.4254
  22852456.030    -8078597.819 8  -6272456.54246  22852456.985    22852464.1504
  23203408.502   -11154136.110 8  -8677397.98046  23203415.388    23203423.3864
 00  5  3  3 34 30.0000000  0  9 09 11 15 21 29 23 05 30 25
  23619254.133    -4766627.353 8  -3690003.62245  23619250.464    23619258.2514
  24596903.659     -887236.08017   -678035.90955  24596902.319    24596907.2624
  21604841.615   -14294001.520 8 -11108368.66247  21604844.769    21604851.5514
  20166776.698   -25855803.863 9 -20126427.41048  20166778.654    20166785.1074
  20613673.580   -22073771.433 9 -17186296.38548  20613677.904    20613684.1604
  21524819.995   -17793738.947 9 -13847827.10347  21524827.092    21524834.2034
  22432747.557   -11314061.376 8  -8805922.13746  22432750.492    22432757.5514
  22836922.291    -8160210.152 8  -6336050.45446  22836926.794    22836934.7124
  23186145.813   -11244872.043 8  -8748101.22846  23186148.230    23186156.5214
 00  5  3  3 35  0.0000000  0  9 09 11 15 21 29 23 05 30 25
  23639178.036    -4661853.298 8  -3608361.49245  23639188.051    23639196.2974
  24584997.107     -949795.223 7   -726783.27345  24584997.277    24585004.1154
  21606935.739   -14282983.854 8 -11099783.46947  21606941.140    21606947.8514
  20163479.544   -25873126.348 9 -20139925.44548  20163482.194    20163488.6934
  20611042.763   -22087603.723 9 -17197074.76448  20611045.993    20611052.2104
  21536385.108   -17732962.096 8 -13800468.55747  21536392.084    21536399.5994
  22429042.923   -11333511.076 8  -8821077.68546  22429048.473    22429056.2104
  22821449.034    -8241537.260 8  -6399422.15046  22821451.471    22821458.5224
  23168928.834   -11335379.875 8  -8818626.74846  23168926.144    23168933.3124
 00  5  3  3 35 30.0000000  0  9 09 11 15 21 29 23 05 30 25
  23659153.411    -4556943.806 8  -3526613.78445  23659152.266    23659159.0974
  24573173.165    -1011926.645 7   -775197.37545  24573175.487    24573181.9484
  21609155.175   -14271338.440 8 -11090709.13547  21609157.212    21609164.5934
  20160275.712   -25889957.547 9 -20153040.66848  20160279.169    20160285.9694
  20608451.080   -22101230.648 9 -17207693.12548  20608453.033    20608458.8334
  21548031.109   -17671794.903 9 -13752805.83747  21548031.919    21548039.1694
  22425450.264   -11352420.020 8  -8835811.87746  22425451.002    22425457.6994
  22806025.905    -8322576.240 8  -6462569.35646  22806029.687    22806037.2634
  23151737.191   -11425657.897 8  -8888973.18446  23151745.824    23151753.7054
 00  5  3  3 36  0.0000000  0  9 09 11 15 21 29 23 05 30 25
  23679135.542    -4451901.156 8  -3444762.31845  23679141.222    23679148.7554
  24561433.562    -1073628.428 7   -823276.68445  24561433.354    24561438.8524
  21611490.030   -14259066.196 8 -11081146.34947  21611492.867    21611499.9724
  20157168.147   -25906295.411 9 -20165771.47148  20157170.311    20157177.1004
  20605896.206   -22114652.084 9 -17218151.36148  20605898.880    20605904.5354
  21559742.725   -17610237.747 9 -13704839.26447  21559746.041    21559752.7004
  22421956.642   -11370787.253 8  -8850123.96746  22421955.544    22421963.0854
  22790663.526    -8403323.926 8  -6525489.53546  22790663.741    22790671.2244
  23134610.193   -11515705.036 8  -8959139.74446  23134611.402    23134618.2824
 00  5  3  3 36 30.0000000  0  9 09 11 15 21 29 23 05 30 25
  23699159.653    -4346727.779 8  -3362809.02145  23699155.141    23699162.3074
  24549769.423    -1134898.792 7   -871019.79245  24549772.546    24549779.0724
  21613944.371   -14246167.914 8 -11071095.72447  21613947.261    21613953.9014
  20154153.598   -25922137.980 9 -20178116.33048  20154155.692    20154162.2794
  20603381.073   -22127868.141 9 -17228449.56948  20603384.304    20603389.7584
  21571535.399   -17548291.411 9 -13656569.42747  21571534.200    21571541.0244
  22418562.205   -11388611.497 8  -8864012.94346  22418563.905    22418570.7044
  22775352.175    -8483777.077 8  -6588180.25446  22775354.184    22775361.5054
  23117514.885   -11605520.135 8  -9029125.48246  23117520.284    23117525.8854
 00  5  3  3 37  0.0000000  0  9 09 11 15 21 29 23 05 30 25
  23719188.530    -4241426.214 8  -3280755.83245  23719192.960    23719200.5424
  24538195.590    -1195735.806 7   -918425.14945  24538195.700    24538203.3714
  21616516.450   -14232644.422 8 -11060557.95547  21616520.272    21616528.2984
  20151232.885   -25937484.250 9 -20190074.45948  20151235.522    20151241.8764
  20600905.571   -22140878.880 9 -17238587.79148  20600907.826    20600913.9994
  21583394.855   -17485956.361 9 -13607996.70047  21583396.426    21583403.0374
  22415272.139   -11405891.338 8  -8877477.71746  22415275.380    22415282.7344
  22760095.627    -8563932.748 8  -6650639.14646  22760100.472    22760108.2104
  23100470.278   -11695101.586 8  -9098929.12346  23100472.411    23100479.8924
 00  5  3  3 37 30.0000000  0  9 09 11 15 21 29 23 05 30 25
  23739251.839    -4135998.913 8  -3198604.67245  23739254.727    23739262.2594
  24526701.636    -1256137.879 7   -965491.68745  24526702.971    24526708.9474
  21619213.118   -14218496.748 8 -11049533.78947  21619213.246    21619220.2214
  20148407.688   -25952332.308 9 -20201644.37648  20148409.912    20148416.6244
  20598469.831   -22153684.054 9 -17248565.82448  20598471.340    20598476.7854
  21595330.203   -17423233.196 9 -13559121.54647  21595331.952    21595339.3544
  22412090.423   -11422625.815 8  -8890517.53546  22412091.156    22412098.6864
  22744902.716    -8643787.757 8  -6712863.76546  22744904.935    22744912.0954
  23083472.210   -11784448.183 8  -9168549.77646  23083470.616    23083477.2244
 00  5  3  3 38  0.0000000  0  9 09 11 15 21 29 23 05 30 25
  23759335.803    -4030448.149 7  -3116357.29745  23759340.945    23759347.6664
  24515291.905    -1316103.143 7  -1012217.80045  24515292.740    24515296.2634
  21622021.088   -14203725.718 8 -11038023.91147  21622022.941    21622030.9104
  20145677.540   -25966680.724 9 -20212824.96248  20145679.676    20145686.1144
  20596070.679   -22166283.484 9 -17258383.53448  20596073.525    20596079.2124
  21607339.971   -17360122.604 9 -13509944.50047  21607341.444    21607348.3594
  22409007.885   -11438813.736 8  -8903131.44546  22409010.413    22409018.1724
  22729763.072    -8723339.023 8  -6774851.70246  22729766.625    22729774.4104
  23066511.150   -11873558.377 8  -9237986.22446  23066513.747    23066520.6114
 00  5  3  3 38 30.0000000  0  9 09 11 15 21 29 23 05 30 25
  23779450.740    -3924776.382 8  -3034015.63145  23779449.649    23779457.1064
  24503970.096    -1375630.015 7  -1058602.35345  24503963.142    24503971.2514
  21624949.170   -14188332.246 8 -11026029.00047  21624952.465    21624960.2804
  20143042.514   -25980527.790 9 -20223614.88148  20143044.790    20143051.0654
  20593712.481   -22178677.253 9 -17268040.99848  20593715.201    20593720.7304
  21619423.660   -17296625.137 8 -13460465.99147  21619424.280    21619431.6044
  22406032.343   -11454454.011 8  -8915318.62046  22406033.826    22406042.1894
  22714687.085    -8802583.446 8  -6836600.52546  22714687.188    22714694.1734
  23049596.143   -11962430.633 8  -9307237.27446  23049601.196    23049608.9864
 00  5  3  3 39  0.0000000  0  9 09 11 15 21 29 23 05 30 25
  23799584.204    -3818986.049 8  -2951581.57845  23799580.854    23799587.4904
  24492716.604    -1434716.660 7  -1104643.87145  24492721.665    24492724.9354
  21627999.888   -14172317.218 8 -11013549.76747  21628000.392    21628007.6364
  20140503.177   -25993872.299 9 -20234013.20548  20140505.286    20140511.8774
  20591390.554   -22190865.384 9 -17277538.23148  20591395.572    20591401.3754
  21631578.117   -17232741.429 8 -13410686.51347  21631581.085    21631588.4214
  22403155.930   -11469545.549 8  -8927078.21146  22403161.913    22403169.4984
  22699663.756    -8881517.823 8  -6898107.78146  22699665.872    22699673.2934
  23032734.197   -12051063.963 8  -9376302.15946  23032734.840    23032743.0934
 00  5  3  3 39 30.0000000  0  9 09 11 15 21 29 23 05 30 25
  23819732.524    -3713079.513 8  -2869056.97745  23819734.502    23819740.5684
  24481564.487    -1493361.281 7  -1150340.97445  24481560.770    24481565.6654
  21631165.583   -14155681.740 8 -11000587.06447  21631165.943    21631174.1844
  20138058.515   -26006712.416 9 -20244018.49248  20138061.564    20138068.4924
  20589114.130   -22202847.883 9 -17286875.22048  20589115.557    20589120.9764
  21643812.455   -17168472.144 9 -13360606.60047  21643811.542    21643818.8504
  22400391.061   -11484086.975 8  -8938409.14146  22400394.720    22400403.2794
  22684699.447    -8960139.429 8  -6959371.30446  22684704.704    22684713.1504
  23015912.564   -12139457.155 8  -9445179.90146  23015914.980    23015921.7314
 00  5  3  3 40  0.0000000  0  9 09 11 15 21 29 23 05 30 25
  23839907.383    -3607059.169 8  -2786443.71245  23839908.979    23839915.5744
  24470480.777    -1551562.065 7  -1195692.18945  24470485.765    24470489.7874
  21634440.578   -14138426.876 8 -10987141.72347  21634448.293    21634457.4444
  20135711.542   -26019046.563 9 -20253629.51148  20135714.398    20135721.4234
  20586871.398   -22214624.385 9 -17296051.70548  20586874.438    20586880.2714
  21656113.227   -17103818.064 8 -13310226.83847  21656114.715    21656122.1924
  22397732.100   -11498077.356 8  -8949310.70246  22397733.115    22397740.3474
  22669799.769    -9038444.953 8  -7020388.50546  22669804.414    22669811.9484
  22999136.152   -12227608.982 8  -9513869.59146  22999139.529    22999147.8344
 00  5  3  3 40 30.0000000  0  9 09 11 15 21 29 23 05 30 25
  23860100.065    -3500927.217 8  -2703743.47545  23860105.239    23860112.2474
  24459492.311    -1609317.525 7  -1240696.39745  24459493.644    24459500.8564
  21637848.807   -14120553.818 8 -10973214.67147  21637851.008    21637857.1534
  20133460.080   -26030873.012 9 -20262844.93248  20133464.061    20133471.0024
  20584670.950   -22226195.232 9 -17305067.92448  20584672.974    20584678.3284
  21668492.245   -17038779.907 9 -13259547.80547  21668491.224    21668497.9034
  22395175.367   -11511515.655 8  -8959782.06346  22395176.060    22395182.5244
  22654964.536    -9116431.406 8  -7081157.10946  22654964.480    22654970.2994
  22982408.197   -12315517.774 8  -9582369.86746  22982411.077    22982418.7964
 00  5  3  3 41  0.0000000  0  9 09 11 15 21 29 23 05 30 25
  23880326.527    -3394686.124 8  -2620958.19245  23880323.289    23880328.8474
  24448587.154    -1666625.985 7  -1285352.33745  24448589.804    24448597.3834
  21641369.616   -14102063.669 8 -10958806.75747  21641368.920    21641376.9224
  20131307.367   -26042190.942 9 -20271664.10248  20131310.156    20131317.2504
  20582506.081   -22237560.165 9 -17313923.70948  20582510.097    20582515.5104
  21680941.666   -16973358.248 8 -13208569.92747  21680940.412    21680947.9984
  22392722.011   -11524400.800 8  -8969822.40646  22392723.627    22392730.6794
  22640182.176    -9194095.633 8  -7141674.61646  22640184.568    22640191.6614
  22965725.833   -12403182.275 8  -9650679.81446  22965729.691    22965736.4584
 00  5  3  3 41 30.0000000  0  9 09 11 15 21 29 23 05 30 25
  23900561.996    -3288338.126 8  -2538089.57345  23900560.128    23900566.6454
  24437768.062    -1723485.758 7  -1329658.57045  24437769.598    24437775.0394
  21644999.699   -14082957.381 8 -10943918.73447  21645003.995    21645012.4544
  20129251.017   -26052998.554 9 -20280085.61748  20129253.616    20129260.4274
  20580382.294   -22248719.145 9 -17322619.00148  20580386.427    20580391.7364
  21693461.666   -16907553.719 8 -13157293.70347  21693462.788    21693469.4664
  22390377.716   -11536732.010 8  -8979431.10447  22390377.173    22390384.7394
  22625465.998    -9271434.650 8  -7201938.70146  22625467.071    22625474.6134
  22949089.079   -12490601.642 8  -9718798.74146  22949093.937    22949101.0134
 00  5  3  3 42  0.0000000  0  9 09 11 15 21 29 23 05 30 25
  23920814.418    -3181885.652 8  -2455139.55345  23920817.724    23920823.5704
  24427031.342    -1779895.081 7  -1373613.86745  24427034.285    24427041.2634
  21648756.400   -14063236.191 8 -10928551.57747  21648757.800    21648765.1644
  20127292.443   -26063294.536 9 -20288108.46648  20127294.431    20127301.3624
  20578298.879   -22259672.207 9 -17331153.84548  20578302.053    20578307.6854
  21706054.095   -16841367.060 8 -13105719.72747  21706057.339    21706064.7784
  22388134.737   -11548508.067 8  -8988607.21147  22388136.142    22388143.5804
  22610810.060    -9348445.425 8  -7261947.01446  22610812.475    22610820.4734
  22932501.070   -12577774.716 8  -9786725.77746  22932505.138    22932512.3464
 00  5  3  3 42 30.0000000  0  9 09 11 15 21 29 23 05 30 25
  23941101.933    -3075330.987 8  -2372109.88945  23941093.838    23941099.4204
  24416389.559    -1835852.277 7  -1417216.86945  24416387.132    24416392.5594
  21652622.283   -14042901.338 8 -10912706.22747  21652627.110    21652633.7194
  20125430.095   -26073077.167 9 -20295731.29948  20125432.720    20125439.8044
  20576256.456   -22270419.110 9 -17339528.04148  20576257.359    20576262.3804
  21718721.643   -16774799.155 8 -13053848.67247  21718724.723    21718732.6874
  22385993.474   -11559728.124 8  -8997350.06346  22386001.167    22386007.7774
  22596218.956    -9425124.814 8  -7321697.12346  22596221.384    22596228.8234
  22915959.589   -12664699.619 8  -9854459.37946  22915964.331    22915972.2784
 00  5  3  3 43  0.0000000  0  9 09 11 15 21 29 23 05 30 25
  23961380.406    -2968676.200 8  -2289002.23145  23961389.702    23961395.8374
  24405824.528    -1891355.954 7  -1460466.46145  24405825.247    24405829.3394
  21656609.338   -14021953.890 8 -10896383.52147  21656613.057    21656620.5574
  20123666.560   -26082345.376 9 -20302953.28448  20123668.928    20123675.8184
  20574246.646   -22280959.810 9 -17347741.56548  20574251.243    20574256.5764
  21731461.807   -16707850.718 8 -13001681.10647  21731464.597    21731472.6264
  22383967.194   -11570391.268 8  -9005658.96846  22383971.533    22383978.8374
  22581691.989    -9501469.979 8  -7381186.80446  22581693.056    22581700.5114
  22899468.872   -12751375.068 8  -9921998.64846  22899470.472    22899477.2694
 00  5  3  3 43 30.0000000  0  9 09 11 15 21 29 23 05 30 25
  23981695.067    -2861923.737 8  -2205818.44645  23981704.221    23981710.5244
  24395341.075    -1946404.501 7  -1503361.41745  24395349.270    24395354.4514
  21660711.027   -14000395.013 8 -10879584.39347  21660715.234    21660724.2054
  20122000.892   -26091097.810 9 -20309773.36548  20122003.727    20122010.3444
  20572284.066   -22291294.158 9 -17355794.29348  20572284.886    20572289.8454
  21744272.863   -16640522.293 8 -12949217.44047  21744277.280    21744284.7054
  22382049.135   -11580496.633 8  -9013533.24746  22382048.451    22382056.2934
  22567224.517    -9577477.793 8  -7440413.58246  22567228.760    22567236.4944
  22883022.613   -12837800.194 8  -9989342.85946  22883024.308    22883032.1404
 00  5  3  3 44  0.0000000  0  9 09 11 15 21 29 23 05 30 25
  24002034.177    -2755075.975 8  -2122560.40945  24002036.998    24002042.5434
  24384957.199    -2000996.007 7  -1545900.23445  24384960.013    24384966.7424
  21664934.923   -13978226.330 8 -10862310.09547  21664934.555    21664941.4374
  20120434.005   -26099332.541 9 -20316190.03748  20120437.028    20120443.2744
  20570354.739   -22301422.089 9 -17363686.17948  20570357.271    20570362.8724
  21757157.482   -16572814.678 8 -12896458.29747  21757161.669    21757169.3744
  22380229.130   -11590043.142 8  -9020972.04447  22380232.082    22380239.1814
  22552829.126    -9653145.283 8  -7499375.17046  22552830.410    22552836.7844
  22866621.618   -12923973.378 8 -10056490.75846  22866625.562    22866632.5824
 00  5  3  3 44 30.0000000  0  9 09 11 15 21 29 23 05 30 25
  24022384.390    -2648135.108 8  -2039229.83945  24022387.242    24022393.2194
  24374654.825    -2055129.097 7  -1588081.82545  24374659.952    24374666.1824
  21669268.005   -13955449.072 8 -10844561.56247  21669268.443    21669275.5834
  20118967.137   -26107049.008 9 -20322202.86548  20118968.306    20118974.7614
  20568464.157   -22311343.462 9 -17371417.11548  20568469.164    20568474.9874
  21770114.821   -16504728.761 8 -12843404.38547  21770118.001    21770125.4064
  22378521.219   -11599030.179 8  -9027974.89847  22378522.249    22378528.5194
  22538495.102    -9728469.316 8  -7558069.16946  22538496.755    22538503.4674
  22850272.822   -13009893.610 8 -10123441.54246  22850275.831    22850283.0824
 00  5  3  3 45  0.0000000  0  9 09 11 15 21 29 23 05 30 25
  24042752.688    -2541103.382 8  -1955828.43745  24042754.663    24042759.4114
  24364438.515    -2108802.412 7  -1629905.12345  24364442.910    24364450.7484
  21673712.814   -13932064.360 8 -10826339.70747  21673718.505    21673725.8394
  20117596.303   -26114245.326 9 -20327810.38548  20117598.765    20117605.6864
  20566617.752   -22321058.338 9 -17378987.14448  20566620.939    20566626.1664
  21783146.395   -16436265.333 9 -12790056.30047  21783146.024    21783153.6524
  22376918.115   -11607456.771 8  -9034541.04147  22376918.391    22376925.3554
  22524224.377    -9803447.115 8  -7616493.33846  22524228.357    22524235.4994
  22833970.418   -13095559.792 8 -10190194.37246  22833974.628    22833980.7284
 00  5  3  3 45 30.0000000  0  9 09 11 15 21 29 23 05 30 25
  24063130.416    -2433983.030 7  -1872358.00545  24063139.344    24063144.0554
  24354323.945    -2162014.395 7  -1671368.98945  24354320.209    24354326.5344
  21678282.153   -13908073.541 8 -10807645.55647  21678284.859    21678291.9334
  20116327.758   -26120920.001 9 -20333011.43448  20116328.849    20116335.6004
  20564808.227   -22330566.578 9 -17386396.16148  20564811.380    20564817.1954
  21796248.193   -16367425.266 9 -12736414.73447  21796246.443    21796253.3014
  22375418.284   -11615322.159 8  -9040669.88047  22375421.988    22375428.3714
  22510017.148    -9878075.672 8  -7674645.38146  22510026.429    22510034.5604
  22817720.108   -13180970.707 8 -10256748.29146  22817721.490    22817727.2964
 00  5  3  3 46  0.0000000  0  9 09 11 15 21 29 23 05 30 25
  24083529.186    -2326776.455 7  -1788820.34345  24083539.196    24083544.9324
  24344280.260    -2214763.296 8  -1712472.07845  24344283.692    24344288.2194
  21682964.693   -13883478.100 8 -10788480.27547  21682964.898    21682971.9504
  20115153.844   -26127071.858 9 -20337805.09648  20115158.081    20115164.8914
  20563037.960   -22339868.081 9 -17393644.08748  20563041.133    20563047.1384
  21809416.249   -16298209.196 9 -12682480.17647  21809418.016    21809424.6974
  22374030.269   -11622625.556 8  -9046360.79747  22374032.219    22374039.5314
  22495886.274    -9952351.859 8  -7732522.86146  22495893.455    22495899.2494
  22801516.855   -13266125.049 8 -10323102.29246  22801516.591    22801523.2994
 00  5  3  3 46 30.0000000  0  9 09 11 15 21 29 23 05 30 25
  24103944.493    -2219486.069 7  -1705217.39145  24103955.919    24103961.7774
  24334325.947    -2267047.705 7  -1753213.13845  24334332.529    24334338.1514
  21687758.313   -13858279.627 8 -10768845.09147  21687759.964    21687766.4574
  20114085.130   -26132699.867 9 -20342190.55648  20114087.122    20114094.1094
  20561305.852   -22348962.580 9 -17400730.71248  20561310.490    20561316.2674
  21822659.565   -16228618.056 8 -12628253.36747  21822660.374    21822667.3484
  22372747.263   -11629366.263 8  -9051613.26147  22372749.250    22372755.9824
  22481827.296   -10026272.420 8  -7790123.23346  22481826.854    22481832.9434
  22785359.119   -13351021.724 8 -10389255.47946  22785360.598    22785367.8004
 00  5  3  3 47  0.0000000  0  9 09 11 15 21 29 23 05 30 25
  24124380.702    -2112113.684 7  -1621550.54645  24124388.179    24124393.4944
  24324468.099    -2318865.927 7  -1793590.95245  24324472.388    24324476.9784
  21692667.029   -13832479.439 8 -10748741.05347  21692669.530    21692676.3304
  20113113.483   -26137802.576 9 -20346166.70048  20113116.225    20113122.8274
  20559613.844   -22357850.246 9 -17407656.16848  20559619.294    20559625.2804
  21835970.927   -16158652.859 8 -12573735.06947  21835974.228    21835981.6224
  22371570.464   -11635543.675 8  -9056426.78847  22371573.489    22371580.4614
  22467821.836   -10099834.913 8  -7847444.58446  22467827.060    22467834.9024
  22769256.230   -13435659.258 8 -10455206.75246  22769255.681    22769262.2634
 00  5  3  3 47 30.0000000  0  9 09 11 15 21 29 23 05 30 25
  24144836.199    -2004661.774 7  -1537821.74045  24144835.448    24144841.8184
  24314699.498    -2370216.737 7  -1833604.53545  24314700.573    24314705.9094
  21697692.624   -13806078.880 8 -10728169.19747  21697693.600    21697700.6984
  20112243.107   -26142378.743 9 -20349732.54948  20112245.438    20112252.2434
  20557966.674   -22366530.642 9 -17414420.11448  20557967.702    20557973.4874
  21849353.866   -16088314.353 8 -12518925.88647  21849358.554    21849366.5974
  22370497.505   -11641156.937 8  -9060800.71947  22370504.676    22370512.4284
  22453895.700   -10173036.197 8  -7904484.46046  22453897.874    22453905.5754
  22753193.219   -13520036.557 8 -10520955.27646  22753198.862    22753205.3804
 00  5  3  3 48  0.0000000  0  9 09 11 15 21 29 23 05 30 25
  24165278.161    -1897132.645 7  -1454032.75845  24165297.429    24165303.7054
  24305009.045    -2421098.765 7  -1873252.87945  24305017.571    24305024.1914
  21702827.789   -13779079.322 8 -10707130.57247  21702831.215    21702838.0024
  20111471.539   -26146427.106 9 -20352887.12648  20111474.826    20111481.6634
  20556351.963   -22375003.854 9 -17421022.62048  20556355.121    20556361.0014
  21862813.211   -16017603.395 8 -12463826.47847  21862815.114    21862822.6964
  22369542.437   -11646205.336 8  -9064734.50647  22369544.669    22369551.6314
  22440034.375   -10245873.179 8  -7961240.46846  22440037.147    22440044.2564
  22737191.252   -13604152.185 8 -10586499.88146  22737192.549    22737198.2144
 00  5  3  3 48 30.0000000  0  9 09 11 15 21 29 23 05 30 25
  24185779.503    -1789528.297 7  -1370185.18845  24185774.171    24185779.5244
  24295423.195    -2471510.358 7  -1912534.65445  24295423.715    24295430.5024
  21708082.037   -13751482.299 8 -10685626.39947  21708082.967    21708089.4294
  20110802.177   -26149946.769 9 -20355629.72348  20110805.159    20110811.8814
  20554780.067   -22383269.811 9 -17427463.62448  20554782.192    20554788.1404
  21876339.547   -15946520.958 8 -12408437.62547  21876341.808    21876349.1404
  22368689.440   -11650688.223 8  -9068227.62847  22368692.004    22368698.9494
  22426241.072   -10318343.123 8  -8017710.48346  22426246.435    22426253.2134
  22721230.391   -13688005.177 8 -10651839.82846  22721235.084    22721242.3204
 00  5  3  3 49  0.0000000  0  9 09 11 15 21 29 23 05 30 25
  24206264.710    -1681851.004 8  -1286280.75845  24206264.738    24206270.3494
  24285919.697    -2521450.111 7  -1951448.76945  24285920.883    24285926.3984
  21713447.567   -13723289.516 8 -10663657.98647  21713448.222    21713454.3064
  20110233.631   -26152936.462 9 -20357959.35748  20110236.394    20110242.8134
  20553245.197   -22391328.096 9 -17433742.81248  20553248.782    20553254.6464
  21889935.855   -15875067.866 8 -12352759.94247  21889938.793    21889946.0704
  22367944.707   -11654605.116 8  -9071279.71047  22367946.091    22367953.2244
  22412522.563   -10390442.920 8  -8073892.07746  22412526.164    22412532.9884
  22705324.860   -13771594.773 8 -10716974.53046  22705328.031    22705334.9214
 00  5  3  3 49 30.0000000  0  9 09 11 15 21 29 23 05 30 25
  24226759.419    -1574102.728 7  -1202321.00445  24226767.546    24226773.9214
  24276509.557    -2570916.721 8  -1989994.17445  24276509.271    24276514.3094
  21718923.471   -13694502.438 8 -10641226.47947  21718926.166    21718932.2204
  20109765.272   -26155394.760 9 -20359874.92148  20109768.539    20109775.0804
  20551754.181   -22399178.964 9 -17439860.37248  20551755.149    20551760.7104
  21903606.438   -15803245.123 8 -12296794.21847  21903606.310    21903613.5254
  22367307.625   -11657955.266 8  -9073890.18247  22367308.520    22367315.6874
  22398878.572   -10462169.433 8  -8129782.80347  22398877.599    22398884.5704
  22689466.098   -13854919.761 8 -10781903.02646  22689471.560    22689478.5694
 00  5  3  3 50  0.0000000  0  9 09 11 15 21 29 23 05 30 25
  24247284.256    -1466285.847 8  -1118307.78445  24247284.958    24247290.7374
  24267179.574    -2619908.841 7  -2028169.86045  24267185.226    24267189.9794
  21724516.225   -13665122.477 8 -10618333.00147  21724516.906    21724523.3774
  20109399.575   -26157320.294 9 -20361375.33548  20109402.105    20109408.8074
  20550297.882   -22406821.854 9 -17445815.86748  20550300.452    20550306.1774
  21917340.135   -15731053.754 8 -12240541.25447  21917343.943    21917351.7874
  22366778.559   -11660738.170 8  -9076058.65447  22366779.233    22366785.6164
  22385298.054   -10533520.238 8  -8185380.76246  22385299.975    22385306.5784
  22673664.701   -13937978.565 8 -10846624.15146  22673666.774    22673673.3104
 00  5  3  3 50 30.0000000  0  9 09 11 15 21 29 23 05 30 25
  24267804.861    -1358402.701 8  -1034242.91445  24267815.323    24267820.3714
  24257955.335    -2668424.913 7  -2065974.53545  24257952.280    24257956.7714
  21730219.115   -13635151.410 8 -10594978.91347  21730219.949    21730226.7404
  20109135.070   -26158712.183 9 -20362459.93148  20109137.092    20109143.8704
  20548883.547   -22414256.817 9 -17451609.33748  20548885.823    20548891.4124
  21931147.646   -15658494.535 8 -12184001.65947  21931151.648    21931158.3194
  22366352.851   -11662953.128 8  -9077784.55047  22366357.496    22366364.1484
  22371789.036   -10604492.106 8  -8240683.44046  22371793.416    22371801.1594
  22657909.129   -14020770.281 8 -10911137.13246  22657912.119    22657918.3564
 00  5  3  3 51  0.0000000  0  9 09 11 15 21 29 23 05 30 25
  24288358.322    -1250455.377 8   -950128.05545  24288355.623    24288361.6134
  24248814.920    -2716463.695 7  -2103407.29645  24248812.207    24248817.6464
  21736031.781   -13604590.836 8 -10571165.48247  21736034.883    21736042.4264
  20108971.131   -26159568.973 9 -20363127.56248  20108974.131    20108980.6554
  20547508.163   -22421483.560 9 -17457240.56548  20547510.660    20547516.0404
  21945027.165   -15585568.497 8 -12127176.21547  21945028.759    21945036.1794
  22366043.822   -11664599.644 8  -9079067.50647  22366044.562    22366050.6164
  22358361.353   -10675082.293 8  -8295688.69646  22358360.984    22358368.3854
  22642204.976   -14103293.868 8 -10975441.20446  22642207.867    22642214.9844
 00  5  3  3 51 30.0000000  0  9 09 11 15 21 29 23 05 30 25
  24308890.041    -1142445.830 7   -865964.70845  24308909.699    24308914.8654
  24239753.055    -2764023.749 7  -2140467.08445  24239759.709    24239767.4834
  21741958.778   -13573442.575 8 -10546894.11247  21741962.591    21741969.4254
  20108910.568   -26159889.649 9 -20363377.44248  20108913.416    20108919.6554
  20546172.630   -22428502.249 9 -17462709.66548  20546175.238    20546180.2884
  21958972.287   -15512276.578 8 -12070065.66747  21958975.865    21958983.7374
  22365838.089   -11665676.994 8  -9079906.97147  22365839.153    22365845.4224
  22344997.442   -10745287.923 8  -8350394.32646  22345001.026    22345007.6764
  22626551.898   -14185548.297 8 -11039535.53146  22626555.677    22626562.8524
 00  5  3  3 52  0.0000000  0  9 09 11 15 21 29 23 05 30 25
  24329468.250    -1034376.390 7   -781754.68745  24329474.107    24329479.9554
  24230795.570    -2811103.720 8  -2177152.78945  24230802.746    24230809.2354
  21747999.670   -13541708.198 8 -10522166.02947  21748001.132    21748007.7264
  20108952.102   -26159673.587 9 -20363209.08748  20108954.505    20108960.9464
  20544875.878   -22435312.619 9 -17468016.44748  20544878.982    20544884.4674
  21972990.623   -15438619.791 8 -12012670.81847  21972992.488    21972999.9224
  22365742.477   -11666184.962 8  -9080302.76347  22365741.979    22365748.9914
  22331710.341   -10815105.970 8  -8404797.93046  22331714.871    22331721.7874
  22610953.680   -14267532.038 8 -11103418.91746  22610954.383    22610961.4914
 00  5  3  3 52 30.0000000  0  9 09 11 15 21 29 23 05 30 25
  24350036.428     -926249.211 7   -697499.68845  24350049.771    24350055.7074
  24221933.536    -2857702.661 8  -2213463.65345  24221934.196    24221941.3394
  21754147.935   -13509389.398 8 -10496982.54947  21754150.553    21754158.2964
  20109094.197   -26158919.126 9 -20362621.20348  20109097.972    20109104.4904
  20543619.520   -22441914.339 9 -17473160.63948  20543622.433    20543628.1904
  21987074.954   -15364599.214 8 -11954992.49247  21987078.069    21987085.6684
  22365752.002   -11666123.317 8  -9080254.69347  22365754.141    22365760.7964
  22318496.680   -10884533.649 8  -8458897.36246  22318503.356    22318510.6904
  22595402.116   -14349244.051 8 -11167090.59247  22595405.521    22595412.1324
 00  5  3  3 53  0.0000000  0  9 09 11 15 21 29 23 05 30 25
  24370640.189     -818066.122 7   -613201.12845  24370636.140    24370642.2244
  24213157.956    -2903819.061 7  -2249398.49045  24213158.987    24213164.8804
  21760410.182   -13476487.746 8 -10471344.89747  21760412.784    21760419.9774
  20109342.061   -26157625.323 9 -20361613.05148  20109343.886    20109350.8214
  20542405.210   -22448307.471 9 -17478142.28648  20542406.093    20542411.1644
  22001232.022   -15290215.843 8 -11897031.48647  22001232.806    22001240.0024
  22365870.808   -11665491.467 8  -9079762.30747  22365874.784    22365881.3374
  22305367.099   -10953568.182 8  -8512690.43746  22305366.459    22305374.1354
  22579903.183   -14430683.377 8 -11230549.75046  22579908.111    22579914.6414
 00  5  3  3 53 30.0000000  0  9 09 11 15 21 29 23 05 30 25
  24391230.715     -709829.198 7   -528860.60345  24391232.913    24391239.0264
  24204463.877    -2949451.676 7  -2284956.37645  24204475.191    24204481.3914
  21766783.333   -13443004.919 8 -10445254.37847  21766784.750    21766790.8534
  20109690.538   -26155791.326 9 -20360183.96748  20109693.156    20109699.7944
  20541226.318   -22454491.731 9 -17482961.18548  20541229.209    20541234.4734
  22015450.563   -15215470.758 8 -11838788.60347  22015456.379    22015464.3444
  22366099.223   -11664288.955 8  -9078825.24047  22366103.126    22366109.6364
  22292300.173   -11022206.644 8  -8566174.90146  22292304.721    22292312.4454
  22564459.356   -14511848.774 8 -11293795.46446  22564462.423    22564470.1124
 00  5  3  3 54  0.0000000  0  9 09 11 15 21 29 23 05 30 25
  24411839.222     -601540.919 7   -444480.06845  24411839.695    24411845.1474
  24195883.192    -2994599.259 7  -2320136.29145  24195884.699    24195890.0574
  21773261.868   -13408942.993 8 -10418712.62147  21773265.944    21773272.8494
  20110142.104   -26153416.422 9 -20358333.39148  20110145.162    20110151.7864
  20540089.301   -22460467.065 9 -17487617.29048  20540092.149    20540097.4854
  22029743.084   -15140364.856 8 -11780264.58847  22029748.151    22029756.2224
  22366440.336   -11662515.427 8  -9077443.23747  22366440.572    22366447.4544
  22279320.571   -11090446.186 8  -8619348.50146  22279319.569    22279326.5164
  22549067.938   -14592739.459 8 -11356827.11847  22549070.148    22549077.2714
 00  5  3  3 54 30.0000000  0  9 09 11 15 21 29 23 05 30 25
  24432454.977     -493203.243 7   -360061.00945  24432455.728    24432461.9754
  24187382.847    -3039260.485 7  -2354937.29545  24187385.193    24187391.8884
  21779852.607   -13374303.720 8 -10391720.97547  21779857.537    21779864.4474
  20110697.645   -26150499.541 9 -20356060.50348  20110700.323    20110706.9184
  20538992.343   -22466233.022 9 -17492110.23048  20538994.563    20539000.4334
  22044105.910   -15064899.126 8 -11721460.17047  22044109.271    22044116.7674
  22366880.657   -11660170.392 8  -9075615.90547  22366886.301    22366893.1404
  22266408.210   -11158283.789 8  -8672208.91047  22266410.811    22266417.6554
  22533728.147   -14673354.340 8 -11419643.89747  22533730.058    22533736.4594
 00  5  3  3 55  0.0000000  0  9 09 11 15 21 29 23 05 30 25
  24453070.246     -384818.164 7   -275605.04845  24453080.359    24453086.1104
  24178983.359    -3083434.171 7  -2389358.33745  24178980.797    24178986.6654
  21786556.682   -13339088.953 8 -10364280.90447  21786558.909    21786565.7784
  20111356.576   -26147039.186 9 -20353364.12848  20111358.828    20111365.3054
  20537932.006   -22471789.647 9 -17496440.06048  20537937.084    20537943.0214
  22058534.698   -14989074.602 8 -11662376.17747  22058537.653    22058546.1834
  22367439.378   -11657253.537 8  -9073343.00247  22367441.254    22367449.0344
  22253574.244   -11225716.804 8  -8724754.05947  22253578.614    22253585.4364
  22518437.057   -14753692.384 8 -11482244.93247  22518441.625    22518448.6464
 00  5  3  3 55 30.0000000  0  9 09 11 15 21 29 23 05 30 25
  24473723.485     -276387.698 7   -191113.76445  24473713.461    24473719.1314
  24170654.744    -3127119.385 7  -2423398.74645  24170665.082    24170672.0094
  21793368.428   -13303300.465 8 -10336393.77347  21793369.596    21793375.8764
  20112118.627   -26143034.672 9 -20350243.73848  20112120.631    20112127.4844
  20536916.561   -22477136.672 9 -17500606.56048  20536920.185    20536925.7314
  22073032.121   -14912892.487 8 -11603013.54546  22073034.640    22073042.7904
  22368105.497   -11653764.677 8  -9070624.37947  22368105.795    22368112.1644
  22240821.153   -11292742.432 8  -8776981.76347  22240823.659    22240831.3764
  22503202.110   -14833752.317 8 -11544629.26346  22503206.600    22503212.5464
 00  5  3  3 56  0.0000000  0  9 09 11 15 21 29 23 05 30 25
  24494354.058     -167914.245 7   -106588.94545  24494355.714    24494361.3624
  24162440.159    -3170314.655 7  -2457057.36245  24162446.876    24162453.9934
  21800286.683   -13266940.223 8 -10308061.12147  21800288.505    21800294.6684
  20112985.090   -26138485.315 9 -20346698.79148  20112986.505    20112993.1284
  20535940.421   -22482273.896 9 -17504609.58748  20535942.618    20535948.4434
  22087596.730   -14836353.831 8 -11543373.09546  22087599.778    22087607.6124
  22368873.888   -11649703.474 8  -9067459.77047  22368877.903    22368885.8244
  22228143.905   -11359357.865 9  -8828889.85247  22228147.386    22228154.5814
  22488022.358   -14913533.481 8 -11606796.36546  22488024.281    22488030.1284
 00  5  3  3 56 30.0000000  0  9 09 11 15 21 29 23 05 30 25
  24515014.424      -59399.465 7    -22031.89145  24515005.855    24515011.0944
  24154319.936    -3213019.077 7  -2490333.54745  24154321.264    24154326.6554
  21807313.639   -13230009.948 8 -10279284.27547  21807315.675    21807322.3824
  20113954.436   -26133389.688 9 -20342728.16848  20113956.304    20113962.9154
  20535003.395   -22487201.190 9 -17508449.02748  20535005.214    20535010.5724
  22102225.521   -14759459.905 8 -11483455.80246  22102232.273    22102239.8994
  22369756.932   -11645069.652 8  -9063848.95947  22369760.222    22369767.2754
  22215547.051   -11425560.439 9  -8880476.21547  22215549.419    22215556.0424
  22472893.680   -14993034.424 8 -11668745.09846  22472895.568    22472901.9854
 00  5  3  3 57  0.0000000  0  9 09 11 15 21 29 23 05 30 25
  24535655.275       49154.359 7     62555.53845  24535661.472    24535668.0184
  24146291.795    -3255231.234 8  -2523226.12245  24146288.530    24146294.1344
  21814447.265   -13192511.722 8 -10250064.90547  21814451.517    21814458.5474
  20115027.546   -26127746.883 9 -20338331.17948  20115030.037    20115036.6564
  20534103.736   -22491918.198 9 -17512124.60648  20534107.250    20534112.8954
  22116928.810   -14682211.793 8 -11423262.53346  22116932.378    22116940.1414
  22370749.382   -11639862.961 8  -9059791.76147  22370751.301    22370758.7924
  22203028.266   -11491347.266 8  -8931738.64147  22203030.881    22203036.5074
  22457819.086   -15072254.330 8 -11730474.82047  22457820.970    22457827.7024
 00  5  3  3 57 30.0000000  0  9 09 11 15 21 29 23 05 30 25
  24556321.499      157745.198 7    147171.84145  24556326.111    24556333.2664
  24138339.719    -3296950.187 7  -2555734.42245  24138348.086    24138354.2184
  21821690.960   -13154447.381 8 -10220404.37247  21821694.592    21821701.6324
  20116205.477   -26121556.442 9 -20333507.46148  20116207.804    20116214.3684
  20533246.894   -22496425.069 9 -17515636.43848  20533249.600    20533255.2574
  22131701.436   -14604610.636 8 -11362794.15646  22131699.500    22131706.4794
  22371848.556   -11634083.159 8  -9055287.99247  22371850.724    22371857.5734
  22190584.593   -11556715.577 8  -8982674.92047  22190591.061    22190598.0364
  22442796.670   -15151191.997 8 -11791984.62147  22442799.016    22442805.9004
 00  5  3  3 58  0.0000000  0  9 09 11 15 21 29 23 05 30 25
  24577007.239      266371.087 7    231815.45645  24576997.373    24577002.2884
  24130507.270    -3338174.749 7  -2587857.46245  24130503.695    24130509.6204
  21829047.321   -13115818.808 8 -10190304.19447  21829045.880    21829052.2784
  20117487.625   -26114816.986 9 -20328255.94848  20117490.331    20117496.7944
  20532430.646   -22500721.164 9 -17518984.03348  20532432.053    20532437.4924
  22146529.973   -14526657.512 8 -11302051.51246  22146532.724    22146540.7894
  22373050.364   -11627730.048 8  -9050337.48946  22373058.813    22373067.0784
  22178233.048   -11621662.548 8  -9033282.88747  22178232.380    22178238.9664
  22427827.016   -15229846.902 8 -11853274.09447  22427831.769    22427838.4774
 00  5  3  3 58 30.0000000  0  9 09 11 15 21 29 23 05 30 25
  24597662.166      375030.160 7    316484.91645  24597675.366    24597681.1944
  24122752.353    -3378903.988 7  -2619594.54745  24122754.082    24122759.2894
  21836499.961   -13076628.205 8 -10159766.07747  21836503.788    21836509.8944
  20118875.375   -26107528.479 9 -20322576.60248  20118877.410    20118883.7954
  20531651.378   -22504806.683 9 -17522167.54148  20531654.484    20531660.0664
  22161427.051   -14448353.610 8 -11241035.55446  22161433.969    22161442.0484
  22374378.432   -11620803.577 8  -9044940.21246  22374377.428    22374384.7374
  22165952.104   -11686185.329 8  -9083560.33747  22165954.167    22165960.9804
  22412916.090   -15308217.320 8 -11914341.90247  22412917.521    22412924.8224
 00  5  3  3 59  0.0000000  0  9 09 11 15 21 29 23 05 30 25
  24618353.068      483720.659 7    401178.85245  24618359.926    24618364.4064
  24115084.741    -3419136.827 7  -2650944.82945  24115096.642    24115102.5484
  21844066.420   -13036877.634 8 -10128791.62147  21844067.328    21844073.8834
  20120364.725   -26099689.585 9 -20316468.38348  20120368.727    20120375.6184
  20530912.770   -22508681.104 9 -17525186.57048  20530916.958    20530923.0834
  22176396.998   -14369700.032 8 -11179747.11646  22176402.023    22176409.8114
  22375804.275   -11613303.582 8  -9039096.03946  22375804.849    22375812.2194
  22153752.739   -11750281.650 8  -9133505.45547  22153756.125    22153764.0134
  22398056.431   -15386302.884 8 -11975187.75047  22398059.058    22398066.3054
 00  5  3  3 59 30.0000000  0  9 09 11 15 21 29 23 05 30 25
  24639061.496      592440.126 7    485895.38045  24639047.860    24639052.6714
  24107537.284    -3458871.970 7  -2681907.27945  24107535.544    24107541.7284
  21851735.798   -12996569.051 8 -10097382.36347  21851738.062    21851744.6054
  20121961.625   -26091299.450 9 -20309930.61948  20121965.454    20121972.3974
  20530217.496   -22512344.291 9 -17528040.99048  20530220.006    20530226.0064
  22191430.783   -14290698.056 8 -11118187.18846  22191435.332    22191442.7304
  22377336.289   -11605230.134 8  -9032804.99746  22377341.059    22377348.0844
  22141638.727   -11813948.643 8  -9183116.04347  22141640.650    22141648.6684
  22383250.406   -15464102.319 8 -12035810.61847  22383254.237    22383261.1534
 00  5  3  4  0  0.0000000  0  9 09 11 15 21 29 23 05 30 25
  24659731.270      701186.745 7    570633.06445  24659742.617    24659745.9594
  24100071.777    -3498108.742 8  -2712481.38345  24100071.015    24100075.3084
  21859514.749   -12955704.386 8 -10065539.78747  21859514.538    21859521.0204
  20123665.538   -26082358.023 9 -20302963.27948  20123667.114    20123673.6654
  20529559.438   -22515796.170 9 -17530730.76248  20529562.781    20529569.0444
  22206532.202   -14211348.932 8 -11056356.76446  22206534.513    22206542.6314
  22378982.049   -11596582.991 8  -9026066.92746  22378986.625    22378993.1164
  22129607.088   -11877183.198 8  -9232389.66947  22129607.876    22129614.9924
  22368497.238   -15541614.685 8 -12096209.83647  22368503.518    22368510.7844
 00  5  3  4  0 30.0000000  0  8 11 15 21 29 23 05 30 25
  24092691.817    -3536846.026 7  -2742666.26045  24092697.709    24092703.0594
  21867394.079   -12914285.780 8 -10033265.58147  21867396.076    21867403.7564
  20125471.357   -26072863.589 9 -20295565.02248  20125473.986    20125480.4324
  20528941.945   -22519036.260 9 -17533255.51048  20528946.313    20528952.0674
  22221695.888   -14131653.765 8 -10994256.68646  22221699.640    22221708.4374
  22380739.729   -11587362.038 8  -9018881.74246  22380741.674    22380747.6614
  22117655.688   -11939983.205 8  -9281324.69647  22117657.319    22117664.5874
  22353808.538   -15618839.120 8 -12156384.64947  22353809.039    22353815.3324
 00  5  3  4  1  0.0000000  0  8 11 15 21 29 23 05 30 25
  24085419.464    -3575082.800 8  -2772461.10045  24085422.167    24085429.1104
  21875379.746   -12872315.579 8 -10000561.55347  21875382.750    21875389.5754
  20127382.727   -26062815.618 9 -20287735.44448  20127385.533    20127392.5354
  20528366.773   -22522064.601 9 -17535615.24848  20528370.035    20528375.7294
  22236932.892   -14051613.648 8 -10931887.84046  22236931.238    22236939.7124
  22382599.387   -11577567.439 8  -9011249.57046  22382605.065    22382612.0444
  22105792.031   -12002345.729 8  -9329918.81447  22105790.704    22105797.4064
  22339165.744   -15695774.559 8 -12216334.29247  22339168.961    22339174.8084
 00  5  3  4  1 30.0000000  0  8 11 15 21 29 23 05 30 25
  24078233.636    -3612818.157 7  -2801865.29945  24078241.925    24078248.9114
  21883472.201   -12829795.784 8  -9967429.28947  21883474.550    21883481.9564
  20129399.137   -26052213.521 9 -20279474.08248  20129403.066    20129409.9294
  20527831.972   -22524880.701 9 -17537809.61948  20527834.488    20527839.9754
  22252228.433   -13971229.927 8 -10869251.23746  22252227.812    22252235.3894
  22384581.799   -11567199.039 8  -9003170.25746  22384578.636    22384584.4324
  22094000.022   -12064268.057 8  -9378169.93047  22094006.590    22094013.4434
  22324581.182   -15772420.122 8 -12276058.07647  22324583.654    22324589.4964
 00  5  3  4  2  0.0000000  0  8 11 15 21 29 23 05 30 25
  24071152.036    -3650051.162 7  -2830878.01445  24071154.549    24071162.3404
  21891668.391   -12786728.488 8  -9933870.37647  21891670.236    21891677.3574
  20131525.064   -26041056.791 9 -20270780.53648  20131526.305    20131532.9584
  20527336.954   -22527484.493 9 -17539838.54548  20527338.967    20527344.3664
  22267586.349   -13890503.862 8 -10806347.87346  22267589.820    22267597.7484
  22386662.008   -11556256.877 8  -8994643.86646  22386660.614    22386666.2964
  22082301.082   -12125747.791 8  -9426076.16947  22082307.374    22082314.7314
  22310050.879   -15848774.801 8 -12335555.17947  22310053.578    22310059.5674
 00  5  3  4  2 30.0000000  0  8 11 15 21 29 23 05 30 25
  24064168.615    -3686780.669 7  -2859498.45045  24064165.869    24064173.4954
  21899964.811   -12743116.005 8  -9899886.66247  21899968.884    21899975.5254
  20133751.841   -26029344.716 9 -20261654.25148  20133755.133    20133761.6224
  20526881.163   -22529875.780 9 -17541701.87648  20526883.879    20526889.5994
  22283010.826   -13809436.859 8 -10743178.83746  22283016.558    22283023.6844
  22388852.858   -11544741.074 8  -8985670.47746  22388851.658    22388858.2464
  22070691.870   -12186782.092 9  -9473635.31747  22070693.673    22070700.2034
  22295575.320   -15924837.977 8 -12394825.11847  22295578.925    22295585.1314
 00  5  3  4  3  0.0000000  0  8 11 15 21 29 23 05 30 25
  24057267.450    -3723006.055 7  -2887726.02245  24057272.454    24057279.2954
  21908372.238   -12698960.300 8  -9865479.64447  21908371.738    21908377.8534
  20136088.831   -26017076.352 9 -20252094.49048  20136090.003    20136096.4904
  20526466.595   -22532054.076 9 -17543399.24848  20526469.240    20526475.1784
  22298505.620   -13728030.011 8 -10679745.00546  22298507.801    22298514.6954
  22391150.963   -11532651.648 8  -8976250.12846  22391152.149    22391159.5984
  22059159.751   -12247368.155 8  -9520845.18247  22059163.526    22059170.6054
  22281156.044   -16000608.322 8 -12453866.87547  22281160.037    22281166.6014
 00  5  3  4  3 30.0000000  0  8 11 15 21 29 23 05 30 25
  24050475.520    -3758726.363 7  -2915560.03845  24050476.044    24050481.6134
  21916875.789   -12654263.703 8  -9830651.15247  21916877.592    21916883.3344
  20138528.099   -26004251.360 9 -20242100.99848  20138530.300    20138537.1584
  20526093.077   -22534019.359 9 -17544930.63448  20526095.462    20526101.3034
  22314058.746   -13646284.604 8 -10616047.36046  22314063.500    22314070.6994
  22393558.398   -11519988.718 8  -8966382.88746  22393561.839    22393569.5254
  22047716.458   -12307503.519 8  -9567703.86247  22047720.362    22047726.4834
  22266793.841   -16076085.090 8 -12512679.84447  22266797.696    22266803.8114
 00  5  3  4  4  0.0000000  0  8 11 15 21 29 23 05 30 25
  24043775.028    -3793940.773 7  -2942999.81645  24043774.289    24043781.5724
  21925483.296   -12609028.438 8  -9795402.92947  21925485.069    21925492.8304
  20141072.047   -25990869.307 9 -20231673.44048  20141076.901    20141083.5934
  20525760.339   -22535771.310 9 -17546295.78348  20525761.988    20525768.1864
  22329678.520   -13564202.021 8 -10552086.95346  22329682.837    22329690.7204
  22396077.323   -11506752.462 8  -8956068.90146  22396080.685    22396087.6594
  22036363.451   -12367185.686 8  -9614209.41947  22036363.324    22036369.2914
  22252489.139   -16151267.549 8 -12571263.48147  22252490.683    22252496.9704
 00  5  3  4  4 30.0000000  0  8 11 15 21 29 23 05 30 25
  24037157.695    -3828648.512 7  -2970044.81145  24037167.574    24037176.5614
  21934191.837   -12563256.706 8  -9759736.68347  21934195.034    21934202.7724
  20143726.915   -25976929.147 9 -20220810.99148  20143729.626    20143736.2454
  20525465.945   -22537309.608 9 -17547494.45548  20525469.193    20525475.2974
  22345363.188   -13481783.593 8 -10487864.88446  22345366.556    22345374.4344
  22398704.526   -11492942.712 8  -8945308.02846  22398708.429    22398715.8494
  22025096.746   -12426412.032 9  -9660359.77847  22025093.299    22025099.7244
  22238239.162   -16226154.798 8 -12629617.12447  22238240.411    22238246.5624
 00  5  3  4  5  0.0000000  0  8 11 15 21 29 23 05 30 25
  24030660.678    -3862848.658 7  -2996694.29145  24030661.281    24030666.1324
  21943001.685   -12516950.676 8  -9723654.09847  21943006.801    21943013.7354
  20146487.083   -25962430.267 9 -20209513.17248  20146488.516    20146495.5064
  20525213.795   -22538634.181 9 -17548526.58448  20525217.543    20525222.6994
  22361111.826   -13399030.557 8 -10423382.05746  22361114.526    22361122.4014
  22401442.071   -11478559.748 8  -8934100.50346  22401446.319    22401451.7854
  22013904.830   -12485179.950 8  -9706152.92247  22013909.669    22013916.0404
  22224045.102   -16300745.768 8 -12687739.86447  22224045.834    22224052.4284
 00  5  3  4  5 30.0000000  0  8 11 15 21 29 23 05 30 25
  24024247.685    -3896540.425 7  -3022947.61345  24024251.185    24024257.5764
  21951917.910   -12470112.773 8  -9687157.07247  21951919.303    21951927.3664
  20149351.708   -25947372.758 9 -20197780.05348  20149353.726    20149360.5564
  20525003.726   -22539744.525 9 -17549391.77748  20525006.434    20525011.6544
  22376917.969   -13315944.171 8 -10358639.50546  22376925.479    22376933.1034
  22404288.791   -11463603.969 8  -8922446.62646  22404290.977    22404298.3614
  22002807.943   -12543487.055 8  -9751586.98647  22002814.284    22002821.0594
  22209905.445   -16375039.570 8 -12745631.03847  22209908.421    22209914.3464
 00  5  3  4  6  0.0000000  0  8 11 15 21 29 23 05 30 25
  24017935.149    -3929723.021 7  -3048804.19645  24017936.211    24017942.6474
  21960930.779   -12422745.387 8  -9650247.44947  21960933.722    21960940.8174
  20152323.532   -25931755.630 9 -20185610.87448  20152325.912    20152332.1014
  20524833.511   -22540640.523 9 -17550089.95748  20524835.343    20524840.9854
  22392796.654   -13232525.889 8 -10293638.31846  22392799.455    22392807.0464
  22407244.245   -11448075.442 8  -8910346.44646  22407245.881    22407253.2964
  21991802.563   -12601330.664 8  -9796659.88547  21991806.825    21991813.5534
  22195825.966   -16449035.359 9 -12803290.00747  22195827.140    22195833.1384
 00  5  3  4  6 30.0000000  0  8 11 15 21 29 23 05 30 25
  24011707.641    -3962395.695 7  -3074263.44245  24011718.839    24011726.5434
  21970041.392   -12374850.640 8  -9612926.90047  21970047.226    21970055.4474
  20155402.118   -25915578.935 9 -20173005.66448  20155404.206    20155410.4884
  20524703.618   -22541321.848 9 -17550620.85648  20524705.871    20524711.1354
  22408738.069   -13148776.888 8 -10228379.42146  22408736.581    22408743.8934
  22410303.433   -11431974.361 8  -8897800.12746  22410309.834    22410317.4614
  21980887.891   -12658708.171 9  -9841369.58747  21980888.414    21980894.8224
  22181801.586   -16522732.443 8 -12860716.22347  22181802.828    22181808.5034
 00  5  3  4  7  0.0000000  0  8 11 15 21 29 23 05 30 25
  24005596.114    -3994557.579 7  -3099324.63845  24005597.931    24005605.0934
  21979260.273   -12326430.827 8  -9575197.19947  21979261.676    21979268.8104
  20158586.455   -25898841.959 9 -20159963.87648  20158589.013    20158595.7474
  20524613.312   -22541788.243 9 -17550984.27248  20524617.131    20524622.3404
  22424734.164   -13064698.608 8 -10162863.96546  22424736.683    22424743.9174
  22413477.913   -11415301.076 8  -8884807.91846  22413482.973    22413490.0544
  21970055.538   -12715617.433 8  -9885714.43247  21970059.241    21970065.2274
  22167831.724   -16596129.931 9 -12917908.96547  22167836.587    22167842.3294
 00  5  3  4  7 30.0000000  0  8 11 15 21 29 23 05 30 25
  23999570.435    -4026208.064 7  -3123987.36845  23999576.139    23999582.1674
  21988569.411   -12277488.537 8  -9537060.37646  21988573.835    21988582.2404
  20161877.288   -25881543.683 9 -20146484.71048  20161880.956    20161887.3924
  20524567.655   -22542039.513 9 -17551180.06548  20524569.121    20524574.6434
  22440794.806   -12980292.624 8 -10097093.12746  22440798.319    22440805.9264
  22416765.946   -11398056.068 8  -8871370.23247  22416764.851    22416772.2434
  21959316.589   -12772055.756 9  -9929692.31747  21959319.337    21959325.6924
  22153925.597   -16669227.112 9 -12974867.69447  22153926.129    22153932.0834
 00  5  3  4  8  0.0000000  0  8 11 15 21 29 23 05 30 25
  23993646.007    -4057346.688 7  -3148251.19345  23993648.910    23993655.6834
  21997985.538   -12228026.305 8  -9498518.40846  21997986.668    21997994.7874
  20165277.240   -25863683.848 9 -20132567.96448  20165279.523    20165285.9994
  20524561.072   -22542075.198 9 -17551207.86848  20524562.284    20524567.8554
  22456913.898   -12895560.143 8 -10031067.88846  22456922.020    22456929.8904
  22420153.358   -11380239.566 8  -8857487.21947  22420155.369    22420162.3564
  21948664.830   -12828020.729 8  -9973301.34847  21948669.020    21948675.8274
  22140072.167   -16742023.194 9 -13031591.83047  22140073.530    22140079.6384
 00  5  3  4  8 30.0000000  0  8 11 15 21 29 23 05 30 25
  23987821.039    -4087972.538 7  -3172115.55845  23987822.506    23987828.6384
  22007494.616   -12178046.254 8  -9459572.92646  22007497.839    22007504.4554
  20168783.393   -25845262.341 9 -20118213.54748  20168785.072    20168791.5384
  20524594.973   -22541895.120 9 -17551067.54748  20524596.700    20524602.2124
  22473109.891   -12810502.573 8  -9964789.36446  22473108.846    22473116.0974
  22423649.508   -11361851.854 8  -8843159.11247  22423654.125    22423661.1784
  21938110.682   -12883509.731 8 -10016539.49147  21938109.650    21938116.4704
  22126276.170   -16814517.097 8 -13088080.50747  22126278.171    22126284.3534
 00  5  3  4  9  0.0000000  0  8 11 15 21 29 23 05 30 25
  23982096.014    -4118085.036 7  -3195579.82545  23982092.110    23982098.4814
  22017104.050   -12127550.962 8  -9420225.96846  22017106.713    22017113.5724
  20172394.804   -25826278.889 9 -20103421.25648  20172397.559    20172403.9154
  20524668.169   -22541498.915 9 -17550758.81348  20524671.873    20524677.8504
  22489356.708   -12725121.480 8  -9898258.72246  22489356.113    22489363.4334
  22427258.508   -11342893.205 8  -8828386.11947  22427261.942    22427269.0364
  21927639.306   -12938520.334 8 -10059404.86047  21927641.747    21927648.5584
  22112538.334   -16886708.321 8 -13144333.33647  22112540.211    22112545.8534
 00  5  3  4  9 30.0000000  0  8 11 15 21 29 23 05 30 25
  23976458.042    -4147683.515 7  -3218643.57245  23976457.371    23976465.2974
  22026808.399   -12076542.834 8  -9380479.41046  22026813.371    22026820.5014
  20176114.266   -25806732.959 9 -20088190.67148  20176116.953    20176123.5514
  20524786.341   -22540886.286 9 -17550281.44048  20524788.348    20524794.5074
  22505666.335   -12639418.153 8  -9831476.99246  22505664.068    22505672.2874
  22430973.822   -11323363.803 8  -8813168.37547  22430978.133    22430984.9414
  21917260.990   -12993050.302 8 -10101895.69647  21917265.276    21917271.4434
  22098857.047   -16958596.079 9 -13200349.70147  22098860.802    22098866.7114
 00  5  3  4 10  0.0000000  0  8 11 15 21 29 23 05 30 25
  23970921.645    -4176767.416 8  -3241306.33945  23970926.834    23970931.0864
  22036613.145   -12025024.363 8  -9340335.17047  22036617.384    22036624.9884
  20179940.917   -25786624.246 9 -20072521.55748  20179943.422    20179950.1704
  20524941.852   -22540057.054 9 -17549635.28048  20524946.146    20524952.2634
  22522031.326   -12553394.104 8  -9764445.33246  22522033.329    22522042.0094
  22434796.906   -11303264.247 8  -8797506.34247  22434802.900    22434809.9494
  21906978.584   -13047097.011 9 -10144009.99647  21906980.747    21906986.8944
  22085237.649   -17030179.401 9 -13256128.82247  22085238.942    22085245.1244
 00  5  3  4 10 30.0000000  0  8 11 15 21 29 23 05 30 25
  23965489.186    -4205335.953 7  -3263567.52845  23965488.718    23965496.2774
  22046513.944   -11972998.080 8  -9299795.23547  22046517.691    22046525.0364
  20183874.203   -25765952.385 9 -20056413.62448  20183877.129    20183883.9284
  20525143.754   -22539010.788 9 -17548820.00148  20525145.787    20525151.3804
  22538462.129   -12467050.709 8  -9697164.84146  22538464.776    22538472.9414
  22438731.032   -11282595.100 8  -8781400.47546  22438736.398    22438742.6874
  21896782.845   -13100658.371 8 -10185746.06447  21896787.889    21896794.4714
  22071671.619   -17101457.256 9 -13311669.94147  22071675.134    22071681.3364
 00  5  3  4 11  0.0000000  0  8 11 15 21 29 23 05 30 25
  23960151.534    -4233388.932 7  -3285426.99645  23960149.939    23960156.3454
  22056510.686   -11920466.566 8  -9258861.60347  22056513.117    22056521.4534
  20187914.109   -25744717.194 9 -20039866.73648  20187918.009    20187924.9454
  20525383.128   -22537747.299 9 -17547835.46248  20525386.277    20525391.7894
  22554956.414   -12380389.418 8  -9629636.63446  22554956.332    22554964.2194
  22442775.187   -11261356.648 8  -8764851.02646  22442778.002    22442784.2914
  21886686.885   -13153732.084 8 -10227102.17047  21886687.756    21886695.3224
  22058166.567   -17172429.016 8 -13366972.55747  22058168.944    22058175.7894
 00  5  3  4 11 30.0000000  0  8 11 15 21 29 23 05 30 25
  23954912.153    -4260925.471 7  -3306884.04645  23954909.587    23954916.4864
  22066603.369   -11867432.238 8  -9217536.18447  22066605.748    22066613.6354
  20192063.798   -25722918.330 9 -20022880.62248  20192066.240    20192073.0214
  20525665.326   -22536266.256 9 -17546681.40248  20525667.671    20525673.7584
  22571505.650   -12293411.763 8  -9561861.89146  22571507.499    22571515.1474
  22446929.693   -11239549.273 8  -8747858.24847  22446927.848    22446934.8334
  21876677.478   -13206315.368 8 -10268076.10947  21876681.954    21876688.8204
  22044716.755   -17243094.272 8 -13422036.30947  22044721.668    22044728.5324
 00  5  3  4 12  0.0000000  0  8 11 15 21 29 23 05 30 25
  23949766.836    -4287945.144 7  -3327938.32145  23949768.205    23949775.5404
  22076792.286   -11813897.460 8  -9175820.79647  22076793.676    22076801.1504
  20196318.865   -25700555.486 9 -20005455.04348  20196321.807    20196328.3444
  20525987.200   -22534567.170 9 -17545357.43548  20525990.787    20525997.0024
  22588116.788   -12206119.227 8  -9493841.80146  22588118.585    22588126.6094
  22451183.766   -11217173.728 8  -8730422.72647  22451185.427    22451191.8854
  21866761.908   -13258406.054 8 -10308666.20947  21866768.742    21866776.2494
  22031330.777   -17313452.052 8 -13476860.51947  22031333.163    22031339.5164
